[[{"header":{"parameterUnit":"m.s-1","parameterCategory":1,"la1":31.0,"la2":29.5877,"lo1":-88.7671,"lo2":-86.6584,"dy":0.0162,"dx":0.0185,"nx":115,"ny":88,"refTime":"2024-04-03T06:00:00:Z","depth":0,"parameterNumber":2,"parameterNumberName":"U-component_of_WINDS"},"data":[0.0,0.0,0.0,0.0,0.0,0.0,0.0,0.0,0.0,0.0,0.0,0.0,0.0,0.0,0.0,0.0,0.0,0.0,0.0,0.0,0.0,0.0,0.0,0.0,0.0,0.0,0.0,0.0,0.0,0.0,0.0,0.0,0.0,0.0,0.0,0.0,0.0,0.0,0.0,0.0,0.0,0.0,0.0,0.0,0.0,0.0,0.0,0.0,0.0,0.0,0.0,0.0,0.0,0.0,0.0,0.0,0.0,0.0,0.0,0.0,0.0,0.0,0.0,0.0,0.0,0.0,0.0,0.0,0.0,0.0,0.0,0.0,0.0,0.0,0.0,0.0,0.0,0.0,0.0,0.0,0.0,0.0,0.0,0.0,0.0,0.0,0.0,0.0,0.0,0.0,0.0,0.0,0.0,0.0,0.0,0.0,0.0,0.0,0.0,0.0,0.0,0.0,0.0,0.0,0.0,0.0,0.0,0.0,0.0,0.0,0.0,0.0,0.0,0.0,0.0,0.0,0.0,0.0,0.0,0.0,0.0,0.0,0.0,0.0,0.0,0.0,0.0,0.0,0.0,0.0,0.0,0.0,0.0,0.0,0.0,0.0,0.0,0.0,0.0,0.0,0.0,0.0,0.0,0.0,0.0,0.0,0.0,0.0,0.0,0.0,0.0,0.0,0.0,0.0,0.0,0.0,0.0,0.0,0.0,0.0,0.0,0.0,0.0,0.0,0.0,0.0,0.0,0.0,0.0,0.0,0.0,0.0,0.0,0.0,0.0,0.0,0.0,0.0,0.0,0.0,0.0,0.0,0.0,0.0,0.0,0.0,0.0,0.0,0.0,0.0,0.0,0.0,0.0,0.0,0.0,0.0,0.0,0.0,0.0,0.0,0.0,0.0,0.0,0.0,0.0,0.0,0.0,0.0,0.0,0.0,0.0,0.0,0.0,0.0,0.0,0.0,0.0,0.0,0.0,0.0,0.0,0.0,0.0,0.0,0.0,0.0,0.0,0.0,0.0,0.0,0.0,0.0,0.0,0.0,0.0,0.0,0.0,0.0,0.0,0.0,0.0,0.0,0.0,0.0,0.0,0.0,0.0,0.0,0.0,0.0,0.0,0.0,0.0,0.0,0.0,0.0,0.0,0.0,0.0,0.0,0.0,0.0,0.0,0.0,0.0,0.0,0.0,0.0,0.0,0.0,0.0,0.0,0.0,0.0,0.0,0.0,0.0,0.0,0.0,0.0,0.0,0.0,0.0,0.0,0.0,0.0,0.0,0.0,0.0,0.0,0.0,0.0,0.0,0.0,0.0,0.0,0.0,0.0,0.0,0.0,0.0,0.0,0.0,0.0,0.0,0.0,0.0,0.0,0.0,0.0,0.0,0.0,0.0,0.0,0.0,0.0,0.0,0.0,0.0,0.0,0.0,0.0,0.0,0.0,0.0,0.0,0.0,0.0,0.0,0.0,0.0,0.0,0.0,0.0,0.0,0.0,0.0,0.0,0.0,0.0,0.0,0.0,0.0,0.0,0.0,0.0,0.0,0.0,0.0,0.0,0.0,0.0,0.0,0.0,0.0,0.0,0.0,0.0,0.0,0.0,0.0,0.0,0.0,0.0,0.0,0.0,0.0,0.0,0.0,0.0,0.0,0.0,0.0,0.0,0.0,0.0,0.0,0.0,0.0,0.0,0.0,0.0,0.0,0.0,0.0,0.0,0.0,0.0,0.0,0.0,0.0,0.0,0.0,0.0,0.0,0.0,0.0,0.0,0.0,0.0,0.0,0.0,0.0,0.0,0.0,0.0,0.0,0.0,0.0,0.0,0.0,0.0,0.0,0.0,0.0,0.0,0.0,0.0,0.0,0.0,0.0,0.0,0.0,0.0,0.0,0.0,0.0,0.0,0.0,0.0,0.0,0.0,0.0,0.0,0.0,0.0,0.0,0.0,0.0,0.0,0.0,0.0,0.0,0.0,0.0,0.0,0.0,0.0,0.0,0.0,0.0,0.0,0.0,0.0,0.0,0.0,0.0,0.0,0.0,0.0,0.0,0.0,0.0,0.0,0.0,0.0,0.0,0.0,0.0,0.0,0.0,0.0,0.0,0.0,0.0,0.0,0.0,0.0,0.0,0.0,0.0,0.0,0.0,0.0,0.0,0.0,0.0,0.0,0.0,0.0,0.0,0.0,0.0,0.0,0.0,0.0,0.0,0.0,0.0,0.0,0.0,0.0,0.0,0.0,0.0,0.0,0.0,0.0,0.0,0.0,0.0,0.0,0.0,0.0,0.0,0.0,0.0,0.0,0.0,0.0,0.0,0.0,0.0,0.0,0.0,0.0,0.0,0.0,0.0,0.0,0.0,0.0,0.0,0.0,0.0,0.0,0.0,0.0,0.0,0.0,0.0,0.0,0.0,0.0,0.0,0.0,0.0,0.0,0.0,0.0,0.0,0.0,0.0,0.0,0.0,0.0,0.0,0.0,0.0,0.0,0.0,0.0,0.0,0.0,0.0,0.0,0.0,0.0,0.0,0.0,0.0,0.0,0.0,0.0,0.0,0.0,0.0,0.0,0.0,0.0,0.0,0.0,0.0,0.0,0.0,0.0,0.0,0.0,0.0,0.0,0.0,0.0,0.0,0.0,0.0,0.0,0.0,0.0,0.0,0.0,0.0,0.0,0.0,0.0,0.0,0.0,0.0,0.0,0.0,0.0,0.0,0.0,0.0,0.0,0.0,0.0,0.0,0.0,0.0,0.0,0.0,0.0,0.0,0.0,0.0,0.0,0.0,0.0,0.0,0.0,0.0,0.0,0.0,0.0,0.0,0.0,0.0,0.0,0.0,0.0,0.0,0.0,0.0,0.0,0.0,0.0,0.0,0.0,0.0,0.0,0.0,0.0,0.0,0.0,0.0,0.0,0.0,0.0,0.0,0.0,0.0,0.0,0.0,0.0,0.0,0.0,0.0,0.0,0.0,0.0,0.0,0.0,0.0,0.0,0.0,0.0,0.0,0.0,0.0,0.0,0.0,0.0,0.0,0.0,0.0,0.0,0.0,0.0,0.0,0.0,0.0,0.0,0.0,0.0,0.0,0.0,0.0,0.0,0.0,0.0,0.0,0.0,0.0,0.0,0.0,0.0,0.0,0.0,0.0,0.0,0.0,0.0,0.0,0.0,0.0,0.0,0.0,0.0,0.0,0.0,0.0,0.0,0.0,0.0,0.0,0.0,0.0,0.0,0.0,0.0,0.0,0.0,0.0,0.0,0.0,0.0,0.0,0.0,0.0,0.0,0.0,0.0,0.0,0.0,0.0,0.0,0.0,0.0,0.0,0.0,0.0,0.0,0.0,0.0,0.0,0.0,0.0,0.0,0.0,0.0,0.0,0.0,0.0,0.0,0.0,0.0,0.0,0.0,0.0,0.0,0.0,0.0,0.0,0.0,0.0,0.0,0.0,0.0,0.0,0.0,0.0,0.0,0.0,0.0,0.0,0.0,0.0,0.0,0.0,0.0,0.0,0.0,0.0,0.0,0.0,0.0,0.0,0.0,0.0,0.0,0.0,0.0,0.0,0.0,0.0,0.0,0.0,0.0,0.0,0.0,0.0,0.0,0.0,0.0,0.0,0.0,0.0,0.0,0.0,0.0,0.0,0.0,0.0,0.0,0.0,0.0,0.0,0.0,0.0,0.0,0.0,0.0,0.0,0.0,0.0,0.0,0.0,0.0,0.0,0.0,0.0,0.0,0.0,0.0,0.0,0.0,0.0,0.0,0.0,0.0,0.0,0.0,0.0,0.0,0.0,0.0,0.0,0.0,0.0,0.0,0.0,0.0,0.0,0.0,0.0,0.0,0.0,0.0,0.0,0.0,0.0,0.0,0.0,0.0,0.0,0.0,0.0,0.0,0.0,0.0,0.0,0.0,0.0,0.0,0.0,0.0,0.0,0.0,0.0,0.0,0.0,0.0,0.0,0.0,0.0,0.0,0.0,0.0,0.0,0.0,0.0,0.0,0.0,0.0,0.0,0.0,0.0,0.0,0.0,0.0,0.0,0.0,0.0,0.0,0.0,0.0,0.0,0.0,0.0,0.0,0.0,0.0,0.0,0.0,0.0,0.0,0.0,0.0,0.0,0.0,0.0,0.0,0.0,0.0,0.0,0.0,0.0,0.0,0.0,0.0,0.0,0.0,0.0,0.0,0.0,0.0,0.0,0.0,0.0,0.0,0.0,0.0,0.0,0.0,0.0,0.0,0.0,0.0,0.0,0.0,0.0,0.0,0.0,0.0,0.0,0.0,0.79,0.0,0.0,0.0,0.0,0.0,0.0,0.0,0.0,0.0,0.0,0.0,0.0,0.0,0.0,0.0,0.0,0.0,0.0,0.0,0.0,0.0,0.0,0.0,0.0,0.0,0.0,0.0,0.0,0.0,0.0,0.0,0.0,0.0,0.0,0.0,0.0,0.0,0.0,0.0,0.0,0.0,0.0,0.0,0.0,0.0,0.0,0.0,0.0,0.0,0.0,0.0,0.0,0.0,0.0,0.0,0.0,0.0,0.0,0.0,0.0,0.0,0.0,0.0,0.0,0.0,0.0,0.0,0.0,0.0,0.0,0.0,0.0,0.0,0.0,0.0,0.0,0.0,0.0,0.0,0.0,0.0,0.0,0.0,0.0,0.0,0.0,0.0,0.0,0.0,0.0,0.0,0.0,0.0,0.0,0.0,0.0,0.0,0.0,0.0,0.0,0.0,0.0,0.0,0.0,0.0,0.0,0.0,0.0,0.0,0.0,0.7739,0.7783,0.7827,0.8005,0.8454,0.0,0.0,0.0,0.0,0.0,0.0,0.0,0.0,0.0,0.0,0.0,0.0,0.0,0.0,0.0,0.0,0.0,0.0,0.0,0.0,0.0,0.0,0.0,0.0,0.0,0.0,0.0,0.0,0.0,0.0,0.0,0.0,0.0,0.0,0.0,0.0,0.0,0.0,0.0,0.0,0.0,0.0,0.0,0.0,0.0,0.0,0.0,0.0,0.0,0.0,0.0,0.0,0.0,0.0,0.0,0.0,0.0,0.0,0.0,0.0,0.0,0.0,0.0,0.0,0.0,0.0,0.0,0.0,0.0,0.0,0.0,0.0,0.0,0.0,0.0,0.0,0.0,0.0,0.0,0.0,0.0,0.0,0.0,0.0,0.0,0.0,0.0,0.0,0.0,0.0,0.0,0.0,0.0,0.0,0.0,0.0,0.0,0.0,0.0,0.0,0.0,0.0,0.0,0.0,0.0,0.0,0.0,0.0,0.0,0.0,0.0,0.0,0.8287,0.8616,0.934,0.0,0.0,0.0,0.0,0.0,0.0,0.0,0.0,0.0,0.0,0.0,0.0,0.0,0.0,0.0,0.0,0.0,0.0,0.0,0.0,0.0,0.0,0.0,0.0,0.0,0.0,0.0,0.0,0.0,0.0,0.0,0.0,0.0,0.0,0.0,0.0,0.0,0.0,0.0,0.0,0.0,0.0,0.0,0.0,0.0,0.0,0.0,0.0,0.0,0.0,0.0,0.0,0.0,0.0,0.0,0.0,0.0,0.0,0.0,0.0,0.0,0.0,0.0,0.0,0.0,0.0,0.0,0.0,0.0,0.0,0.0,0.0,0.0,0.0,0.0,0.0,0.0,0.0,0.0,0.0,0.0,0.0,0.0,0.0,0.0,0.0,0.0,0.0,0.0,0.0,0.0,0.0,0.0,0.0,0.0,0.0,0.0,0.0,0.0,0.0,0.0,0.0,0.0,0.0,0.0,0.0,0.0,0.0,0.0,0.0,0.9083,0.9695,0.9695,0.0,1.0544,0.0,0.0,0.0,0.0,0.0,0.0,0.0,0.0,0.0,0.0,0.0,0.0,0.0,0.0,0.0,0.0,0.0,0.0,0.0,0.0,0.0,0.0,0.0,0.0,0.0,0.0,0.0,0.0,0.0,0.0,0.0,0.0,0.0,0.0,0.0,0.0,0.0,0.0,0.0,0.0,0.0,0.0,0.0,0.0,0.0,0.0,0.0,0.0,0.0,0.0,0.0,0.0,0.0,0.0,0.0,0.0,0.0,0.0,0.0,0.0,0.0,0.0,0.0,0.0,0.0,0.0,0.0,0.0,0.0,0.0,0.0,0.0,0.0,0.0,0.0,0.0,0.0,0.0,0.0,0.0,0.0,0.0,0.0,0.0,0.0,0.0,0.0,0.0,0.0,0.0,0.0,0.0,0.0,0.0,0.0,0.0,0.0,0.0,0.0,0.0,0.0,0.0,0.0,0.0,0.0,0.0,0.0,0.0,0.0,0.0,0.922,0.9875,1.0264,1.0383,0.0,0.0,0.0,0.0,0.0,0.0,0.0,0.0,0.0,0.0,0.0,0.0,0.0,0.0,0.0,0.0,0.0,0.0,0.0,0.0,0.0,0.0,0.0,0.0,0.0,0.0,0.0,0.0,0.0,0.0,0.0,0.0,0.0,0.0,0.0,0.0,0.0,0.0,0.0,0.0,0.0,0.0,0.0,0.0,0.0,0.0,0.0,0.0,0.0,0.0,0.0,0.0,0.0,0.0,0.0,0.0,0.0,0.0,0.0,0.0,0.0,0.0,0.0,0.0,0.0,0.0,0.0,0.0,0.0,0.0,0.0,0.0,0.0,0.0,0.0,0.0,0.0,0.0,0.0,0.0,0.0,0.0,0.0,0.0,0.0,0.0,0.0,0.0,0.0,0.0,0.0,0.0,0.0,0.0,0.0,0.0,0.0,0.0,0.0,0.0,0.0,0.0,0.0,0.0,0.0,0.0,0.0,0.0,0.0,0.0,0.919,0.958,1.0421,1.0882,1.0822,1.0193,0.0,0.0,0.0,0.0,0.0,0.0,0.0,0.0,0.0,0.0,0.0,0.0,0.0,0.0,0.0,0.0,0.0,0.0,0.0,0.0,0.0,0.0,0.0,0.0,0.0,0.0,0.0,0.0,0.0,0.0,0.0,0.0,0.0,0.0,0.0,0.0,0.0,0.0,0.0,0.0,0.0,0.0,0.0,0.0,0.0,0.0,0.0,0.0,0.0,0.0,0.0,0.0,0.0,0.0,0.0,0.0,0.0,0.0,0.0,0.0,0.0,0.0,0.0,0.0,0.0,0.0,0.0,0.0,0.0,0.0,0.0,0.0,0.0,0.0,0.0,0.0,0.0,0.0,0.0,0.0,0.0,0.0,0.0,0.0,0.0,0.0,0.0,0.0,0.0,0.0,0.0,0.0,0.0,0.0,0.0,0.0,0.0,0.0,0.0,0.0,0.0,0.0,0.0,0.0,0.0,0.0,0.0,0.0,0.9785,0.9875,1.0511,1.1725,1.1846,1.1544,0.0,0.0,0.0,0.0,0.0,0.0,0.0,0.0,0.0,0.0,0.0,0.0,0.0,0.0,0.0,0.0,0.0,0.0,0.0,0.0,0.0,0.0,0.0,0.0,0.0,0.0,0.0,0.0,0.0,0.0,0.0,0.0,0.0,0.0,0.0,0.0,0.0,0.0,0.0,0.0,0.0,0.0,0.0,0.0,0.0,0.0,0.0,0.0,0.0,0.0,0.0,0.0,0.0,0.0,0.0,0.0,0.0,0.0,0.0,0.0,0.0,0.0,0.0,0.0,0.0,0.0,0.0,0.0,0.0,0.0,0.0,0.0,0.0,0.0,0.0,0.0,0.0,0.0,0.0,0.0,0.0,0.0,0.0,0.0,0.0,0.0,0.0,0.0,0.0,0.0,0.0,0.0,0.0,0.0,0.0,0.0,0.0,0.0,0.0,0.0,0.0,0.0,0.0,0.0,0.0,0.0,0.0,0.0,0.0,0.9851,1.0799,1.1526,1.2003,1.2033,1.1526,0.0,0.0,0.0,0.0,0.0,0.0,0.0,0.0,0.0,0.0,0.0,0.0,0.0,0.0,0.0,0.0,0.0,0.0,0.0,0.0,0.0,0.0,0.0,0.0,0.0,0.0,0.0,0.0,0.0,0.0,0.0,0.0,0.0,0.0,0.0,0.0,0.0,0.0,0.0,0.0,0.0,0.0,0.0,0.0,0.0,0.0,0.0,0.0,0.0,0.0,0.0,0.0,0.0,0.0,0.0,0.0,0.0,0.0,0.0,0.0,0.0,0.0,0.0,0.0,0.0,0.0,0.0,0.0,0.0,0.0,0.0,0.0,0.0,0.0,0.0,0.0,0.0,0.0,0.0,0.0,0.0,0.0,0.0,0.0,0.0,0.0,0.0,0.0,0.0,0.0,0.0,0.0,0.0,0.0,0.0,0.0,0.0,0.0,0.0,0.0,0.0,0.0,0.0,0.0,0.0,0.0,0.0,0.0,0.0,1.0236,0.0,1.2138,1.2159,1.2159,1.1543,0.0,0.0,0.0,0.0,0.0,0.0,0.0,0.0,0.0,0.0,0.0,0.0,0.0,0.0,0.0,0.0,0.0,0.0,0.0,0.0,0.0,0.0,0.0,0.0,0.0,0.0,0.0,0.0,0.0,0.0,0.0,0.0,0.0,0.0,0.0,0.0,0.0,0.0,0.0,0.0,0.0,0.0,0.0,0.0,0.0,0.0,0.0,0.0,0.0,0.0,0.0,0.0,0.0,0.0,0.0,0.0,0.0,0.0,0.0,0.0,0.0,0.0,0.0,0.0,0.0,0.0,0.0,0.0,0.0,0.0,0.0,0.0,0.0,0.0,0.0,0.0,0.0,0.0,0.0,0.0,0.0,0.0,0.0,0.0,0.0,0.0,0.0,0.0,0.0,0.0,0.0,0.0,0.0,0.0,0.0,0.0,0.0,0.0,0.0,0.0,0.0,0.0,0.0,0.0,0.0,0.0,0.0,0.0,0.9632,1.0959,1.1851,1.2355,1.2334,1.2354,1.1699,0.0,0.0,0.0,0.0,0.0,0.0,0.0,0.0,0.0,0.0,0.0,0.0,0.0,0.0,0.0,0.0,0.0,0.0,0.0,0.0,0.0,0.0,0.0,0.0,0.0,0.0,0.0,0.0,0.0,0.0,0.0,0.0,0.0,0.0,0.0,0.0,0.0,0.0,0.0,0.0,0.0,0.0,0.0,0.0,0.0,0.0,0.0,0.0,0.0,0.0,0.0,0.0,0.0,0.0,0.0,0.0,0.0,0.0,0.0,0.0,0.0,0.0,0.0,0.0,0.0,0.0,0.0,0.0,0.0,0.0,0.0,0.0,0.0,0.0,0.0,0.0,0.0,0.0,0.0,0.0,0.0,0.0,0.0,0.0,0.0,0.0,0.0,0.0,0.0,0.0,0.0,0.0,0.0,0.0,0.0,0.0,0.0,0.0,0.0,0.0,0.0,0.0,0.0,0.0,0.0,0.0,0.0,0.0,0.0,1.1911,1.322,1.3949,1.4004,1.3557,1.2907,0.0,0.0,0.0,0.0,0.0,0.0,0.0,0.0,0.0,0.0,0.0,0.0,0.0,0.0,0.0,0.0,0.0,0.0,0.0,0.0,0.0,0.0,0.0,0.0,0.0,0.0,0.0,0.0,0.0,0.0,0.0,0.0,0.0,0.0,0.0,0.0,0.0,0.0,0.0,0.0,0.0,0.0,0.0,0.0,0.0,0.0,0.0,0.0,0.0,0.0,0.0,0.0,0.0,0.0,0.0,0.0,0.0,0.0,0.0,0.0,0.0,0.0,0.0,0.0,0.0,0.0,0.0,0.0,0.0,0.0,0.0,0.0,0.0,0.0,0.0,0.0,0.0,0.0,0.0,0.0,0.0,0.0,0.0,0.0,0.0,0.0,0.0,0.0,0.0,0.0,0.0,0.0,0.0,0.0,0.0,0.0,0.0,0.0,0.0,0.0,0.0,0.0,0.0,0.0,0.0,0.0,0.0,0.0,0.0,1.3942,1.4747,1.5227,1.5308,1.4951,1.4104,1.2862,0.0,0.0,0.0,0.0,0.0,0.0,0.0,0.0,0.0,0.0,0.0,0.0,0.0,0.0,0.0,0.0,0.0,0.0,0.0,0.0,0.0,0.0,0.0,0.0,0.0,0.0,0.0,0.0,0.0,0.0,0.0,0.0,0.0,0.0,0.0,0.0,0.0,0.0,0.0,0.0,0.0,0.0,0.0,0.0,0.0,0.0,0.0,0.0,0.0,0.0,0.0,0.0,0.0,0.0,0.0,0.0,0.0,0.0,0.0,0.0,0.0,0.0,0.0,0.0,0.0,0.0,0.0,0.0,0.0,0.0,0.0,0.0,0.0,0.0,0.0,0.0,0.0,0.0,0.0,0.0,0.0,0.0,0.0,0.0,0.0,0.0,0.0,0.0,0.0,0.0,0.0,0.0,0.0,0.0,0.0,0.0,0.0,0.0,0.0,0.0,0.0,0.0,0.0,0.0,0.0,0.0,0.0,0.0,1.6802,1.6458,1.6296,1.6417,1.6386,1.5383,0.0,0.0,0.0,0.0,0.0,0.0,0.0,0.0,0.0,0.0,0.0,0.0,0.0,0.0,0.0,0.0,0.0,0.0,0.0,0.0,0.0,0.0,0.0,0.0,0.0,0.0,0.0,0.0,0.0,0.0,0.0,0.0,0.0,0.0,0.0,0.0,0.0,0.0,0.0,0.0,0.0,0.0,0.0,0.0,0.0,0.0,0.0,0.0,0.0,0.0,0.0,0.0,0.0,0.0,0.0,0.0,0.0,0.0,0.0,0.0,0.0,0.0,0.0,0.0,0.0,0.0,0.0,0.0,0.0,0.0,0.0,0.0,0.0,0.0,0.0,0.0,0.0,0.0,0.0,0.0,0.0,0.0,0.0,0.0,0.0,0.0,0.0,0.0,0.0,0.0,0.0,0.0,0.0,0.0,0.0,0.0,0.0,0.0,0.0,0.0,0.0,0.0,0.0,0.0,0.0,0.0,0.0,0.0,0.0,1.8165,1.8865,1.9078,1.8783,1.7852,1.6798,0.0,0.0,0.0,0.0,0.0,0.0,0.0,0.0,0.0,0.0,0.0,0.0,0.0,0.0,0.0,0.0,0.0,0.0,0.0,0.0,0.0,0.0,0.0,0.0,0.0,0.0,0.0,0.0,0.0,0.0,0.0,0.0,0.0,0.0,0.0,0.0,0.0,0.0,0.0,0.0,0.0,0.0,0.0,0.0,0.0,0.0,0.0,0.0,0.0,0.0,0.0,0.0,0.0,0.0,0.0,0.0,0.0,0.0,0.0,0.0,0.0,0.0,0.0,0.0,0.0,0.0,0.0,0.0,0.0,0.0,0.0,0.0,0.0,0.0,0.0,0.0,0.0,0.0,0.0,0.0,0.0,0.0,0.0,0.0,0.0,0.0,0.0,0.0,0.0,0.0,0.0,0.0,0.0,0.0,0.0,0.0,0.0,0.0,0.0,0.0,0.0,0.0,0.0,0.0,0.0,0.0,0.0,0.0,1.7166,1.953,2.0347,2.0842,2.1093,1.9495,1.8162,0.0,0.0,0.0,0.0,0.0,0.0,0.0,0.0,0.0,0.0,0.0,0.0,0.0,0.0,0.0,0.0,0.0,0.0,0.0,0.0,0.0,0.0,0.0,0.0,0.0,0.0,0.0,0.0,0.0,0.0,0.0,0.0,0.0,0.0,0.0,0.0,0.0,0.0,0.0,0.0,0.0,0.0,0.0,0.0,0.0,0.0,0.0,0.0,0.0,0.0,0.0,0.0,0.0,0.0,0.0,0.0,0.0,0.0,0.0,0.0,0.0,0.0,0.0,0.0,0.0,0.0,0.0,0.0,0.0,0.0,0.0,0.0,0.0,0.0,0.0,0.0,0.0,0.0,0.0,0.0,0.0,0.0,0.0,0.0,0.0,0.0,0.0,0.0,0.0,0.0,0.0,0.0,0.0,0.0,0.0,0.0,0.0,0.0,0.0,0.0,0.0,0.0,0.0,0.0,0.0,0.0,0.0,0.0,1.8315,2.0599,2.1023,2.1823,2.2855,2.1033,1.9353,0.0,0.0,0.0,0.0,0.0,0.0,0.0,0.0,0.0,0.0,0.0,0.0,0.0,0.0,0.0,0.0,0.0,0.0,0.0,0.0,0.0,0.0,0.0,0.0,0.0,0.0,0.0,0.0,0.0,0.0,0.0,0.0,0.0,0.0,0.0,0.0,0.0,0.0,0.0,0.0,0.0,0.0,0.0,0.0,0.0,0.0,0.0,0.0,0.0,0.0,0.0,0.0,0.0,0.0,0.0,0.0,0.0,0.0,0.0,0.0,0.0,0.0,0.0,0.0,0.0,0.0,0.0,0.0,0.0,0.0,0.0,0.0,0.0,0.0,0.0,0.0,0.0,0.0,0.0,0.0,0.0,0.0,0.0,0.0,0.0,0.0,0.0,0.0,0.0,0.0,0.0,0.0,0.0,0.0,0.0,0.0,0.0,0.0,0.0,0.0,0.0,0.0,0.0,0.0,0.0,0.0,0.0,0.0,1.8161,2.04,2.0861,2.16,2.27,2.1444,2.0119,0.0,0.0,0.0,0.0,0.0,0.0,0.0,0.0,0.0,0.0,0.0,0.0,0.0,0.0,0.0,0.0,0.0,0.0,0.0,0.0,0.0,0.0,0.0,0.0,0.0,0.0,0.0,0.0,0.0,0.0,0.0,0.0,0.0,0.0,0.0,0.0,0.0,0.0,0.0,0.0,0.0,0.0,0.0,0.0,0.0,0.0,0.0,0.0,1.3585,0.0,0.0,0.0,0.0,0.0,0.0,0.0,0.0,0.0,0.0,0.0,0.0,0.0,0.0,0.0,0.0,0.0,0.0,0.0,0.0,0.0,0.0,0.0,0.0,0.0,0.0,0.0,0.0,0.0,0.0,0.0,0.0,0.0,0.0,0.0,0.0,0.0,0.0,0.0,0.0,0.0,0.0,0.0,0.0,0.0,0.0,0.0,0.0,0.0,0.0,0.0,0.0,0.0,0.0,0.0,0.0,0.0,0.0,0.0,1.8558,2.0829,2.0921,2.1504,2.2539,2.1827,2.0753,0.0,0.0,0.0,0.0,0.0,0.0,0.0,0.0,0.0,0.0,0.0,0.0,0.0,0.0,0.0,0.0,0.0,0.0,0.0,0.0,0.0,0.0,0.0,0.0,0.0,0.0,0.0,0.0,0.0,0.0,0.0,0.0,0.0,0.0,0.0,0.0,0.0,0.0,0.0,0.0,0.0,0.0,0.0,0.0,0.0,0.0,0.0,0.0,0.0,0.0,0.0,0.0,0.0,0.0,0.0,0.0,0.0,0.0,0.0,0.0,0.0,0.0,0.0,0.0,0.0,0.0,0.0,0.0,0.0,0.0,0.0,0.0,0.0,0.0,0.0,0.0,0.0,0.0,0.0,0.0,0.0,0.0,0.0,0.0,0.0,0.0,0.0,0.0,0.0,0.0,0.0,0.0,0.0,0.0,0.0,0.0,0.0,0.0,0.0,0.0,0.0,0.0,0.0,0.0,0.0,0.0,0.0,1.7242,1.9109,2.1321,2.1041,2.1375,2.2476,2.1911,2.1088,1.9959,0.0,0.0,0.0,0.0,0.0,0.0,0.0,0.0,0.0,0.0,0.0,0.0,0.0,0.0,0.0,0.0,0.0,0.0,0.0,0.0,0.0,0.0,0.0,0.0,0.0,0.0,0.0,0.0,0.0,0.0,0.0,0.0,0.0,0.0,0.0,0.0,0.0,0.0,1.2299,1.4453,0.0,0.0,0.0,0.0,0.0,0.0,0.0,0.0,1.5739,0.0,0.0,0.0,0.0,0.0,0.0,0.0,0.0,0.0,0.0,0.0,0.0,0.0,0.0,0.0,0.0,0.0,0.0,0.0,0.0,0.0,0.0,0.0,0.0,0.0,0.0,0.0,0.0,0.0,0.0,0.0,0.0,0.0,0.0,0.0,0.0,0.0,0.0,0.0,0.0,0.0,0.0,0.0,0.0,0.0,0.0,0.0,0.0,0.0,0.0,0.0,0.0,0.0,0.0,0.0,0.0,1.5799,1.7181,1.9007,2.1167,2.0798,2.1077,2.2114,2.1176,2.0336,1.9638,0.0,0.0,0.0,0.0,0.0,0.0,0.0,0.0,0.0,0.0,0.0,0.0,0.0,0.0,0.0,0.0,0.0,0.0,0.0,0.0,0.0,0.0,0.0,0.0,0.0,0.0,0.0,0.0,0.0,0.0,0.0,0.0,0.0,0.0,0.0,0.0,0.0,0.0,0.0,1.5979,1.6756,0.0,0.0,0.0,0.0,0.0,0.0,0.0,0.0,1.6937,0.0,0.0,0.0,0.0,0.0,0.0,0.0,0.0,0.0,0.0,0.0,0.0,0.0,0.0,0.0,0.0,0.0,0.0,0.0,0.0,0.0,0.0,0.0,0.0,0.0,0.0,0.0,0.0,0.0,0.0,0.0,0.0,0.0,0.0,0.0,0.0,0.0,0.0,0.0,0.0,0.0,0.0,0.0,0.0,0.0,0.0,0.0,0.0,0.0,0.0,0.0,0.0,0.0,0.0,0.0,1.5799,1.715,1.8788,2.0502,2.0439,2.0683,2.127,2.0543,1.9916,0.0,0.0,0.0,0.0,0.0,0.0,0.0,0.0,0.0,0.0,0.0,0.0,0.0,0.0,0.0,0.0,0.0,0.0,0.0,0.0,0.0,0.0,0.0,0.0,0.0,0.0,0.0,0.0,0.0,0.0,0.0,0.0,0.0,0.0,0.0,0.0,0.0,0.0,0.0,0.0,1.6637,1.7324,1.7652,0.0,0.0,0.0,0.0,0.0,0.0,1.7954,1.7593,0.0,0.0,0.0,0.0,0.0,0.0,0.0,0.0,0.0,0.0,0.0,0.0,0.0,0.0,0.0,0.0,0.0,0.0,0.0,0.0,0.0,0.0,0.0,0.0,0.0,0.0,0.0,0.0,0.0,0.0,0.0,0.0,0.0,0.0,0.0,0.0,0.0,0.0,0.0,0.0,0.0,0.0,0.0,0.0,0.0,0.0,0.0,0.0,0.0,0.0,0.0,0.0,0.0,0.0,0.0,1.5978,1.724,1.854,1.9879,2.0115,2.0323,2.053,1.9941,1.9489,0.0,0.0,0.0,0.0,0.0,0.0,0.0,0.0,0.0,0.0,0.0,0.0,0.0,0.0,0.0,0.0,0.0,0.0,0.0,0.0,0.0,0.0,0.0,0.0,0.0,0.0,0.0,0.0,0.0,0.0,0.0,0.0,0.0,0.0,0.0,0.0,0.0,0.0,0.0,0.0,0.0,1.819,1.8459,1.8972,0.0,0.0,0.0,0.0,1.9211,1.8852,0.0,0.0,0.0,0.0,0.0,0.0,0.0,0.0,0.0,0.0,0.0,0.0,0.0,0.0,0.0,0.0,0.0,0.0,0.0,0.0,0.0,0.0,0.0,0.0,0.0,0.0,0.0,0.0,0.0,0.0,0.0,0.0,0.0,0.0,0.0,0.0,0.0,0.0,0.0,0.0,0.0,0.0,0.0,0.0,0.0,0.0,0.0,0.0,0.0,0.0,0.0,0.0,0.0,0.0,0.0,0.0,1.6547,1.7324,1.8407,1.9737,1.9833,2.001,2.0323,1.9216,1.8743,0.0,0.0,0.0,0.0,0.0,0.0,0.0,0.0,0.0,0.0,0.0,0.0,0.0,0.0,0.0,0.0,0.0,0.0,0.0,0.0,0.0,0.0,0.0,0.0,0.0,0.0,0.0,0.0,0.0,0.0,0.0,0.0,0.0,0.0,0.0,0.0,0.0,0.0,0.0,0.0,0.0,1.9899,2.1066,2.1306,2.1335,0.0,0.0,2.1276,2.1335,2.1276,0.0,0.0,0.0,0.0,0.0,0.0,0.0,0.0,0.0,0.0,0.0,0.0,0.0,0.0,0.0,0.0,0.0,0.0,0.0,0.0,0.0,0.0,0.0,0.0,0.0,0.0,0.0,0.0,0.0,0.0,0.0,0.0,0.0,0.0,0.0,0.0,0.0,0.0,0.0,0.0,0.0,0.0,0.0,0.0,0.0,0.0,0.0,0.0,0.0,0.0,0.0,0.0,0.0,0.0,0.0,1.4755,1.6667,1.7354,1.8343,1.9702,1.9762,1.9904,2.0111,1.8995,1.8559,0.0,0.0,0.0,0.0,0.0,0.0,0.0,0.0,0.0,0.0,0.0,0.0,0.0,0.0,0.0,0.0,0.0,0.0,0.0,0.0,0.0,0.0,0.0,0.0,0.0,0.0,0.0,0.0,0.0,0.0,0.0,0.0,0.0,0.0,0.0,0.0,0.0,0.0,0.0,0.0,0.0,0.0,2.2054,2.2562,0.0,0.0,0.0,2.2921,2.331,0.0,0.0,0.0,0.0,0.0,0.0,0.0,0.0,0.0,0.0,0.0,0.0,0.0,0.0,0.0,0.0,0.0,0.0,0.0,0.0,0.0,0.0,0.0,0.0,0.0,0.0,0.0,0.0,0.0,0.0,0.0,0.0,0.0,0.0,0.0,0.0,0.0,0.0,0.0,0.0,0.0,0.0,0.0,0.0,0.0,0.0,0.0,0.0,0.0,0.0,0.0,0.0,0.0,0.0,0.0,0.0,0.0,1.6936,1.7593,1.8612,1.9869,1.9852,1.9959,2.0254,1.9242,0.0,0.0,0.0,0.0,0.0,0.0,0.0,0.0,0.0,0.0,0.0,0.0,0.0,0.0,0.0,0.0,0.0,0.0,0.0,0.0,0.0,0.0,0.0,0.0,0.0,0.0,0.0,0.8455,0.0,0.0,0.0,0.0,0.0,0.0,0.0,0.0,0.0,0.0,0.0,0.0,0.0,0.0,2.1695,2.2981,2.3699,2.4148,0.0,0.0,2.4537,2.5046,2.4687,2.4178,0.0,0.0,0.0,0.0,0.0,0.0,0.0,0.0,0.0,0.0,0.0,0.0,0.0,0.0,0.0,0.0,0.0,0.0,0.0,0.0,0.0,0.0,0.0,0.0,0.0,0.0,0.0,0.0,0.0,0.0,0.0,0.0,0.0,0.0,0.0,0.0,0.0,0.0,0.0,0.0,0.0,0.0,0.0,0.0,0.0,0.0,0.0,0.0,0.0,0.0,0.0,0.0,0.0,0.0,0.0,1.7563,1.8313,1.9301,2.0557,2.0092,2.0207,2.1002,2.0055,1.9372,0.0,0.0,0.0,0.0,0.0,0.0,0.0,0.0,0.0,0.0,0.0,0.0,0.0,0.0,0.0,0.0,0.0,0.0,0.0,0.0,0.0,0.0,0.0,0.0,0.0,0.0,0.0,0.0,0.0,0.0,0.0,0.0,0.0,0.0,0.0,0.0,0.0,0.0,0.0,0.0,0.0,2.3011,2.4283,2.5076,2.5674,0.0,0.0,2.6393,2.6452,2.6422,2.5764,2.3909,0.0,0.0,0.0,0.0,0.0,0.0,0.0,0.0,0.0,0.0,0.0,0.0,0.0,0.0,0.0,0.0,0.0,0.0,0.0,0.0,0.0,0.0,0.0,0.0,0.0,0.0,0.0,0.0,0.0,0.0,0.0,0.0,0.0,0.0,0.0,0.0,0.0,0.0,0.0,0.0,0.0,0.0,0.0,0.0,0.0,0.0,0.0,0.0,0.0,0.0,0.0,0.0,0.0,1.577,1.7652,1.8762,1.9779,2.0647,2.0624,2.0777,2.1167,2.0316,1.9587,0.0,0.0,0.0,0.0,0.0,0.0,0.0,0.0,0.0,0.0,0.0,0.0,0.0,0.0,0.0,0.0,0.0,0.0,0.0,0.0,0.0,0.0,0.0,0.0,0.0,0.0,0.0,0.0,1.0838,1.1082,1.1412,0.0,0.0,0.0,0.0,0.0,0.0,0.0,0.0,0.0,0.0,2.4507,2.6213,2.7021,0.0,0.0,2.8427,2.8427,2.8427,2.8098,2.744,2.6243,2.5046,0.0,0.0,0.0,0.0,0.0,0.0,0.0,0.0,0.0,0.0,0.0,0.0,0.0,0.0,0.0,0.0,0.0,0.0,0.0,0.0,0.0,0.0,0.0,0.0,0.0,0.0,0.0,0.0,0.0,0.0,0.0,0.0,0.0,0.0,0.0,0.0,0.0,0.0,0.0,0.0,0.0,0.0,0.0,0.0,0.0,0.0,0.0,0.0,0.0,0.0,0.0,0.0,1.6129,1.7682,1.9211,2.0318,2.1006,2.1243,2.143,2.1516,2.0951,2.0252,0.0,0.0,0.0,0.0,0.0,0.0,0.0,0.0,0.0,0.0,0.0,0.0,0.0,0.0,0.0,0.0,0.0,0.0,0.0,0.0,0.0,0.0,0.0,0.0,0.0,0.0,0.0,0.0,1.18,1.1737,1.2051,0.0,0.0,0.0,0.0,0.0,0.0,0.0,0.0,0.0,0.0,2.5555,2.732,2.8338,2.9116,2.9774,2.9864,2.9918,2.9973,2.9582,2.8982,2.8111,0.0,0.0,0.0,0.0,0.0,0.0,0.0,0.0,0.0,0.0,0.0,0.0,0.0,0.0,0.0,0.0,0.0,0.0,0.0,0.0,0.0,0.0,0.0,0.0,0.0,0.0,0.0,0.0,0.0,0.0,1.17,0.0,0.0,0.0,0.0,0.0,0.0,0.0,0.0,0.0,0.0,0.0,0.0,0.0,0.0,0.0,0.0,0.0,0.0,0.0,0.0,0.0,0.0,1.6995,1.7712,1.969,2.1006,2.1635,2.1901,2.2056,2.2148,2.2083,2.1472,2.021,0.0,0.0,0.0,0.0,0.0,0.0,0.0,0.0,0.0,0.0,0.0,0.0,0.0,0.0,0.0,0.0,0.0,0.0,0.0,0.0,0.0,0.0,0.0,0.0,0.0,0.0,1.4031,1.3467,1.2886,0.0,0.0,0.0,0.0,0.0,0.0,0.0,0.0,0.0,0.0,2.4358,2.6093,2.741,2.8779,2.9804,3.0402,3.0492,3.0548,3.0744,3.0769,3.0347,0.0,0.0,0.0,0.0,0.0,0.0,0.0,0.0,0.0,0.0,0.0,0.0,0.0,0.0,0.0,0.0,0.0,0.0,0.0,0.0,0.0,0.0,0.0,0.0,0.0,0.0,0.0,1.351,1.3109,0.0,0.0,0.0,0.0,0.0,0.0,0.0,0.0,0.0,0.0,0.0,1.8041,1.8732,0.0,0.0,0.0,0.0,0.0,0.0,0.0,0.0,0.0,0.0,0.0,0.0,1.7473,1.9001,2.0587,2.1695,2.2364,2.2606,2.2836,2.3002,2.2402,2.1633,2.0624,0.0,0.0,0.0,0.0,0.0,0.0,0.0,0.0,0.0,0.0,0.0,0.0,0.0,0.0,0.0,0.0,0.0,0.0,0.0,0.0,0.0,0.0,0.0,0.0,0.0,1.3874,0.0,0.0,0.0,0.0,0.0,0.0,0.0,0.0,0.0,0.0,0.0,2.2233,2.3759,2.5674,2.738,2.8727,2.9654,3.0582,0.0,0.0,0.0,0.0,0.0,0.0,0.0,0.0,0.0,0.0,0.0,0.0,0.0,0.0,2.6123,2.4567,2.358,2.3101,2.355,0.0,0.0,0.0,0.0,0.0,0.0,0.0,0.0,0.0,0.0,0.0,0.0,0.0,0.0,0.0,0.0,1.4584,0.0,0.0,0.0,0.0,0.0,0.0,0.0,0.0,1.8912,1.954,1.975,2.0198,2.0212,0.0,1.9718,1.8902,0.0,0.0,0.0,0.0,0.0,0.0,0.0,0.0,1.8403,1.9726,2.1246,2.2233,2.2694,2.3141,2.3346,2.3262,2.2564,2.1827,2.1192,2.0077,1.9202,0.0,0.0,0.0,0.0,0.0,0.0,0.0,0.0,0.0,0.0,0.0,0.0,0.0,0.0,0.0,0.0,0.0,0.0,0.0,0.0,0.0,0.0,0.0,1.495,0.0,0.0,0.0,0.0,0.0,0.0,0.0,0.0,0.0,2.0775,2.2263,2.3909,2.5435,2.7171,2.8667,2.9774,0.0,0.0,0.0,0.0,0.0,0.0,0.0,3.1655,3.1769,3.0839,3.0158,3.0522,3.0612,3.0791,3.142,0.0,0.0,2.7769,2.6782,2.6482,2.6901,2.6811,2.6811,2.723,2.7829,2.8427,0.0,0.0,0.0,0.0,0.0,0.0,0.0,0.0,1.7443,1.7016,0.0,1.6514,0.0,0.0,0.0,0.0,0.0,0.0,0.0,0.0,2.0498,2.1156,2.1754,2.1814,2.1824,2.1883,2.131,2.1024,2.0892,1.8394,0.0,0.0,0.0,0.0,0.0,0.0,1.972,1.9869,2.1734,2.2724,2.2742,2.3438,2.3564,2.3102,2.256,2.2183,2.1927,2.1311,2.0679,2.0069,1.8684,0.0,0.0,0.0,0.0,0.0,0.0,0.0,0.0,0.0,0.0,0.0,0.0,0.0,0.0,0.0,0.0,0.0,0.0,0.0,0.0,1.5743,0.0,0.0,0.0,0.0,0.0,0.0,0.0,0.0,0.0,0.0,2.2903,2.3939,2.5435,2.732,0.0,0.0,0.0,0.0,3.2527,3.2587,3.3095,3.3546,3.3668,3.3698,3.3668,3.3668,0.0,0.0,3.2617,3.2647,3.2916,3.3514,3.3634,3.3006,3.1091,3.0133,2.9654,2.9684,3.0073,3.0522,3.0612,3.1001,3.1539,2.1605,0.0,0.0,0.0,0.0,1.8762,1.8852,1.8852,1.9031,1.8367,1.7251,1.8347,0.0,0.0,0.0,0.0,0.0,0.0,2.0557,2.1844,2.2473,2.3131,2.3819,2.4268,2.4371,2.4091,2.3879,2.3427,2.2608,2.1721,2.0182,1.8087,0.0,0.0,0.0,0.0,2.0378,2.1754,2.2424,2.2892,2.331,2.3649,2.369,2.346,2.3623,2.3543,2.3194,2.2718,2.2161,2.1541,2.0677,0.0,0.0,0.0,0.0,0.0,0.0,0.0,0.0,0.0,0.0,0.0,0.0,0.0,0.0,0.0,0.0,0.0,0.0,0.0,1.6548,1.7319,1.7697,0.0,0.0,0.0,0.0,0.0,0.0,0.0,0.0,0.0,2.6081,2.6482,2.7111,0.0,0.0,3.0492,3.115,3.1958,3.2856,3.3784,0.0,0.0,0.0,3.3907,3.3607,3.3698,3.4237,3.4685,3.4651,3.54,3.6058,3.6237,3.6267,3.6088,3.5459,3.3335,3.1958,3.2228,3.2168,3.2108,3.2557,3.3185,3.3784,2.5226,2.2753,2.1665,2.1246,2.1246,2.1246,2.1246,2.1246,2.1246,2.0489,1.9343,2.0685,2.1568,2.1995,2.1039,0.0,0.0,0.0,2.2682,2.349,2.4388,2.4986,2.5435,2.6093,2.6129,2.5728,2.5728,2.5227,2.4334,2.3921,2.2899,2.122,0.0,0.0,2.0468,2.0737,2.1455,2.2664,2.2921,2.3221,2.358,2.3824,2.3978,2.41,2.4238,2.4252,2.4179,2.3484,2.2932,2.2555,2.1691,2.0264,0.0,0.0,0.0,0.0,0.0,0.0,0.0,0.0,0.0,0.0,0.0,1.433,1.4476,0.0,0.0,0.0,1.6201,1.7035,1.7838,1.853,0.0,0.0,0.0,0.0,0.0,0.0,0.0,2.3759,2.5345,2.6901,2.8188,2.8816,2.9295,2.9714,3.0642,3.1539,3.2228,0.0,3.3574,3.4352,3.4382,3.4595,3.5289,3.5015,3.4835,3.5108,3.5734,3.6237,3.6297,3.6926,3.7375,3.7404,3.7404,3.7404,3.7404,3.5759,3.4562,3.4951,3.4741,3.4622,3.4981,3.534,3.5759,2.8397,2.755,2.5106,2.3999,2.3909,2.3909,2.3909,2.3909,2.3939,2.3186,2.212,2.3363,2.4563,2.561,2.4398,0.0,2.3879,2.4537,2.4851,2.494,2.6183,2.6782,2.6841,2.749,2.751,2.7037,2.7037,2.6723,2.6122,2.5425,2.4972,2.4792,2.2963,2.1964,2.1964,2.2532,2.2862,2.2963,2.349,2.3729,2.3743,2.397,2.439,2.4775,2.4493,2.4543,2.4903,2.3882,2.3301,2.3325,2.2096,2.067,1.9181,0.0,0.0,0.0,0.0,0.0,0.0,0.0,0.0,0.0,0.0,0.0,0.0,0.0,0.0,0.0,1.7416,0.0,1.8928,1.9625,0.0,0.0,0.0,2.2486,2.2313,2.3915,2.5273,2.5764,0.0,0.0,2.9505,0.0,3.1629,3.1631,3.2228,3.2826,3.3484,3.4053,3.4502,3.4562,3.513,3.5759,3.6237,3.6387,3.6596,3.7075,3.7464,3.7434,3.7464,3.7584,3.7584,3.7644,3.7584,3.7614,3.7584,3.7524,3.7554,3.7494,3.7375,3.7315,3.7225,3.7285,3.7375,3.0163,2.9056,2.8427,2.756,2.6681,2.6681,2.6632,2.6632,2.6681,2.5893,2.4762,2.6109,2.6549,2.6344,2.6021,2.5884,2.5914,2.6572,2.7171,2.7679,2.7979,2.8368,2.8876,2.9026,2.9132,2.9117,2.9117,2.8535,2.7564,2.7206,2.6585,2.559,2.4972,2.4448,2.3969,2.4088,2.4418,2.4896,2.5046,2.4942,2.4551,2.4697,2.4713,2.4595,2.4776,2.5067,2.5403,2.4975,2.4446,2.3974,2.3253,2.2192,2.0729,1.935,0.0,0.0,0.0,0.0,0.0,0.0,0.0,0.0,0.0,1.6637,1.6684,0.0,1.8259,0.0,1.9634,2.0607,2.1114,2.2251,0.0,0.0,2.3702,2.4683,2.4881,2.6193,2.7289,2.7829,2.9026,2.9924,3.0253,3.145,3.2467,3.2946,3.3155,3.3514,3.4143,3.4352,3.4681,3.519,3.5789,3.6297,3.6507,3.6896,3.7255,3.7375,3.7823,3.8153,3.8153,3.8601,3.896,3.8931,3.896,3.896,3.8901,3.896,3.8931,3.8871,3.8123,3.7404,3.7404,3.7793,3.8153,3.193,3.133,3.133,3.0881,3.0133,2.8966,2.8457,2.8457,2.8509,2.8062,2.7447,2.8763,2.8837,2.7949,2.7919,2.7919,2.7949,2.8308,2.8667,2.9056,2.9295,2.9654,3.0013,3.0313,3.0338,3.0123,3.0123,2.9636,2.8725,2.8643,2.8051,2.706,2.698,2.6602,2.5944,2.5345,2.5209,2.5585,2.5615,2.5528,2.5349,2.518,2.5149,2.5155,2.525,2.5438,2.5738,2.544,2.5113,2.4743,2.3894,2.2868,2.1718,2.0568,1.9418,0.0,0.0,0.0,0.0,0.0,0.0,0.0,0.0,0.0,0.0,0.0,2.0119,0.0,2.1988,2.2862,2.3042,2.4281,2.5005,2.4792,2.5901,2.6749,2.7037,2.8011,2.8832,2.9385,3.0073,3.0731,3.133,3.2287,3.3185,3.3844,3.4203,3.4532,3.4831,3.4921,3.507,3.5459,3.6058,3.6716,3.7225,3.7883,3.8302,3.8332,3.8601,3.8841,3.8871,3.917,3.9439,3.9439,3.9439,3.9439,3.9439,3.9439,3.9439,3.932,3.8841,3.8362,3.8302,3.8811,3.929,3.3359,3.3514,3.3484,3.3514,3.3335,3.1061,3.0073,3.0073,3.0073,3.0073,3.0188,3.1323,3.1177,3.0103,2.9983,2.9953,2.9953,2.9864,2.9834,2.9864,3.0402,3.0642,3.0672,3.124,3.124,3.0642,3.0642,3.0313,2.9714,2.9714,2.9355,2.8757,2.8727,2.8427,2.785,2.6602,2.5944,2.5854,2.5854,2.5965,2.6107,2.571,2.5691,2.5894,2.5766,2.5724,2.5921,2.561,2.5447,2.5445,2.436,2.3342,2.2632,2.1887,2.0899,0.0,1.9384,0.0,0.0,0.0,0.0,0.0,0.0,0.0,0.0,2.1139,2.1807,2.3161,2.4375,2.5056,2.507,2.6186,2.6924,2.7016,2.7952,2.8675,2.8936,2.9462,3.0038,3.0728,3.0761,3.124,3.2437,3.3215,3.3844,3.4382,3.4981,3.537,3.5489,3.5459,3.5459,3.5489,3.6148,3.7105,3.8212,3.896,3.9349,3.9379,3.9349,3.9439,3.9379,3.9409,3.9439,3.9439,3.9439,3.9439,3.9439,3.9439,3.9439,3.9409,3.9349,3.932,3.9379,3.9828,4.0367,3.3558,3.33,3.3423,3.3514,3.3455,3.2976,3.2766,3.2736,3.2766,3.2766,3.2796,3.3457,3.3337,3.2706,3.2198,3.1958,3.1928,3.139,3.115,3.1123,3.127,3.1273,3.1273,3.148,3.1422,3.133,3.133,3.1001,3.0342,3.0342,3.0013,2.9415,2.9385,2.9325,2.9175,0.0,0.0,0.0,2.72,2.703,2.6693,2.6684,2.6336,2.5652,2.58,0.0,2.577,2.5933,2.588,2.5512,2.5306,0.0,0.0,0.0,0.0,0.0,0.0,0.0,0.0,0.0,0.0,0.0,2.4123,2.3829,2.2809,2.3618,2.481,2.6195,2.648,2.6983,2.7924,2.8597,2.9061,2.9202,2.9769,3.0289,3.0539,3.0697,3.1157,3.2133,3.2284,3.2526,3.3185,3.3873,3.4322,3.4532,3.507,3.5459,3.5489,3.5489,3.5489,3.5579,3.6507,3.7674,3.902,3.932,3.9439,3.9439,3.9439,3.9439,3.9439,3.9439,3.9439,3.9439,3.9439,3.9439,3.9439,3.9439,3.9469,3.9439,3.9439,3.9439,3.9439,3.9948,4.0397,3.3966,0.0,3.4218,3.4345,0.0,3.4439,3.4472,3.4442,3.3784,3.3514,3.3514,3.3968,3.3938,3.3484,3.3155,3.3006,3.2976,3.2647,3.2497,3.2497,3.2497,3.2497,3.2497,3.2527,3.2497,3.2497,3.2497,3.2168,3.1509,3.148,3.1001,3.0043,3.0043,2.9894,2.9564,2.9235,2.8577,2.764,2.756,2.751,2.7308,2.7073,2.6841,2.6616,0.0,0.0,0.0,0.0,0.0,0.0,0.0,0.0,0.0,0.0,0.0,2.5,2.4695,2.4492,2.4492,2.5169,2.5744,2.6116,2.7199,2.713,2.5513,2.6317,2.7314,2.8415,2.8771,2.9277,3.0084,3.0696,3.1015,3.1065,3.1224,3.1415,3.1634,3.1952,3.2296,3.273,3.3094,3.3427,3.3965,3.4233,3.4622,3.4951,3.528,3.5489,3.5489,3.5489,3.5669,3.6327,3.6926,3.7883,3.911,3.9439,3.9439,3.9439,3.9439,3.9439,3.9439,3.9439,3.9439,3.9439,3.9439,3.9499,3.9828,3.9888,4.0008,4.0307,4.0397,4.0397,4.0397,4.0666,4.0995,3.4128,3.4534,3.4898,3.5067,3.5133,3.5359,3.5454,3.5429,0.0,0.0,0.0,3.4269,3.4239,3.3844,3.3724,3.3664,3.3664,3.3544,3.3514,3.3514,3.3514,3.3514,3.3514,3.3514,3.3514,3.3514,3.3514,3.3215,3.2706,3.2706,3.2078,3.0971,3.0851,3.0492,2.9804,2.9744,2.9146,2.7979,2.797,2.8,2.8071,2.7508,2.7405,2.7752,2.7394,2.7496,2.8083,2.8318,2.8285,2.7973,2.7401,2.7097,2.7063,2.6522,2.6454,2.7029,2.7097,2.7165,2.73,2.7875,2.8349,2.8549,2.9905,3.004,2.8516,2.8982,2.9686,3.0426,3.0986,3.15,3.1988,3.2352,3.2592,3.2652,3.2487,3.252,3.2702,3.3126,3.3472,3.3421,3.3819,3.418,3.4625,3.4681,3.4861,3.534,3.5489,3.5579,3.5669,3.5729,3.6088,3.7075,3.7494,3.8063,3.905,3.9439,3.9439,3.9439,3.9439,3.9439,3.9439,3.9529,3.9589,3.9649,3.9679,4.0008,4.0457,4.0576,4.0756,4.1265,4.1384,4.1414,4.1534,4.1534,4.1713,3.3409,3.3728,3.4264,3.4668,3.4935,3.5133,3.5359,3.5489,3.531,3.522,3.522,3.525,3.528,3.519,3.4592,3.4352,3.4292,3.3754,3.3514,0.0,3.3514,3.3514,3.3514,3.3514,3.3514,3.3514,3.3514,3.3455,3.3365,3.3365,3.2976,3.2287,3.2228,3.1599,3.0492,3.0372,3.0013,2.9325,2.9295,2.9349,2.9349,2.8793,2.8364,2.8033,2.7814,2.7664,2.7794,2.8003,2.8252,2.8605,2.8541,2.8544,2.8653,2.8586,2.8552,2.8689,2.8653,2.8958,2.9567,2.9736,3.0345,3.1562,3.2442,3.2307,3.0886,3.128,3.1974,3.2715,3.2765,3.3048,3.3573,3.3419,3.3403,3.3673,3.3837,3.3904,3.3724,3.4177,3.4565,3.4759,3.482,3.4969,3.5224,3.531,3.531,3.5459,3.5579,3.5729,3.6207,3.6357,3.6626,3.7285,3.7913,3.8542,3.923,3.9439,3.9439,3.9439,3.9439,3.9499,3.9499,3.9948,4.0247,4.0277,4.0636,4.1025,4.1235,4.1235,4.1324,4.1504,4.1534,4.1654,4.2102,4.2222,4.2252,3.2605,3.296,3.3589,3.4031,3.4332,3.4765,3.5096,3.5359,3.5359,3.5359,3.5489,3.5489,3.5489,3.5489,3.519,3.504,3.5011,3.4711,3.4592,3.4592,3.4592,3.4592,3.4592,3.4592,3.4592,3.4592,3.4592,3.4382,3.4053,3.4023,3.3514,3.2557,3.2168,3.1659,3.1091,3.1061,3.0941,3.0642,2.9953,2.9594,2.9564,2.9372,2.9229,2.9205,2.915,2.9375,2.9842,3.0076,3.03,3.047,3.0549,3.0667,3.0751,3.0784,3.0954,3.136,3.1393,3.1529,3.1867,3.1901,3.2171,3.2848,3.3592,3.3897,3.3626,3.3111,3.3102,3.3845,3.3869,3.4129,3.4734,3.4526,3.4445,3.4821,3.482,3.4771,3.4889,3.5237,3.5478,3.5338,3.5461,3.5513,3.5524,3.5489,3.5489,3.5519,3.5789,3.6267,3.6896,3.7315,3.7614,3.7913,3.8212,3.8661,3.929,3.9439,3.9439,3.9439,3.9738,3.9918,4.0008,4.0487,4.0876,4.0935,4.1205,4.1504,4.1803,4.1923,4.2043,4.2402,4.2432,4.2611,4.2821,4.288,4.288,3.1736,3.22,3.2889,3.3311,3.3687,3.4332,3.4765,3.503,3.5096,3.5228,3.5424,3.5454,3.5489,3.5489,3.5489,3.5489,3.5489,3.5489,3.5489,3.5489,3.5489,3.5489,3.5489,3.5489,3.5489,3.5489,3.5489,3.522,3.4741,3.4711,3.4053,3.2796,3.2078,3.1689,3.1482,3.1482,3.1482,3.1392,3.0522,3.0013,3.0013,2.9894,2.9937,3.0312,3.0287,3.0658,3.1453,3.1821,3.2027,3.2031,3.2168,3.2295,3.2502,3.2502,3.2814,3.3322,3.3389,3.3558,3.3863,3.4066,3.4235,3.4438,3.4945,3.552,3.596,3.5115,3.4641,3.5148,3.5318,3.5509,3.5958,3.5793,3.566,3.5875,3.5747,3.5648,3.5808,3.6132,3.6188,3.5737,3.5827,3.5846,3.5584,3.5639,3.5818,3.6058,3.6507,3.7105,3.7584,3.8182,3.8571,3.8631,3.8631,3.8841,3.9349,3.9589,3.9649,3.9649,4.0217,4.0546,4.0726,4.1175,4.1564,4.1624,4.1773,4.2073,4.2491,4.2581,4.2761,4.309,4.318,4.3269,4.3269,4.3299,4.3329,3.1048,3.1421,3.1809,3.2533,3.3339,3.3894,3.4235,3.4467,3.4698,3.4898,3.5228,3.5424,3.5489,3.5489,3.5489,3.5489,3.5489,3.5489,3.5489,3.5489,3.5489,3.5489,3.5489,3.5489,3.5489,3.5489,3.5489,3.5459,3.534,3.534,3.4711,3.3484,3.2736,3.2138,3.1571,3.1482,3.1482,3.1482,3.142,3.1302,3.13,3.0731,3.0488,3.0654,3.035,3.0433,3.1055,3.1388,3.1948,3.2406,3.2618,3.2807,3.311,3.3152,3.3229,3.3491,3.3457,3.3964,3.5284,3.6062,3.6705,3.7415,3.7415,3.7516,3.7652,3.755,3.7483,3.7516,3.755,3.7483,3.7638,3.7248,3.6904,3.6767,3.682,3.6758,3.6457,3.6707,3.6723,3.6166,3.607,3.5846,3.5704,3.6058,3.6596,3.7075,3.7584,3.8063,3.8302,3.8811,3.92,3.926,3.932,3.932,3.9469,3.9948,4.0157,4.0307,4.0846,4.1205,4.1414,4.1803,4.2282,4.2312,4.2671,4.3,4.309,4.324,4.321,4.3269,4.3329,4.3329,4.3329,4.3329,4.3329,3.052,3.0823,3.1172,3.1836,3.2561,3.2846,3.3241,3.3785,3.3894,3.4235,3.4765,3.503,3.5294,3.5489,3.5489,3.5489,3.5489,3.5489,3.5489,3.5489,3.5489,3.5489,3.5489,3.5489,3.5489,3.5489,3.5489,3.5489,3.5429,3.51,3.4592,3.4053,3.3395,3.2946,3.2677,3.2317,3.2108,3.2108,3.1719,3.1482,3.1452,3.124,3.1177,3.1347,3.1298,3.1474,3.1871,3.2321,3.2862,3.3421,3.3707,3.4233,3.5036,3.516,3.5453,3.6028,3.6062,3.6332,3.6907,3.728,3.7584,3.7922,3.7922,3.8058,3.8497,3.8565,3.87,3.9005,3.8396,3.7874,3.7826,3.755,3.7436,3.7477,3.7469,3.7413,3.7355,3.7259,3.6997,3.6476,3.6529,3.6481,3.6244,3.6626,3.7255,3.7853,3.8272,3.8571,3.8931,3.926,3.9379,3.9439,3.9439,3.9439,3.9499,3.9978,4.0337,4.0576,4.1294,4.1953,4.2043,4.2521,4.294,4.291,4.315,4.3329,4.3299,4.3329,4.3329,4.3329,4.3329,4.3329,4.3329,4.3329,4.3329,3.0241,3.0625,3.1137,3.1672,3.2171,3.2246,3.2581,3.3096,3.3353,3.369,3.4196,3.4467,3.4986,3.5466,3.5514,3.5489,3.5489,3.5489,3.5489,3.5489,3.5489,3.5489,3.5489,3.5489,3.5489,3.5489,3.5489,3.5489,3.5459,3.504,3.4681,3.4442,3.3993,3.3664,3.3455,3.3006,3.2796,3.2736,3.2287,3.2048,3.2078,3.2078,3.2047,3.2013,3.2155,3.2501,3.3048,3.3466,3.3953,3.4426,3.4785,3.5416,3.6355,3.6567,3.7028,3.7725,3.7841,3.799,3.8193,3.8193,3.8294,3.8464,3.8497,3.87,3.9174,3.9309,3.9512,3.9851,3.9106,3.8516,3.8302,3.8154,3.8136,3.8183,3.8166,3.8116,3.8142,3.7888,3.7622,3.7061,3.7136,3.7237,3.7083,3.7434,3.7913,3.8542,3.8841,3.908,3.9529,3.9709,3.9709,3.9679,3.9559,3.9529,3.9679,4.0307,4.0606,4.1145,4.1983,4.2611,4.2641,4.309,4.3329,4.315,4.3299,4.3329,4.3329,4.3329,4.3329,4.3329,4.3329,4.3329,4.3329,4.3329,4.3449,3.0237,3.1004,3.1885,3.2199,3.233,3.262,3.2797,3.2745,3.3043,3.3373,3.3564,3.3813,3.4542,3.5517,3.5548,3.5549,3.5549,3.5609,3.5609,3.5609,3.5609,3.5519,3.5489,3.5489,3.5489,3.5489,3.5489,3.5489,3.5489,3.5459,3.513,3.4532,3.4472,3.4143,3.3664,3.3514,3.3455,3.3425,3.3335,3.3335,3.3335,3.3365,3.3036,3.2646,3.2762,3.3269,3.4023,3.4554,3.4867,3.518,3.5418,3.5916,3.6542,3.6748,3.717,3.7715,3.786,3.8261,3.8836,3.8937,3.9208,3.9783,3.9817,3.9952,3.9884,3.9918,3.9986,4.0054,3.9986,3.9868,3.9716,3.9391,3.9196,3.9007,3.904,3.8991,3.8699,3.8779,3.8647,3.8161,3.7922,3.7986,3.8252,3.8302,3.8661,3.926,3.9888,4.0277,4.0307,4.0367,4.0367,4.0247,3.9978,3.9649,4.0277,4.0756,4.1444,4.1953,4.2432,4.321,4.3299,4.3329,4.3329,4.3329,4.3329,4.3329,4.3329,4.3329,4.3329,4.3329,4.3329,4.3329,4.3539,4.3419,4.3599,3.0633,3.1271,3.1554,3.1792,3.1873,3.206,3.2251,3.2437,3.2826,3.3154,3.3567,3.413,3.4707,3.5267,3.5565,3.6035,3.6476,3.6544,3.6581,3.6716,3.6716,3.6507,3.6118,3.5681,3.5538,3.5519,3.5489,3.5489,3.5489,3.5489,3.54,3.519,3.513,3.5011,3.4741,3.4352,3.4113,3.4083,3.3724,3.3514,3.3544,3.3514,3.3544,3.3724,3.3608,3.3577,3.3879,3.4268,3.4562,3.4852,3.5106,3.5745,3.6799,3.7719,3.8355,3.8635,3.8823,3.9041,3.9293,3.9514,3.9716,3.9919,4.0037,4.0121,4.0087,4.0087,4.0087,4.0155,4.0561,4.0661,4.0486,4.0274,4.0005,3.9686,3.9845,3.9886,3.9617,3.9314,3.8963,3.8504,3.8311,3.8472,3.8912,3.905,3.932,3.9918,4.0277,4.0576,4.0935,4.1025,4.1025,4.0995,4.0846,4.0905,4.1564,4.1384,4.1594,4.2252,4.2821,4.315,4.3329,4.3329,4.3329,4.3329,4.3329,4.3329,4.3329,4.3329,4.3329,4.3329,4.3329,4.3509,4.3898,4.3808,4.4167,3.1336,3.1662,3.1863,3.2021,3.2104,3.2129,3.225,3.2397,3.272,3.3014,3.3327,3.3892,3.4382,3.4927,3.5405,3.6213,3.7054,3.7087,3.706,3.7267,3.7336,3.7195,3.6806,3.6179,3.6038,3.6081,3.6118,3.6118,3.6118,3.6118,3.6118,3.6118,3.6118,3.5998,3.5759,3.534,3.504,3.4771,3.4352,3.4173,3.4143,3.4143,3.4352,3.4651,3.4478,3.4299,3.4361,3.4638,3.4881,3.5031,3.5239,3.5927,3.7036,3.814,3.8843,3.892,3.9115,3.9342,3.9362,3.9573,3.9778,4.0065,4.0306,4.0442,4.0679,4.0746,4.0746,4.0881,4.1047,4.1225,4.1076,4.0934,4.072,4.0336,4.0507,4.0534,4.0226,4.0008,3.9648,3.9174,3.8832,3.9092,3.9559,3.9709,4.0068,4.0636,4.0876,4.1235,4.1594,4.1713,4.1683,4.1683,4.1444,4.1594,4.1983,4.1923,4.2073,4.2671,4.291,4.321,4.3329,4.3329,4.3329,4.3329,4.3329,4.3329,4.3329,4.3329,4.3359,4.3359,4.3389,4.3509,4.3898,4.4257,4.4736,3.219,3.229,3.2817,3.2968,3.3003,3.3003,3.2802,3.2625,3.274,3.2868,3.2854,3.3014,3.3859,3.4654,3.5049,3.5898,3.6864,3.6881,3.6987,3.7297,3.7446,3.7455,3.7336,3.699,3.6901,3.7225,3.7345,3.7315,3.7225,3.7195,3.7225,3.7315,3.7225,3.6926,3.6507,3.6387,3.6118,3.5699,3.5519,3.5489,3.5489,3.5429,3.54,3.5429,3.537,3.5374,3.5597,3.5788,3.5821,3.5885,3.6011,3.6477,3.7084,3.7796,3.8254,3.8286,3.86,3.8854,3.8964,3.9193,3.9785,4.038,4.0782,4.1177,4.1648,4.1816,4.1816,4.1728,4.1643,4.1554,4.1451,4.1599,4.1434,4.0886,4.0916,4.096,4.0672,4.0849,4.0783,4.003,3.9595,3.9679,4.0187,4.0397,4.0666,4.1294,4.1773,4.2162,4.2312,4.2372,4.2372,4.2252,4.2073,4.2132,4.2282,4.2402,4.2761,4.309,4.318,4.3329,4.3329,4.3329,4.3329,4.3329,4.3329,4.3329,4.3329,4.3359,4.3479,4.3509,4.3509,4.3808,4.4466,4.5005,4.5364,3.2792,3.2817,3.2993,3.3093,3.3093,3.3093,3.3054,3.2902,3.3157,3.3199,3.3213,3.3545,3.3979,3.4357,3.4874,3.5466,3.5976,3.6452,3.7118,3.7887,3.8105,3.8085,3.7872,3.7723,3.7555,3.7396,3.7404,3.7404,3.7434,3.7434,3.7404,3.7404,3.7434,3.7315,3.7135,3.7105,3.6985,3.6866,3.6806,3.6626,3.6237,3.6178,3.5968,3.5549,3.5489,3.5489,3.5554,3.5619,3.5653,3.5782,3.5816,3.6133,3.6662,3.6997,3.7207,3.7358,3.8098,3.8531,3.8713,3.9509,4.0123,4.0557,4.0875,4.1233,4.1544,4.1677,4.1587,4.1564,4.1725,4.1848,4.1624,4.1902,4.1781,4.1168,4.1278,4.1241,4.0845,4.0622,4.0161,3.9899,3.9944,4.0157,4.0427,4.0726,4.1324,4.1923,4.2282,4.2491,4.288,4.297,4.303,4.297,4.2791,4.2611,4.2761,4.2851,4.303,4.321,4.3269,4.3329,4.3329,4.3329,4.3329,4.3329,4.3329,4.3389,4.3389,4.3449,4.3629,4.3868,4.4077,4.4646,4.5424,4.5813,4.6022,3.2982,3.2982,3.3093,3.3194,3.337,3.337,3.3495,3.3671,3.3846,3.3846,3.3933,3.4193,3.4366,3.4538,3.4966,3.5389,3.5615,3.6279,3.7066,3.8012,3.8347,3.8341,3.8352,3.8495,3.846,3.8172,3.8153,3.8153,3.8153,3.8153,3.8153,3.8182,3.8153,3.8033,3.7793,3.7764,3.7704,3.7464,3.7375,3.7225,3.6926,3.6836,3.6626,3.6267,3.6207,3.6207,3.6207,3.6207,3.6154,3.6135,3.629,3.6637,3.6926,3.7182,3.7278,3.7466,3.7997,3.8435,3.856,3.9372,4.0187,4.0498,4.0956,4.1416,4.173,4.1829,4.1737,4.1743,4.1829,4.1843,4.1628,4.1565,4.15,4.1053,4.1207,4.1158,4.0814,4.0475,4.0273,4.0209,4.0514,4.0786,4.1175,4.1414,4.2013,4.2551,4.2731,4.2791,4.324,4.3299,4.3329,4.3329,4.321,4.315,4.3269,4.3299,4.3299,4.3329,4.3329,4.3329,4.3329,4.3329,4.3329,4.3329,4.3329,4.3629,4.3658,4.3778,4.3928,4.4257,4.4706,4.5185,4.5783,4.6082,4.6322,3.2636,3.2773,3.3032,3.347,3.3922,3.3947,3.4198,3.4625,3.465,3.46,3.4625,3.464,3.4805,3.506,3.5263,3.5502,3.5895,3.6166,3.6604,3.7373,3.7788,3.8196,3.8561,3.8898,3.9086,3.9188,3.9188,3.929,3.92,3.92,3.9409,3.926,3.92,3.908,3.8542,3.8452,3.8212,3.7793,3.7644,3.7614,3.7494,3.7464,3.7375,3.7315,3.7255,3.7255,3.7225,3.7285,3.7105,3.6783,3.7121,3.7496,3.7714,3.7977,3.7958,3.7994,3.8249,3.8539,3.8735,3.9181,3.9753,4.045,4.1023,4.1779,4.2137,4.2169,4.2106,4.2075,4.1821,4.1494,4.1393,4.1091,4.0752,4.0608,4.0907,4.0801,4.0353,4.0546,4.0691,4.0842,4.1175,4.1624,4.2132,4.2359,4.2671,4.306,4.324,4.3269,4.3299,4.3329,4.3329,4.3329,4.3329,4.3329,4.3329,4.3329,4.3329,4.3329,4.3359,4.3359,4.3359,4.3359,4.3329,4.3329,4.3569,4.3838,4.4047,4.4167,4.4586,4.5125,4.5484,4.5723,4.6052,4.6441,4.6681,3.2308,3.3118,3.3319,3.382,3.4474,3.45,3.4575,3.4726,3.4751,3.466,3.447,3.461,3.4942,3.5263,3.5251,3.5264,3.5519,3.5734,3.6123,3.6678,3.7202,3.7658,3.8121,3.8575,3.89,3.9149,3.9222,3.9265,3.9409,3.9409,3.9409,3.9439,3.9409,3.9349,3.917,3.911,3.908,3.8901,3.8871,3.8571,3.8182,3.8153,3.7883,3.7434,3.7434,3.7464,3.7464,3.7883,3.7823,3.7255,3.7285,3.7473,3.7563,3.7699,3.7828,3.7858,3.8326,3.8637,3.8865,3.9443,4.0053,4.0442,4.0747,4.1103,4.1362,4.1393,4.1358,4.1292,4.1055,4.0851,4.0615,4.047,4.0475,4.0588,4.0883,4.0811,4.0728,4.0919,4.119,4.125,4.179,4.2162,4.2432,4.2761,4.309,4.3269,4.3329,4.3329,4.3329,4.3329,4.3329,4.3329,4.3329,4.3329,4.3329,4.3329,4.3329,4.3329,4.3359,4.3389,4.3389,4.3339,4.3359,4.3329,4.3958,4.4317,4.4466,4.4616,4.5274,4.5933,4.6112,4.6292,4.6741,4.713,4.716,3.2285,3.3053,3.3506,3.4189,3.4869,3.4986,3.5203,3.5378,3.5403,3.5286,3.5236,3.5286,3.5571,3.5713,3.5663,3.5612,3.5704,3.5862,3.6225,3.6508,3.692,3.7479,3.8116,3.8553,3.8835,3.9002,3.8944,3.9046,3.9192,3.9265,3.9337,3.9409,3.9439,3.9439,3.9409,3.9439,3.9439,3.9409,3.9409,3.92,3.8841,3.8811,3.8661,3.8302,3.8242,3.8242,3.8302,3.8631,3.8512,3.8033,3.8063,3.8242,3.8242,3.8242,3.8242,3.8272,3.8702,3.8983,3.9113,3.9627,3.999,4.013,4.037,4.0547,4.0684,4.0684,4.0615,4.0578,4.0439,4.0384,4.0446,4.0588,4.0807,4.0979,4.125,4.131,4.1069,4.146,4.1743,4.1923,4.2312,4.2761,4.2761,4.312,4.3269,4.3329,4.3329,4.3329,4.3329,4.3329,4.3329,4.3329,4.3329,4.3329,4.3389,4.3389,4.3539,4.3539,4.3778,4.3748,4.3838,4.3838,4.3928,4.4077,4.4466,4.4796,4.5065,4.5394,4.5933,4.6441,4.6621,4.698,4.7429,4.7728,4.7758,3.2206,3.2865,3.3494,3.4367,3.5139,3.5376,3.5669,3.6282,3.6257,3.6257,3.6257,3.6332,3.6301,3.6358,3.6251,3.6402,3.6402,3.6276,3.6514,3.6734,3.6975,3.7491,3.8255,3.8404,3.8653,3.8957,3.8713,3.8927,3.9239,3.9299,3.946,3.9755,3.9695,3.9589,3.9649,3.9589,3.9499,3.9439,3.9439,3.9409,3.932,3.929,3.923,3.92,3.917,3.92,3.923,3.932,3.908,3.8512,3.911,3.926,3.932,3.9349,3.9349,3.929,3.926,3.9349,3.9379,3.9565,3.9666,3.9737,3.995,4.0161,4.0161,4.0252,4.0304,4.0335,3.999,4.0341,4.0721,4.1175,4.143,4.164,4.2089,4.2102,4.1863,4.2102,4.2462,4.2491,4.3,4.3269,4.3329,4.3329,4.3329,4.3329,4.3329,4.3329,4.3329,4.3329,4.3329,4.3329,4.3329,4.3329,4.3389,4.3449,4.3658,4.3838,4.4287,4.4466,4.4646,4.4706,4.4796,4.4975,4.5185,4.5514,4.5903,4.6292,4.6711,4.707,4.7369,4.7758,4.8177,4.8327,4.8416,3.1263,3.2619,3.3148,3.4054,3.5112,3.5257,3.5593,3.6098,3.6098,3.6193,3.6358,3.6358,3.6358,3.6358,3.6358,3.6358,3.6358,3.6452,3.6546,3.6709,3.7217,3.743,3.7758,3.7714,3.8145,3.8552,3.8899,3.9262,3.9625,4.003,4.0482,4.0604,4.0681,4.0696,4.0247,4.0187,3.9918,3.9529,3.9469,3.9499,3.9499,3.9499,3.9469,3.9439,3.9439,3.9439,3.9439,3.9439,3.9349,3.926,3.932,3.9439,3.9439,3.9439,3.9439,3.9439,3.9439,3.9439,3.9409,3.9409,3.9511,3.9541,3.9643,3.9553,3.9583,4.0136,4.0347,4.0424,4.0785,4.098,4.125,4.185,4.2073,4.2282,4.2671,4.303,4.294,4.3,4.306,4.312,4.321,4.3329,4.3329,4.3329,4.3329,4.3329,4.3329,4.3329,4.3329,4.3329,4.3329,4.3329,4.3329,4.3389,4.3688,4.3898,4.4317,4.4526,4.4885,4.5484,4.5663,4.5633,4.5753,4.5753,4.5753,4.6142,4.6651,4.695,4.7309,4.7698,4.8117,4.8476,4.8775,4.8925,4.9194,3.0895,3.1917,3.2712,3.3464,3.4288,3.4702,3.5017,3.5428,3.562,3.5932,3.6243,3.6313,3.6288,3.6358,3.6358,3.6358,3.6358,3.6358,3.6452,3.664,3.6828,3.7015,3.715,3.7156,3.7483,3.8249,3.8394,3.8805,3.9533,4.0068,4.0373,4.0926,4.1186,4.1099,4.0935,4.0876,4.0696,4.0487,4.0337,4.0217,3.9948,3.9888,3.9649,3.9499,3.9439,3.9439,3.9439,3.9439,3.9439,3.9439,3.9439,3.9439,3.9439,3.9439,3.9439,3.9439,3.9439,3.9439,3.9439,3.9439,3.9559,3.9888,3.9888,4.0068,4.0277,4.0696,4.0816,4.0905,4.1145,4.1474,4.1833,4.2432,4.2761,4.288,4.312,4.3329,4.3329,4.3329,4.3329,4.3329,4.3329,4.3329,4.3329,4.3329,4.3329,4.3329,4.3329,4.3329,4.3329,4.3329,4.3329,4.3329,4.3329,4.3509,4.3898,4.4407,4.5065,4.5364,4.5663,4.6411,4.701,4.686,4.6711,4.6711,4.6711,4.695,4.7399,4.7638,4.7967,4.8446,4.8865,4.9164,4.9404,4.9643,4.9972,3.0474,3.1073,3.1993,3.26,3.3001,3.3697,3.4091,3.4507,3.4823,3.5381,3.6152,3.5957,3.6003,3.6313,3.6383,3.6408,3.6508,3.6533,3.6704,3.688,3.6905,3.7001,3.7115,3.7177,3.7413,3.79,3.8006,3.8418,3.9144,3.9715,4.0429,4.0812,4.1204,4.1436,4.1517,4.1534,4.1384,4.1205,4.1145,4.1025,4.0636,4.0546,4.0277,4.0008,3.9918,3.9918,3.9918,3.9888,3.9798,3.9709,3.9709,3.9709,3.9679,3.9469,3.9439,3.9439,3.9559,3.9679,3.9738,3.9798,4.0068,4.0516,4.0546,4.0786,4.1175,4.1414,4.1534,4.1594,4.1773,4.2043,4.2491,4.291,4.321,4.3299,4.3329,4.3329,4.3329,4.3329,4.3329,4.3329,4.3329,4.3329,4.3329,4.3329,4.3329,4.3359,4.3359,4.3419,4.3449,4.3539,4.3658,4.3928,4.4077,4.4407,4.4825,4.5065,4.5723,4.6352,4.6621,4.7279,4.8057,4.8027,4.7818,4.7728,4.7788,4.7967,4.8117,4.8356,4.8716,4.9224,4.9523,4.9733,5.0032,5.0331,5.0661,2.9638,3.0266,3.0578,3.1197,3.179,3.1971,3.26,3.34,3.3697,3.4626,3.5551,3.5405,3.567,3.6198,3.6148,3.6443,3.6864,3.7061,3.7262,3.7538,3.7588,3.7686,3.7635,3.761,3.7901,3.8203,3.8201,3.855,3.9344,4.0122,4.0801,4.1468,4.1849,4.2048,4.1952,4.19,4.1799,4.1683,4.1624,4.1474,4.1294,4.1115,4.1085,4.0846,4.0816,4.0876,4.0965,4.0995,4.1055,4.1055,4.1055,4.0995,4.0756,4.0038,3.9619,3.9679,4.0008,4.0247,4.0277,4.0696,4.0995,4.1205,4.1235,4.1235,4.1534,4.1893,4.2162,4.2312,4.2611,4.3,4.315,4.3269,4.3299,4.3329,4.3329,4.3329,4.3329,4.3329,4.3329,4.3329,4.3329,4.3329,4.3329,4.3389,4.3449,4.3509,4.3569,4.3868,4.4137,4.4257,4.4377,4.4676,4.5035,4.5484,4.5933,4.6082,4.6471,4.7309,4.7728,4.8057,4.8686,4.8985,4.8985,4.8925,4.8835,4.8835,4.8955,4.9075,4.9434,4.9912,5.0122,5.0272,5.0571,5.087,5.105,2.9026,2.9343,2.9764,3.0162,3.0557,3.0888,3.1381,3.2095,3.2499,3.3415,3.4402,3.4504,3.4847,3.5429,3.5965,3.6529,3.7219,3.7613,3.7789,3.799,3.799,3.799,3.804,3.804,3.8114,3.8159,3.8306,3.8804,3.9573,4.0278,4.103,4.1792,4.2138,4.2187,4.2444,4.2364,4.2337,4.2168,4.2264,4.2192,4.1863,4.1624,4.1414,4.1414,4.1414,4.1384,4.1384,4.1384,4.1384,4.1354,4.1384,4.1384,4.1205,4.0905,4.0427,4.0516,4.0726,4.0905,4.0905,4.1265,4.1474,4.1863,4.1893,4.2073,4.2342,4.2701,4.2821,4.294,4.303,4.3329,4.3329,4.3329,4.3329,4.3329,4.3359,4.3359,4.3359,4.3359,4.3419,4.3479,4.3449,4.3419,4.3329,4.3419,4.3539,4.3658,4.3808,4.4227,4.4766,4.4915,4.5035,4.5454,4.5813,4.6202,4.6681,4.695,4.7279,4.8087,4.8626,4.8985,4.9374,4.9673,5.0032,5.0242,5.0092,4.9613,4.9703,4.9793,5.0182,5.0541,5.072,5.09,5.1139,5.1379,5.1618,2.8621,2.8621,2.9132,2.9343,2.9448,2.9869,3.037,3.0888,3.1176,3.2059,3.3284,3.3384,3.3784,3.4718,3.5644,3.6651,3.7667,3.7992,3.8166,3.8442,3.8467,3.8391,3.8366,3.8341,3.8442,3.8642,3.8715,3.9005,3.9442,4.0053,4.0881,4.1452,4.1658,4.2134,4.2681,4.284,4.2908,4.3057,4.3269,4.313,4.2581,4.2073,4.1773,4.1773,4.1773,4.1833,4.1923,4.1953,4.1923,4.1923,4.1863,4.1833,4.1803,4.1773,4.1773,4.1743,4.1654,4.1594,4.1594,4.1833,4.2162,4.2521,4.2551,4.2851,4.306,4.318,4.3299,4.3329,4.3329,4.3329,4.3329,4.3329,4.3419,4.3569,4.3599,4.3599,4.3838,4.3928,4.4018,4.3928,4.3718,4.3688,4.3778,4.3748,4.3958,4.4347,4.4496,4.4885,4.5364,4.5484,4.5693,4.6172,4.6561,4.692,4.7339,4.7758,4.8207,4.8895,4.9254,4.9494,4.9972,5.0421,5.075,5.093,5.0571,5.0182,5.0331,5.0451,5.069,5.096,5.1229,5.1468,5.1648,5.2007,5.2336,2.8408,2.8408,2.8388,2.8621,2.8834,2.896,2.9258,2.9784,3.012,3.0535,3.1365,3.2104,3.3048,3.4254,3.5646,3.6783,3.7682,3.8262,3.8741,3.9118,3.9295,3.9295,3.9421,3.9496,3.9295,3.9245,3.9346,3.9196,3.9308,3.9633,4.0103,4.083,4.136,4.1834,4.2552,4.2911,4.3313,4.3299,4.3655,4.3686,4.331,4.318,4.312,4.306,4.303,4.297,4.288,4.2851,4.291,4.297,4.303,4.306,4.309,4.309,4.309,4.294,4.2641,4.2252,4.2312,4.2611,4.288,4.306,4.312,4.3269,4.3299,4.3329,4.3329,4.3329,4.3389,4.3509,4.3569,4.3449,4.3658,4.3958,4.4197,4.4496,4.4736,4.4526,4.4586,4.4646,4.4526,4.4436,4.4436,4.4407,4.4436,4.4855,4.5274,4.5633,4.6022,4.6232,4.6531,4.701,4.7459,4.7818,4.7967,4.8386,4.8895,4.9583,4.9793,5.0002,5.0511,5.093,5.1109,5.1169,5.093,5.096,5.1229,5.1319,5.1229,5.1409,5.1768,5.1947,5.2097,5.2516,5.3054,2.8301,2.8301,2.8301,2.8408,2.8447,2.8662,2.9084,2.9467,2.9884,2.9971,3.0084,3.1144,3.2533,3.4072,3.5503,3.6716,3.7646,3.8344,3.8906,3.9415,3.9594,3.9697,3.9672,3.9697,3.9697,3.9697,3.9672,3.9599,3.9423,3.9622,4.0119,4.0631,4.0973,4.1288,4.2168,4.2502,4.2846,4.3142,4.3826,4.4324,4.4281,4.4325,4.4257,4.3898,4.3868,4.3688,4.3449,4.3329,4.3329,4.3329,4.3329,4.3329,4.3329,4.3329,4.3329,4.3269,4.309,4.291,4.294,4.318,4.3299,4.3329,4.3329,4.3329,4.3329,4.3389,4.3569,4.3868,4.3898,4.4018,4.4317,4.4436,4.4586,4.4766,4.4855,4.5065,4.5304,4.5244,4.5155,4.5244,4.5364,4.5424,4.5424,4.5394,4.5484,4.5783,4.6082,4.6352,4.683,4.7279,4.7578,4.7938,4.8386,4.8805,4.8835,4.9015,4.9344,4.9883,5.0092,5.0391,5.099,5.1349,5.1618,5.1947,5.2067,5.2127,5.2217,5.2037,5.1828,5.2037,5.2306,5.2546,5.2815,5.3324,5.3832,2.8301,2.8301,2.8301,2.8359,2.8476,2.8789,2.9094,2.947,2.9747,2.9656,2.9838,3.0811,3.2437,3.3857,3.5012,3.6079,3.7287,3.808,3.8736,3.905,3.9362,3.9594,3.9594,3.9594,3.9697,3.9697,3.9697,3.9622,3.975,3.993,4.016,4.0668,4.0728,4.1063,4.1486,4.2004,4.2536,4.3186,4.3864,4.4376,4.4684,4.5049,4.4863,4.4646,4.4377,4.4077,4.3658,4.3359,4.3329,4.3329,4.3329,4.3329,4.3329,4.3329,4.3329,4.3329,4.324,4.3269,4.324,4.3329,4.3329,4.3389,4.3539,4.3688,4.3658,4.3658,4.3928,4.4526,4.4556,4.4825,4.5125,4.5214,4.5334,4.5394,4.5544,4.5633,4.5783,4.5992,4.6142,4.6232,4.6411,4.6621,4.6621,4.6531,4.6621,4.677,4.695,4.713,4.7608,4.8177,4.8536,4.8865,4.9194,4.9613,4.9853,4.9942,5.0152,5.0301,5.0481,5.087,5.1498,5.2007,5.2366,5.2695,5.2965,5.2875,5.2695,5.2546,5.2456,5.2665,5.2905,5.3264,5.3623,5.4102,5.4431,2.8301,2.8301,2.8301,2.8516,2.8867,2.8906,2.918,2.9643,2.9702,2.9872,3.0155,3.1279,3.2384,3.3289,3.4115,3.5134,3.634,3.7227,3.7868,3.8421,3.8945,3.9154,3.9258,3.9387,3.9594,3.9697,3.9697,3.9697,3.9697,3.98,3.9981,4.0134,4.0438,4.0792,4.1314,4.186,4.2642,4.3266,4.371,4.4153,4.467,4.498,4.5144,4.5072,4.4676,4.4287,4.4227,4.3748,4.3479,4.3479,4.3359,4.3329,4.3329,4.3449,4.3509,4.3509,4.3658,4.3658,4.3658,4.3569,4.3419,4.3539,4.3838,4.4257,4.4257,4.4796,4.5125,4.5185,4.5244,4.5334,4.5394,4.5364,4.5843,4.6112,4.6381,4.6651,4.686,4.713,4.7279,4.7309,4.7459,4.7668,4.7818,4.7758,4.7698,4.7848,4.7878,4.8057,4.8476,4.9015,4.9404,4.9733,4.9972,5.0391,5.09,5.099,5.084,5.105,5.1319,5.1648,5.2097,5.2576,5.3114,5.3234,5.3443,5.3324,5.3294,5.3384,5.3414,5.3354,5.3533,5.3952,5.4221,5.4551,5.482,2.8301,2.832,2.8555,2.8769,2.8965,2.9473,2.9805,3.0,3.0254,3.0486,3.062,3.1411,3.1896,3.2436,3.3233,3.4022,3.4914,3.6013,3.6796,3.7334,3.7868,3.8396,3.8607,3.8841,3.905,3.9362,3.9465,3.9569,3.9697,3.9697,3.9697,3.9903,4.0083,4.0287,4.0769,4.1471,4.2366,4.3093,4.375,4.4367,4.4844,4.5435,4.555,4.5194,4.5531,4.5054,4.475,4.4206,4.4018,4.3838,4.3599,4.3509,4.3539,4.3748,4.3928,4.3988,4.4227,4.4377,4.4317,4.4197,4.4107,4.4526,4.4766,4.4915,4.4915,4.5214,4.5574,4.5753,4.5933,4.5992,4.6501,4.6561,4.6741,4.698,4.7249,4.7578,4.7818,4.8057,4.8207,4.8177,4.8446,4.8745,4.8865,4.8985,4.8925,4.8895,4.8925,4.9015,4.9404,4.9733,5.0122,5.0451,5.069,5.093,5.1409,5.1439,5.1409,5.1768,5.2097,5.2456,5.2815,5.3384,5.3832,5.3922,5.4072,5.4192,5.4281,5.4371,5.4311,5.4042,5.4281,5.473,5.494,5.5029,5.5209,2.8252,2.8535,2.8926,2.9121,2.9219,2.9902,3.0273,3.0449,3.0723,3.0898,3.0898,3.1248,3.146,3.1787,3.2342,3.3006,3.3797,3.4692,3.5466,3.6122,3.6773,3.7311,3.7655,3.808,3.8396,3.8841,3.9154,3.9283,3.9569,3.9672,3.9697,3.98,3.9878,3.9981,4.0185,4.0896,4.1696,4.2555,4.33,4.4181,4.4684,4.5207,4.5663,4.5229,4.5463,4.5341,4.501,4.4674,4.4482,4.4415,4.4206,4.4018,4.4107,4.4287,4.4556,4.4766,4.4975,4.5304,4.5155,4.5005,4.4796,4.5065,4.5484,4.5544,4.5603,4.5753,4.6292,4.6531,4.6651,4.689,4.7519,4.7519,4.7728,4.7967,4.8207,4.8506,4.8566,4.8745,4.8925,4.9015,4.9314,4.9583,4.9733,4.9823,4.9823,4.9823,4.9972,5.0002,5.0152,5.0451,5.069,5.102,5.1319,5.1588,5.1828,5.2037,5.2247,5.2486,5.2815,5.3144,5.3533,5.4102,5.4461,5.4551,5.476,5.5089,5.5059,5.488,5.473,5.461,5.488,5.5149,5.5209,5.5299,5.5508,2.83,2.8945,2.9355,2.9531,2.9609,3.0019,3.0449,3.0781,3.0879,3.0898,3.0898,3.1015,3.1112,3.1325,3.1787,3.2227,3.2799,3.3572,3.4246,3.4803,3.5466,3.6013,3.6557,3.6989,3.7418,3.808,3.8421,3.8841,3.9258,3.949,3.9594,3.9697,3.9672,3.98,3.98,4.0313,4.0896,4.1696,4.2235,4.3012,4.3681,4.4219,4.4627,4.4852,4.5017,4.4966,4.5026,4.4958,4.4803,4.4798,4.4899,4.4833,4.4893,4.5125,4.5274,4.5304,4.5394,4.5454,4.5364,4.5304,4.5454,4.5633,4.6112,4.6262,4.6441,4.677,4.716,4.7279,4.7399,4.7668,4.8027,4.8297,4.8596,4.8805,4.9015,4.9254,4.9314,4.9583,4.9763,4.9883,5.0062,5.0272,5.0481,5.0631,5.0661,5.075,5.096,5.105,5.105,5.1319,5.1588,5.1738,5.2067,5.2217,5.2486,5.2815,5.3084,5.3294,5.3503,5.3743,5.4132,5.4581,5.491,5.5089,5.5119,5.5179,5.5209,5.5179,5.5269,5.5388,5.5209,5.5359,5.5418,5.5658,5.5957,2.8319,2.8945,2.9375,2.9726,3.0019,3.0469,3.0762,3.0879,3.0898,3.0898,3.0898,3.0898,3.0898,3.1112,3.1325,3.1556,3.1883,3.2457,3.3027,3.3346,3.4,3.4447,3.5002,3.5576,3.6231,3.712,3.7655,3.8185,3.8736,3.9154,3.9387,3.9465,3.9594,3.9697,3.9775,4.0083,4.0491,4.0896,4.1372,4.194,4.2457,4.2985,4.3464,4.3748,4.4152,4.4499,4.4743,4.4704,4.4937,4.5022,4.5132,4.5203,4.5376,4.5496,4.5963,4.6112,4.6262,4.6621,4.6621,4.6651,4.6621,4.6741,4.68,4.698,4.704,4.7578,4.7848,4.8057,4.8267,4.8566,4.8895,4.8925,4.9105,4.9224,4.9464,4.9793,5.0032,5.0451,5.072,5.075,5.087,5.093,5.1079,5.1439,5.1558,5.1648,5.1858,5.1828,5.1828,5.2276,5.2636,5.2665,5.2815,5.2935,5.3144,5.3473,5.3713,5.3892,5.4072,5.4251,5.464,5.4999,5.5179,5.5269,5.5239,5.5209,5.5448,5.5718,5.6107,5.6196,5.6107,5.6077,5.6256,5.6466,5.6675,2.8071,2.8939,2.9453,2.9902,3.043,3.0762,3.0898,3.0898,3.0898,3.0898,3.0898,3.0898,3.0898,3.1015,3.1112,3.1092,3.1208,3.1672,3.1883,3.2227,3.2664,3.3119,3.3685,3.4246,3.4891,3.5795,3.658,3.7227,3.7761,3.8526,3.8945,3.9258,3.9465,3.9594,3.9672,3.9878,4.0083,4.0389,4.0769,4.1071,4.1471,4.1868,4.2208,4.2598,4.315,4.3721,4.4107,4.4436,4.4752,4.4964,4.5113,4.5282,4.5516,4.5981,4.648,4.6658,4.698,4.7369,4.7519,4.7578,4.7638,4.7967,4.7818,4.7788,4.7938,4.8416,4.8566,4.8775,4.9105,4.9374,4.9553,4.9553,4.9733,4.9853,5.0122,5.0481,5.0601,5.102,5.1169,5.1229,5.1528,5.1588,5.1798,5.2157,5.2456,5.2606,5.2755,5.2695,5.2636,5.3025,5.3443,5.3533,5.3593,5.3743,5.3892,5.4102,5.4341,5.4521,5.461,5.47,5.485,5.5149,5.5299,5.5478,5.5598,5.5748,5.5987,5.6286,5.6705,5.7004,5.7124,5.7094,5.7154,5.7274,5.7423,2.7804,2.9064,2.9458,3.0078,3.0801,3.0879,3.0898,3.0898,3.0898,3.0898,3.0898,3.0898,3.0898,3.0898,3.0879,3.0879,3.0995,3.1228,3.1325,3.1556,3.1883,3.2227,3.2571,3.3119,3.3685,3.4357,3.5135,3.6013,3.6688,3.7548,3.8291,3.905,3.9154,3.9362,3.9569,3.9775,3.9878,4.0083,4.0185,4.0491,4.0795,4.0971,4.1272,4.167,4.2244,4.2663,4.3148,4.3792,4.4303,4.4741,4.5235,4.5689,4.6166,4.6638,4.6726,4.7048,4.7282,4.779,4.8207,4.8297,4.8656,4.8925,4.8716,4.8835,4.8955,4.9134,4.9284,4.9374,4.9613,4.9912,5.0152,5.0301,5.0481,5.072,5.096,5.1109,5.1109,5.1259,5.1349,5.1558,5.2007,5.2276,5.2665,5.3025,5.3234,5.3384,5.3533,5.3713,5.3653,5.3533,5.3922,5.4221,5.4341,5.4521,5.467,5.467,5.476,5.485,5.497,5.5059,5.5179,5.5418,5.5718,5.5957,5.6137,5.6376,5.6765,5.7094,5.7393,5.7663,5.7932,5.7902,5.7872,5.7992,5.8171,2.7565,2.9103,2.9458,3.0078,3.082,3.0898,3.0898,3.0898,3.0898,3.0898,3.0898,3.0898,3.0898,3.0898,3.0898,3.0898,3.0898,3.0995,3.0995,3.1112,3.1344,3.1441,3.1672,3.2133,3.2571,3.3233,3.4022,3.467,3.5356,3.634,3.7441,3.8291,3.8736,3.905,3.9362,3.9594,3.9697,3.9851,3.9876,4.0082,4.0185,4.0389,4.0594,4.0976,4.1667,4.2023,4.2478,4.3498,4.3966,4.4056,4.492,4.5373,4.5173,4.5747,4.6283,4.7526,4.809,4.8656,4.8955,4.8985,4.9284,4.9793,4.9703,4.9434,4.9523,4.9673,4.9942,5.0032,5.0212,5.0541,5.069,5.081,5.099,5.1199,5.1409,5.1468,5.1558,5.1798,5.1887,5.2247,5.2665,5.3025,5.3414,5.3743,5.3952,5.4102,5.4281,5.4461,5.4521,5.4341,5.4341,5.464,5.479,5.488,5.497,5.4999,5.5089,5.5179,5.5299,5.5508,5.5807,5.6047,5.6256,5.6555,5.6885,5.7274,5.7693,5.7932,5.8052,5.8441,5.871,5.865,5.862,5.865,5.868,2.6902,2.839,2.901,2.985,3.0568,3.0762,3.0762,3.0898,3.0898,3.0898,3.0898,3.0898,3.0898,3.0898,3.0898,3.0898,3.0898,3.0898,3.0898,3.0898,3.0898,3.0995,3.1228,3.146,3.1787,3.2342,3.2758,3.3283,3.4,3.5245,3.6449,3.7441,3.808,3.8502,3.8945,3.9283,3.964,3.9869,3.9944,4.0023,4.0178,4.0383,4.0509,4.0664,4.1412,4.1697,4.2087,4.31,4.3353,4.3392,4.4266,4.4719,4.4813,4.5572,4.6403,4.757,4.808,4.8676,4.9005,4.9369,4.9849,5.0206,5.0508,5.0421,5.0331,5.0451,5.0571,5.069,5.096,5.1199,5.1199,5.1259,5.1409,5.1588,5.1678,5.1768,5.2067,5.2396,5.2695,5.3025,5.3354,5.3713,5.4042,5.4371,5.461,5.47,5.476,5.488,5.494,5.488,5.485,5.497,5.5059,5.5119,5.5239,5.5388,5.5478,5.5598,5.5688,5.5957,5.6346,5.6675,5.6885,5.7304,5.7752,5.8082,5.8381,5.8471,5.865,5.8979,5.9129,5.9009,5.889,5.8919,5.8979,2.5993,2.735,2.8238,2.9317,3.0334,3.0392,3.0626,3.0898,3.0898,3.0898,3.0898,3.0898,3.0898,3.0898,3.0898,3.0898,3.0898,3.0898,3.0898,3.0898,3.0898,3.1015,3.1015,3.1248,3.146,3.1401,3.1592,3.226,3.3006,3.4134,3.5356,3.6472,3.712,3.7702,3.8248,3.8908,3.947,3.9996,4.0358,4.0646,4.0727,4.1003,4.1329,4.1254,4.1544,4.1808,4.1915,4.2285,4.2682,4.3075,4.3568,4.4157,4.4775,4.5552,4.6514,4.7234,4.7854,4.8581,4.9062,4.9557,5.0011,5.0555,5.1011,5.0956,5.0837,5.09,5.096,5.099,5.1199,5.1229,5.1229,5.1468,5.1708,5.1977,5.2157,5.2336,5.2636,5.3025,5.3503,5.3803,5.4102,5.4431,5.461,5.488,5.488,5.5089,5.5149,5.5179,5.5388,5.5388,5.5448,5.5448,5.5478,5.5568,5.5777,5.5897,5.5927,5.6017,5.6166,5.6555,5.7064,5.7334,5.7513,5.7962,5.8381,5.871,5.8949,5.8949,5.889,5.9009,5.9129,5.9159,5.9189,5.9279,5.9159,2.4811,2.6084,2.7719,2.91,3.0001,3.0274,3.0626,3.0898,3.0898,3.0898,3.0898,3.0898,3.0898,3.0898,3.0898,3.0898,3.0898,3.0898,3.0898,3.0898,3.0898,3.0898,3.0898,3.1015,3.1015,3.1112,3.1305,3.1612,3.2322,3.3233,3.3909,3.4714,3.5621,3.6656,3.7575,3.8359,3.9164,3.9892,4.073,4.1081,4.1089,4.1121,4.1329,4.1505,4.1739,4.2016,4.225,4.2747,4.2837,4.2926,4.3251,4.3703,4.4232,4.5247,4.6173,4.7052,4.7532,4.8182,4.8816,4.932,4.9756,5.0132,5.0537,5.0728,5.0917,5.1105,5.1199,5.1229,5.1229,5.1229,5.1379,5.1708,5.2097,5.2396,5.2695,5.2965,5.3264,5.3743,5.4251,5.4551,5.485,5.4999,5.5149,5.5209,5.5209,5.5179,5.5179,5.5299,5.5777,5.5927,5.6107,5.6107,5.5987,5.6107,5.6286,5.6436,5.6496,5.6645,5.6855,5.7274,5.7752,5.8052,5.8291,5.862,5.8979,5.9099,5.9099,5.9099,5.9069,5.9099,5.9308,5.9398,5.9668,5.9817,5.9518,2.3634,2.4597,2.6308,2.7957,2.9102,2.9362,2.9849,3.0626,3.0645,3.0762,3.0898,3.0898,3.0898,3.0898,3.0898,3.0898,3.0898,3.0898,3.0898,3.0898,3.0898,3.0898,3.0898,3.0898,3.0898,3.0995,3.1112,3.1325,3.1883,3.2248,3.2934,3.3692,3.4797,3.5804,3.6793,3.7692,3.8682,3.9563,4.0595,4.1065,4.1384,4.1679,4.1948,4.2208,4.2308,4.2509,4.2695,4.3058,4.2957,4.2916,4.3278,4.3717,4.415,4.4837,4.5442,4.6147,4.6751,4.7513,4.8021,4.8524,4.905,4.9346,4.9863,5.0028,5.0442,5.0662,5.0917,5.0947,5.1135,5.1229,5.1678,5.2037,5.2725,5.3174,5.3473,5.3773,5.4132,5.4551,5.479,5.491,5.5059,5.5089,5.5209,5.5209,5.5209,5.5299,5.5299,5.5658,5.6077,5.6585,5.6705,5.6855,5.6795,5.6675,5.6765,5.6915,5.7064,5.7274,5.7543,5.7932,5.8351,5.874,5.9099,5.9099,5.9069,5.9099,5.9099,5.9189,5.9129,5.9099,5.9398,5.9697,6.0027,6.0305,6.0215,2.2269,2.32,2.4647,2.6385,2.8045,2.8165,2.8941,3.0217,3.0392,3.0645,3.0898,3.0898,3.0898,3.0898,3.0898,3.0898,3.0898,3.0898,3.0898,3.0898,3.0898,3.0898,3.0898,3.0898,3.0898,3.0898,3.1015,3.1112,3.1325,3.1772,3.2458,3.319,3.4075,3.4941,3.5845,3.6716,3.7839,3.8689,3.9682,4.0511,4.1387,4.24,4.2637,4.2799,4.2986,4.2986,4.2986,4.2961,4.2961,4.3048,4.3194,4.3585,4.3862,4.4297,4.4673,4.5262,4.5661,4.6164,4.6478,4.7205,4.7717,4.8223,4.8753,4.9277,4.9669,5.0077,5.0367,5.0714,5.1001,5.1369,5.1816,5.2509,5.3226,5.3862,5.4162,5.4461,5.482,5.5149,5.5179,5.5239,5.5239,5.5239,5.5359,5.5359,5.5418,5.5508,5.5748,5.6107,5.6555,5.7094,5.7453,5.7663,5.7782,5.7633,5.7513,5.7543,5.7782,5.7992,5.8291,5.862,5.889,5.9039,5.9099,5.9099,5.9099,5.9219,5.9338,5.9428,5.9338,5.9289,5.9708,6.0104,6.0462,6.0707,6.0916,2.132,2.2836,2.3594,2.5061,2.6845,2.7669,2.8806,2.9884,3.0274,3.0645,3.0898,3.0898,3.0898,3.0898,3.0898,3.0898,3.0898,3.0898,3.0898,3.0898,3.0898,3.0898,3.0898,3.0898,3.0898,3.0898,3.0898,3.0898,3.125,3.1721,3.2037,3.2414,3.335,3.4113,3.4987,3.5951,3.6794,3.7695,3.8657,3.9593,4.0313,4.1353,4.24,4.265,4.2849,4.2986,4.2986,4.2986,4.2986,4.2986,4.3098,4.3295,4.3517,4.3738,4.3958,4.4287,4.4696,4.502,4.5449,4.6058,4.6478,4.6895,4.741,4.8179,4.8651,4.9266,4.9724,5.0324,5.065,5.1356,5.1896,5.2931,5.3614,5.4182,5.448,5.482,5.5089,5.5239,5.5299,5.5359,5.5388,5.5628,5.5987,5.6047,5.6226,5.6346,5.6615,5.6974,5.7363,5.7782,5.8141,5.8351,5.856,5.88,5.874,5.8501,5.862,5.88,5.8949,5.9129,5.9189,5.9069,5.9129,5.9488,5.9458,5.9488,5.9578,5.9687,5.9926,5.9964,6.0291,6.0565,6.0808,6.0875,6.085]},{"header":{"parameterUnit":"m.s-1","parameterCategory":1,"la1":31.0,"la2":29.5877,"lo1":-88.7671,"lo2":-86.6584,"dy":0.0162,"dx":0.0185,"nx":115,"ny":88,"refTime":"2024-04-03T06:00:00:Z","depth":0,"parameterNumber":3,"parameterNumberName":"V-component_of_WINDS"},"data":[0.0,0.0,0.0,0.0,0.0,0.0,0.0,0.0,0.0,0.0,0.0,0.0,0.0,0.0,0.0,0.0,0.0,0.0,0.0,0.0,0.0,0.0,0.0,0.0,0.0,0.0,0.0,0.0,0.0,0.0,0.0,0.0,0.0,0.0,0.0,0.0,0.0,0.0,0.0,0.0,0.0,0.0,0.0,0.0,0.0,0.0,0.0,0.0,0.0,0.0,0.0,0.0,0.0,0.0,0.0,0.0,0.0,0.0,0.0,0.0,0.0,0.0,0.0,0.0,0.0,0.0,0.0,0.0,0.0,0.0,0.0,0.0,0.0,0.0,0.0,0.0,0.0,0.0,0.0,0.0,0.0,0.0,0.0,0.0,0.0,0.0,0.0,0.0,0.0,0.0,0.0,0.0,0.0,0.0,0.0,0.0,0.0,0.0,0.0,0.0,0.0,0.0,0.0,0.0,0.0,0.0,0.0,0.0,0.0,0.0,0.0,0.0,0.0,0.0,0.0,0.0,0.0,0.0,0.0,0.0,0.0,0.0,0.0,0.0,0.0,0.0,0.0,0.0,0.0,0.0,0.0,0.0,0.0,0.0,0.0,0.0,0.0,0.0,0.0,0.0,0.0,0.0,0.0,0.0,0.0,0.0,0.0,0.0,0.0,0.0,0.0,0.0,0.0,0.0,0.0,0.0,0.0,0.0,0.0,0.0,0.0,0.0,0.0,0.0,0.0,0.0,0.0,0.0,0.0,0.0,0.0,0.0,0.0,0.0,0.0,0.0,0.0,0.0,0.0,0.0,0.0,0.0,0.0,0.0,0.0,0.0,0.0,0.0,0.0,0.0,0.0,0.0,0.0,0.0,0.0,0.0,0.0,0.0,0.0,0.0,0.0,0.0,0.0,0.0,0.0,0.0,0.0,0.0,0.0,0.0,0.0,0.0,0.0,0.0,0.0,0.0,0.0,0.0,0.0,0.0,0.0,0.0,0.0,0.0,0.0,0.0,0.0,0.0,0.0,0.0,0.0,0.0,0.0,0.0,0.0,0.0,0.0,0.0,0.0,0.0,0.0,0.0,0.0,0.0,0.0,0.0,0.0,0.0,0.0,0.0,0.0,0.0,0.0,0.0,0.0,0.0,0.0,0.0,0.0,0.0,0.0,0.0,0.0,0.0,0.0,0.0,0.0,0.0,0.0,0.0,0.0,0.0,0.0,0.0,0.0,0.0,0.0,0.0,0.0,0.0,0.0,0.0,0.0,0.0,0.0,0.0,0.0,0.0,0.0,0.0,0.0,0.0,0.0,0.0,0.0,0.0,0.0,0.0,0.0,0.0,0.0,0.0,0.0,0.0,0.0,0.0,0.0,0.0,0.0,0.0,0.0,0.0,0.0,0.0,0.0,0.0,0.0,0.0,0.0,0.0,0.0,0.0,0.0,0.0,0.0,0.0,0.0,0.0,0.0,0.0,0.0,0.0,0.0,0.0,0.0,0.0,0.0,0.0,0.0,0.0,0.0,0.0,0.0,0.0,0.0,0.0,0.0,0.0,0.0,0.0,0.0,0.0,0.0,0.0,0.0,0.0,0.0,0.0,0.0,0.0,0.0,0.0,0.0,0.0,0.0,0.0,0.0,0.0,0.0,0.0,0.0,0.0,0.0,0.0,0.0,0.0,0.0,0.0,0.0,0.0,0.0,0.0,0.0,0.0,0.0,0.0,0.0,0.0,0.0,0.0,0.0,0.0,0.0,0.0,0.0,0.0,0.0,0.0,0.0,0.0,0.0,0.0,0.0,0.0,0.0,0.0,0.0,0.0,0.0,0.0,0.0,0.0,0.0,0.0,0.0,0.0,0.0,0.0,0.0,0.0,0.0,0.0,0.0,0.0,0.0,0.0,0.0,0.0,0.0,0.0,0.0,0.0,0.0,0.0,0.0,0.0,0.0,0.0,0.0,0.0,0.0,0.0,0.0,0.0,0.0,0.0,0.0,0.0,0.0,0.0,0.0,0.0,0.0,0.0,0.0,0.0,0.0,0.0,0.0,0.0,0.0,0.0,0.0,0.0,0.0,0.0,0.0,0.0,0.0,0.0,0.0,0.0,0.0,0.0,0.0,0.0,0.0,0.0,0.0,0.0,0.0,0.0,0.0,0.0,0.0,0.0,0.0,0.0,0.0,0.0,0.0,0.0,0.0,0.0,0.0,0.0,0.0,0.0,0.0,0.0,0.0,0.0,0.0,0.0,0.0,0.0,0.0,0.0,0.0,0.0,0.0,0.0,0.0,0.0,0.0,0.0,0.0,0.0,0.0,0.0,0.0,0.0,0.0,0.0,0.0,0.0,0.0,0.0,0.0,0.0,0.0,0.0,0.0,0.0,0.0,0.0,0.0,0.0,0.0,0.0,0.0,0.0,0.0,0.0,0.0,0.0,0.0,0.0,0.0,0.0,0.0,0.0,0.0,0.0,0.0,0.0,0.0,0.0,0.0,0.0,0.0,0.0,0.0,0.0,0.0,0.0,0.0,0.0,0.0,0.0,0.0,0.0,0.0,0.0,0.0,0.0,0.0,0.0,0.0,0.0,0.0,0.0,0.0,0.0,0.0,0.0,0.0,0.0,0.0,0.0,0.0,0.0,0.0,0.0,0.0,0.0,0.0,0.0,0.0,0.0,0.0,0.0,0.0,0.0,0.0,0.0,0.0,0.0,0.0,0.0,0.0,0.0,0.0,0.0,0.0,0.0,0.0,0.0,0.0,0.0,0.0,0.0,0.0,0.0,0.0,0.0,0.0,0.0,0.0,0.0,0.0,0.0,0.0,0.0,0.0,0.0,0.0,0.0,0.0,0.0,0.0,0.0,0.0,0.0,0.0,0.0,0.0,0.0,0.0,0.0,0.0,0.0,0.0,0.0,0.0,0.0,0.0,0.0,0.0,0.0,0.0,0.0,0.0,0.0,0.0,0.0,0.0,0.0,0.0,0.0,0.0,0.0,0.0,0.0,0.0,0.0,0.0,0.0,0.0,0.0,0.0,0.0,0.0,0.0,0.0,0.0,0.0,0.0,0.0,0.0,0.0,0.0,0.0,0.0,0.0,0.0,0.0,0.0,0.0,0.0,0.0,0.0,0.0,0.0,0.0,0.0,0.0,0.0,0.0,0.0,0.0,0.0,0.0,0.0,0.0,0.0,0.0,0.0,0.0,0.0,0.0,0.0,0.0,0.0,0.0,0.0,0.0,0.0,0.0,0.0,0.0,0.0,0.0,0.0,0.0,0.0,0.0,0.0,0.0,0.0,0.0,0.0,0.0,0.0,0.0,0.0,0.0,0.0,0.0,0.0,0.0,0.0,0.0,0.0,0.0,0.0,0.0,0.0,0.0,0.0,0.0,0.0,0.0,0.0,0.0,0.0,0.0,0.0,0.0,0.0,0.0,0.0,0.0,0.0,0.0,0.0,0.0,0.0,0.0,0.0,0.0,0.0,0.0,0.0,0.0,0.0,0.0,0.0,0.0,0.0,0.0,0.0,0.0,0.0,0.0,0.0,0.0,0.0,0.0,0.0,0.0,0.0,0.0,0.0,0.0,0.0,0.0,0.0,0.0,0.0,0.0,0.0,0.0,0.0,0.0,0.0,0.0,0.0,0.0,0.0,0.0,0.0,0.0,0.0,0.0,0.0,0.0,0.0,0.0,0.0,0.0,0.0,0.0,0.0,0.0,0.0,0.0,0.0,0.0,0.0,0.0,0.0,0.0,0.0,0.0,0.0,0.0,0.0,0.0,0.0,0.0,0.0,0.0,0.0,0.0,0.0,0.0,0.0,0.0,0.0,0.0,0.0,0.0,0.0,0.0,0.0,0.0,0.0,0.0,0.0,0.0,0.0,0.0,0.0,0.0,0.0,0.0,0.0,0.0,0.0,0.0,0.0,0.0,0.0,0.0,0.0,0.0,0.0,0.0,0.0,0.0,0.0,0.0,0.0,0.0,0.0,0.0,0.0,0.0,0.0,0.0,0.0,0.0,0.0,0.0,0.0,0.0,0.0,0.0,0.0,0.0,0.0,0.0,0.0,0.0,0.0,0.0,0.0,0.0,0.0,0.0,0.0,0.0,0.0,0.0,0.0,0.0,0.0,0.0,0.0,0.0,0.0,0.0,0.0,0.0,0.0,0.0,0.0,0.0,0.0,0.0,0.0,0.0,0.0,0.0,0.0,0.0,0.0,0.0,0.0,0.0,0.0,0.0,0.0,0.0,0.0,0.0,0.0,0.0,0.0,0.0,0.0,0.0,0.0,0.0,0.0,-0.6629,0.0,0.0,0.0,0.0,0.0,0.0,0.0,0.0,0.0,0.0,0.0,0.0,0.0,0.0,0.0,0.0,0.0,0.0,0.0,0.0,0.0,0.0,0.0,0.0,0.0,0.0,0.0,0.0,0.0,0.0,0.0,0.0,0.0,0.0,0.0,0.0,0.0,0.0,0.0,0.0,0.0,0.0,0.0,0.0,0.0,0.0,0.0,0.0,0.0,0.0,0.0,0.0,0.0,0.0,0.0,0.0,0.0,0.0,0.0,0.0,0.0,0.0,0.0,0.0,0.0,0.0,0.0,0.0,0.0,0.0,0.0,0.0,0.0,0.0,0.0,0.0,0.0,0.0,0.0,0.0,0.0,0.0,0.0,0.0,0.0,0.0,0.0,0.0,0.0,0.0,0.0,0.0,0.0,0.0,0.0,0.0,0.0,0.0,0.0,0.0,0.0,0.0,0.0,0.0,0.0,0.0,0.0,0.0,0.0,0.0,-0.6757,-0.6706,-0.6715,-0.6807,-0.7062,0.0,0.0,0.0,0.0,0.0,0.0,0.0,0.0,0.0,0.0,0.0,0.0,0.0,0.0,0.0,0.0,0.0,0.0,0.0,0.0,0.0,0.0,0.0,0.0,0.0,0.0,0.0,0.0,0.0,0.0,0.0,0.0,0.0,0.0,0.0,0.0,0.0,0.0,0.0,0.0,0.0,0.0,0.0,0.0,0.0,0.0,0.0,0.0,0.0,0.0,0.0,0.0,0.0,0.0,0.0,0.0,0.0,0.0,0.0,0.0,0.0,0.0,0.0,0.0,0.0,0.0,0.0,0.0,0.0,0.0,0.0,0.0,0.0,0.0,0.0,0.0,0.0,0.0,0.0,0.0,0.0,0.0,0.0,0.0,0.0,0.0,0.0,0.0,0.0,0.0,0.0,0.0,0.0,0.0,0.0,0.0,0.0,0.0,0.0,0.0,0.0,0.0,0.0,0.0,0.0,0.0,0.0,0.0,0.0,0.0,0.0,0.0,-0.7078,-0.7294,-0.7768,0.0,0.0,0.0,0.0,0.0,0.0,0.0,0.0,0.0,0.0,0.0,0.0,0.0,0.0,0.0,0.0,0.0,0.0,0.0,0.0,0.0,0.0,0.0,0.0,0.0,0.0,0.0,0.0,0.0,0.0,0.0,0.0,0.0,0.0,0.0,0.0,0.0,0.0,0.0,0.0,0.0,0.0,0.0,0.0,0.0,0.0,0.0,0.0,0.0,0.0,0.0,0.0,0.0,0.0,0.0,0.0,0.0,0.0,0.0,0.0,0.0,0.0,0.0,0.0,0.0,0.0,0.0,0.0,0.0,0.0,0.0,0.0,0.0,0.0,0.0,0.0,0.0,0.0,0.0,0.0,0.0,0.0,0.0,0.0,0.0,0.0,0.0,0.0,0.0,0.0,0.0,0.0,0.0,0.0,0.0,0.0,0.0,0.0,0.0,0.0,0.0,0.0,0.0,0.0,0.0,0.0,0.0,0.0,0.0,0.0,-0.7588,-0.8135,-0.8135,0.0,-0.8886,0.0,0.0,0.0,0.0,0.0,0.0,0.0,0.0,0.0,0.0,0.0,0.0,0.0,0.0,0.0,0.0,0.0,0.0,0.0,0.0,0.0,0.0,0.0,0.0,0.0,0.0,0.0,0.0,0.0,0.0,0.0,0.0,0.0,0.0,0.0,0.0,0.0,0.0,0.0,0.0,0.0,0.0,0.0,0.0,0.0,0.0,0.0,0.0,0.0,0.0,0.0,0.0,0.0,0.0,0.0,0.0,0.0,0.0,0.0,0.0,0.0,0.0,0.0,0.0,0.0,0.0,0.0,0.0,0.0,0.0,0.0,0.0,0.0,0.0,0.0,0.0,0.0,0.0,0.0,0.0,0.0,0.0,0.0,0.0,0.0,0.0,0.0,0.0,0.0,0.0,0.0,0.0,0.0,0.0,0.0,0.0,0.0,0.0,0.0,0.0,0.0,0.0,0.0,0.0,0.0,0.0,0.0,0.0,0.0,0.0,-0.7668,-0.8286,-0.8612,-0.8713,0.0,0.0,0.0,0.0,0.0,0.0,0.0,0.0,0.0,0.0,0.0,0.0,0.0,0.0,0.0,0.0,0.0,0.0,0.0,0.0,0.0,0.0,0.0,0.0,0.0,0.0,0.0,0.0,0.0,0.0,0.0,0.0,0.0,0.0,0.0,0.0,0.0,0.0,0.0,0.0,0.0,0.0,0.0,0.0,0.0,0.0,0.0,0.0,0.0,0.0,0.0,0.0,0.0,0.0,0.0,0.0,0.0,0.0,0.0,0.0,0.0,0.0,0.0,0.0,0.0,0.0,0.0,0.0,0.0,0.0,0.0,0.0,0.0,0.0,0.0,0.0,0.0,0.0,0.0,0.0,0.0,0.0,0.0,0.0,0.0,0.0,0.0,0.0,0.0,0.0,0.0,0.0,0.0,0.0,0.0,0.0,0.0,0.0,0.0,0.0,0.0,0.0,0.0,0.0,0.0,0.0,0.0,0.0,0.0,0.0,-0.7643,-0.7968,-0.8667,-0.9091,-0.9041,-0.8515,0.0,0.0,0.0,0.0,0.0,0.0,0.0,0.0,0.0,0.0,0.0,0.0,0.0,0.0,0.0,0.0,0.0,0.0,0.0,0.0,0.0,0.0,0.0,0.0,0.0,0.0,0.0,0.0,0.0,0.0,0.0,0.0,0.0,0.0,0.0,0.0,0.0,0.0,0.0,0.0,0.0,0.0,0.0,0.0,0.0,0.0,0.0,0.0,0.0,0.0,0.0,0.0,0.0,0.0,0.0,0.0,0.0,0.0,0.0,0.0,0.0,0.0,0.0,0.0,0.0,0.0,0.0,0.0,0.0,0.0,0.0,0.0,0.0,0.0,0.0,0.0,0.0,0.0,0.0,0.0,0.0,0.0,0.0,0.0,0.0,0.0,0.0,0.0,0.0,0.0,0.0,0.0,0.0,0.0,0.0,0.0,0.0,0.0,0.0,0.0,0.0,0.0,0.0,0.0,0.0,0.0,0.0,0.0,-0.8211,-0.8286,-0.8742,-0.9665,-0.9765,-0.9516,0.0,0.0,0.0,0.0,0.0,0.0,0.0,0.0,0.0,0.0,0.0,0.0,0.0,0.0,0.0,0.0,0.0,0.0,0.0,0.0,0.0,0.0,0.0,0.0,0.0,0.0,0.0,0.0,0.0,0.0,0.0,0.0,0.0,0.0,0.0,0.0,0.0,0.0,0.0,0.0,0.0,0.0,0.0,0.0,0.0,0.0,0.0,0.0,0.0,0.0,0.0,0.0,0.0,0.0,0.0,0.0,0.0,0.0,0.0,0.0,0.0,0.0,0.0,0.0,0.0,0.0,0.0,0.0,0.0,0.0,0.0,0.0,0.0,0.0,0.0,0.0,0.0,0.0,0.0,0.0,0.0,0.0,0.0,0.0,0.0,0.0,0.0,0.0,0.0,0.0,0.0,0.0,0.0,0.0,0.0,0.0,0.0,0.0,0.0,0.0,0.0,0.0,0.0,0.0,0.0,0.0,0.0,0.0,0.0,-0.8193,-0.8823,-0.9292,-0.9633,-0.9658,-0.9292,0.0,0.0,0.0,0.0,0.0,0.0,0.0,0.0,0.0,0.0,0.0,0.0,0.0,0.0,0.0,0.0,0.0,0.0,0.0,0.0,0.0,0.0,0.0,0.0,0.0,0.0,0.0,0.0,0.0,0.0,0.0,0.0,0.0,0.0,0.0,0.0,0.0,0.0,0.0,0.0,0.0,0.0,0.0,0.0,0.0,0.0,0.0,0.0,0.0,0.0,0.0,0.0,0.0,0.0,0.0,0.0,0.0,0.0,0.0,0.0,0.0,0.0,0.0,0.0,0.0,0.0,0.0,0.0,0.0,0.0,0.0,0.0,0.0,0.0,0.0,0.0,0.0,0.0,0.0,0.0,0.0,0.0,0.0,0.0,0.0,0.0,0.0,0.0,0.0,0.0,0.0,0.0,0.0,0.0,0.0,0.0,0.0,0.0,0.0,0.0,0.0,0.0,0.0,0.0,0.0,0.0,0.0,0.0,0.0,-0.8401,0.0,-0.9526,-0.9499,-0.9499,-0.9018,0.0,0.0,0.0,0.0,0.0,0.0,0.0,0.0,0.0,0.0,0.0,0.0,0.0,0.0,0.0,0.0,0.0,0.0,0.0,0.0,0.0,0.0,0.0,0.0,0.0,0.0,0.0,0.0,0.0,0.0,0.0,0.0,0.0,0.0,0.0,0.0,0.0,0.0,0.0,0.0,0.0,0.0,0.0,0.0,0.0,0.0,0.0,0.0,0.0,0.0,0.0,0.0,0.0,0.0,0.0,0.0,0.0,0.0,0.0,0.0,0.0,0.0,0.0,0.0,0.0,0.0,0.0,0.0,0.0,0.0,0.0,0.0,0.0,0.0,0.0,0.0,0.0,0.0,0.0,0.0,0.0,0.0,0.0,0.0,0.0,0.0,0.0,0.0,0.0,0.0,0.0,0.0,0.0,0.0,0.0,0.0,0.0,0.0,0.0,0.0,0.0,0.0,0.0,0.0,0.0,0.0,0.0,0.0,-0.7905,-0.8874,-0.9259,-0.9437,-0.9336,-0.9309,-0.8816,0.0,0.0,0.0,0.0,0.0,0.0,0.0,0.0,0.0,0.0,0.0,0.0,0.0,0.0,0.0,0.0,0.0,0.0,0.0,0.0,0.0,0.0,0.0,0.0,0.0,0.0,0.0,0.0,0.0,0.0,0.0,0.0,0.0,0.0,0.0,0.0,0.0,0.0,0.0,0.0,0.0,0.0,0.0,0.0,0.0,0.0,0.0,0.0,0.0,0.0,0.0,0.0,0.0,0.0,0.0,0.0,0.0,0.0,0.0,0.0,0.0,0.0,0.0,0.0,0.0,0.0,0.0,0.0,0.0,0.0,0.0,0.0,0.0,0.0,0.0,0.0,0.0,0.0,0.0,0.0,0.0,0.0,0.0,0.0,0.0,0.0,0.0,0.0,0.0,0.0,0.0,0.0,0.0,0.0,0.0,0.0,0.0,0.0,0.0,0.0,0.0,0.0,0.0,0.0,0.0,0.0,0.0,0.0,0.0,-0.9181,-0.9782,-1.0042,-0.9897,-0.9581,-0.908,0.0,0.0,0.0,0.0,0.0,0.0,0.0,0.0,0.0,0.0,0.0,0.0,0.0,0.0,0.0,0.0,0.0,0.0,0.0,0.0,0.0,0.0,0.0,0.0,0.0,0.0,0.0,0.0,0.0,0.0,0.0,0.0,0.0,0.0,0.0,0.0,0.0,0.0,0.0,0.0,0.0,0.0,0.0,0.0,0.0,0.0,0.0,0.0,0.0,0.0,0.0,0.0,0.0,0.0,0.0,0.0,0.0,0.0,0.0,0.0,0.0,0.0,0.0,0.0,0.0,0.0,0.0,0.0,0.0,0.0,0.0,0.0,0.0,0.0,0.0,0.0,0.0,0.0,0.0,0.0,0.0,0.0,0.0,0.0,0.0,0.0,0.0,0.0,0.0,0.0,0.0,0.0,0.0,0.0,0.0,0.0,0.0,0.0,0.0,0.0,0.0,0.0,0.0,0.0,0.0,0.0,0.0,0.0,0.0,-1.0316,-1.047,-1.0465,-1.0277,-0.9896,-0.9335,-0.8594,0.0,0.0,0.0,0.0,0.0,0.0,0.0,0.0,0.0,0.0,0.0,0.0,0.0,0.0,0.0,0.0,0.0,0.0,0.0,0.0,0.0,0.0,0.0,0.0,0.0,0.0,0.0,0.0,0.0,0.0,0.0,0.0,0.0,0.0,0.0,0.0,0.0,0.0,0.0,0.0,0.0,0.0,0.0,0.0,0.0,0.0,0.0,0.0,0.0,0.0,0.0,0.0,0.0,0.0,0.0,0.0,0.0,0.0,0.0,0.0,0.0,0.0,0.0,0.0,0.0,0.0,0.0,0.0,0.0,0.0,0.0,0.0,0.0,0.0,0.0,0.0,0.0,0.0,0.0,0.0,0.0,0.0,0.0,0.0,0.0,0.0,0.0,0.0,0.0,0.0,0.0,0.0,0.0,0.0,0.0,0.0,0.0,0.0,0.0,0.0,0.0,0.0,0.0,0.0,0.0,0.0,0.0,0.0,-1.2096,-1.1364,-1.0837,-1.0509,-1.0339,-0.9659,0.0,0.0,0.0,0.0,0.0,0.0,0.0,0.0,0.0,0.0,0.0,0.0,0.0,0.0,0.0,0.0,0.0,0.0,0.0,0.0,0.0,0.0,0.0,0.0,0.0,0.0,0.0,0.0,0.0,0.0,0.0,0.0,0.0,0.0,0.0,0.0,0.0,0.0,0.0,0.0,0.0,0.0,0.0,0.0,0.0,0.0,0.0,0.0,0.0,0.0,0.0,0.0,0.0,0.0,0.0,0.0,0.0,0.0,0.0,0.0,0.0,0.0,0.0,0.0,0.0,0.0,0.0,0.0,0.0,0.0,0.0,0.0,0.0,0.0,0.0,0.0,0.0,0.0,0.0,0.0,0.0,0.0,0.0,0.0,0.0,0.0,0.0,0.0,0.0,0.0,0.0,0.0,0.0,0.0,0.0,0.0,0.0,0.0,0.0,0.0,0.0,0.0,0.0,0.0,0.0,0.0,0.0,0.0,0.0,-1.3077,-1.2965,-1.2508,-1.1737,-1.094,-1.0193,0.0,0.0,0.0,0.0,0.0,0.0,0.0,0.0,0.0,0.0,0.0,0.0,0.0,0.0,0.0,0.0,0.0,0.0,0.0,0.0,0.0,0.0,0.0,0.0,0.0,0.0,0.0,0.0,0.0,0.0,0.0,0.0,0.0,0.0,0.0,0.0,0.0,0.0,0.0,0.0,0.0,0.0,0.0,0.0,0.0,0.0,0.0,0.0,0.0,0.0,0.0,0.0,0.0,0.0,0.0,0.0,0.0,0.0,0.0,0.0,0.0,0.0,0.0,0.0,0.0,0.0,0.0,0.0,0.0,0.0,0.0,0.0,0.0,0.0,0.0,0.0,0.0,0.0,0.0,0.0,0.0,0.0,0.0,0.0,0.0,0.0,0.0,0.0,0.0,0.0,0.0,0.0,0.0,0.0,0.0,0.0,0.0,0.0,0.0,0.0,0.0,0.0,0.0,0.0,0.0,0.0,0.0,0.0,-1.3113,-1.4189,-1.405,-1.3664,-1.3053,-1.1772,-1.0805,0.0,0.0,0.0,0.0,0.0,0.0,0.0,0.0,0.0,0.0,0.0,0.0,0.0,0.0,0.0,0.0,0.0,0.0,0.0,0.0,0.0,0.0,0.0,0.0,0.0,0.0,0.0,0.0,0.0,0.0,0.0,0.0,0.0,0.0,0.0,0.0,0.0,0.0,0.0,0.0,0.0,0.0,0.0,0.0,0.0,0.0,0.0,0.0,0.0,0.0,0.0,0.0,0.0,0.0,0.0,0.0,0.0,0.0,0.0,0.0,0.0,0.0,0.0,0.0,0.0,0.0,0.0,0.0,0.0,0.0,0.0,0.0,0.0,0.0,0.0,0.0,0.0,0.0,0.0,0.0,0.0,0.0,0.0,0.0,0.0,0.0,0.0,0.0,0.0,0.0,0.0,0.0,0.0,0.0,0.0,0.0,0.0,0.0,0.0,0.0,0.0,0.0,0.0,0.0,0.0,0.0,0.0,0.0,-1.4054,-1.5242,-1.472,-1.4376,-1.4212,-1.2701,-1.14,0.0,0.0,0.0,0.0,0.0,0.0,0.0,0.0,0.0,0.0,0.0,0.0,0.0,0.0,0.0,0.0,0.0,0.0,0.0,0.0,0.0,0.0,0.0,0.0,0.0,0.0,0.0,0.0,0.0,0.0,0.0,0.0,0.0,0.0,0.0,0.0,0.0,0.0,0.0,0.0,0.0,0.0,0.0,0.0,0.0,0.0,0.0,0.0,0.0,0.0,0.0,0.0,0.0,0.0,0.0,0.0,0.0,0.0,0.0,0.0,0.0,0.0,0.0,0.0,0.0,0.0,0.0,0.0,0.0,0.0,0.0,0.0,0.0,0.0,0.0,0.0,0.0,0.0,0.0,0.0,0.0,0.0,0.0,0.0,0.0,0.0,0.0,0.0,0.0,0.0,0.0,0.0,0.0,0.0,0.0,0.0,0.0,0.0,0.0,0.0,0.0,0.0,0.0,0.0,0.0,0.0,0.0,0.0,-1.4253,-1.5443,-1.4949,-1.457,-1.4531,-1.3077,-1.1792,0.0,0.0,0.0,0.0,0.0,0.0,0.0,0.0,0.0,0.0,0.0,0.0,0.0,0.0,0.0,0.0,0.0,0.0,0.0,0.0,0.0,0.0,0.0,0.0,0.0,0.0,0.0,0.0,0.0,0.0,0.0,0.0,0.0,0.0,0.0,0.0,0.0,0.0,0.0,0.0,0.0,0.0,0.0,0.0,0.0,0.0,0.0,0.0,-1.1399,0.0,0.0,0.0,0.0,0.0,0.0,0.0,0.0,0.0,0.0,0.0,0.0,0.0,0.0,0.0,0.0,0.0,0.0,0.0,0.0,0.0,0.0,0.0,0.0,0.0,0.0,0.0,0.0,0.0,0.0,0.0,0.0,0.0,0.0,0.0,0.0,0.0,0.0,0.0,0.0,0.0,0.0,0.0,0.0,0.0,0.0,0.0,0.0,0.0,0.0,0.0,0.0,0.0,0.0,0.0,0.0,0.0,0.0,0.0,-1.4696,-1.5911,-1.52,-1.478,-1.4637,-1.3573,-1.2408,0.0,0.0,0.0,0.0,0.0,0.0,0.0,0.0,0.0,0.0,0.0,0.0,0.0,0.0,0.0,0.0,0.0,0.0,0.0,0.0,0.0,0.0,0.0,0.0,0.0,0.0,0.0,0.0,0.0,0.0,0.0,0.0,0.0,0.0,0.0,0.0,0.0,0.0,0.0,0.0,0.0,0.0,0.0,0.0,0.0,0.0,0.0,0.0,0.0,0.0,0.0,0.0,0.0,0.0,0.0,0.0,0.0,0.0,0.0,0.0,0.0,0.0,0.0,0.0,0.0,0.0,0.0,0.0,0.0,0.0,0.0,0.0,0.0,0.0,0.0,0.0,0.0,0.0,0.0,0.0,0.0,0.0,0.0,0.0,0.0,0.0,0.0,0.0,0.0,0.0,0.0,0.0,0.0,0.0,0.0,0.0,0.0,0.0,0.0,0.0,0.0,0.0,0.0,0.0,0.0,0.0,0.0,-1.4088,-1.5132,-1.636,-1.5498,-1.4967,-1.4806,-1.4026,-1.2986,-1.1757,0.0,0.0,0.0,0.0,0.0,0.0,0.0,0.0,0.0,0.0,0.0,0.0,0.0,0.0,0.0,0.0,0.0,0.0,0.0,0.0,0.0,0.0,0.0,0.0,0.0,0.0,0.0,0.0,0.0,0.0,0.0,0.0,0.0,0.0,0.0,0.0,0.0,0.0,-1.032,-1.2128,0.0,0.0,0.0,0.0,0.0,0.0,0.0,0.0,-1.3148,0.0,0.0,0.0,0.0,0.0,0.0,0.0,0.0,0.0,0.0,0.0,0.0,0.0,0.0,0.0,0.0,0.0,0.0,0.0,0.0,0.0,0.0,0.0,0.0,0.0,0.0,0.0,0.0,0.0,0.0,0.0,0.0,0.0,0.0,0.0,0.0,0.0,0.0,0.0,0.0,0.0,0.0,0.0,0.0,0.0,0.0,0.0,0.0,0.0,0.0,0.0,0.0,0.0,0.0,0.0,0.0,-1.3198,-1.4163,-1.5323,-1.6686,-1.5887,-1.5384,-1.5341,-1.415,-1.3081,-1.2212,0.0,0.0,0.0,0.0,0.0,0.0,0.0,0.0,0.0,0.0,0.0,0.0,0.0,0.0,0.0,0.0,0.0,0.0,0.0,0.0,0.0,0.0,0.0,0.0,0.0,0.0,0.0,0.0,0.0,0.0,0.0,0.0,0.0,0.0,0.0,0.0,0.0,0.0,0.0,-1.3408,-1.4123,0.0,0.0,0.0,0.0,0.0,0.0,0.0,0.0,-1.4212,0.0,0.0,0.0,0.0,0.0,0.0,0.0,0.0,0.0,0.0,0.0,0.0,0.0,0.0,0.0,0.0,0.0,0.0,0.0,0.0,0.0,0.0,0.0,0.0,0.0,0.0,0.0,0.0,0.0,0.0,0.0,0.0,0.0,0.0,0.0,0.0,0.0,0.0,0.0,0.0,0.0,0.0,0.0,0.0,0.0,0.0,0.0,0.0,0.0,0.0,0.0,0.0,0.0,0.0,0.0,-1.3198,-1.42,-1.5282,-1.6455,-1.5969,-1.5586,-1.5383,-1.4384,-1.3434,0.0,0.0,0.0,0.0,0.0,0.0,0.0,0.0,0.0,0.0,0.0,0.0,0.0,0.0,0.0,0.0,0.0,0.0,0.0,0.0,0.0,0.0,0.0,0.0,0.0,0.0,0.0,0.0,0.0,0.0,0.0,0.0,0.0,0.0,0.0,0.0,0.0,0.0,0.0,0.0,-1.3961,-1.4601,-1.4878,0.0,0.0,0.0,0.0,0.0,0.0,-1.5065,-1.4828,0.0,0.0,0.0,0.0,0.0,0.0,0.0,0.0,0.0,0.0,0.0,0.0,0.0,0.0,0.0,0.0,0.0,0.0,0.0,0.0,0.0,0.0,0.0,0.0,0.0,0.0,0.0,0.0,0.0,0.0,0.0,0.0,0.0,0.0,0.0,0.0,0.0,0.0,0.0,0.0,0.0,0.0,0.0,0.0,0.0,0.0,0.0,0.0,0.0,0.0,0.0,0.0,0.0,0.0,0.0,-1.3348,-1.4275,-1.5215,-1.617,-1.6001,-1.5736,-1.54,-1.4554,-1.371,0.0,0.0,0.0,0.0,0.0,0.0,0.0,0.0,0.0,0.0,0.0,0.0,0.0,0.0,0.0,0.0,0.0,0.0,0.0,0.0,0.0,0.0,0.0,0.0,0.0,0.0,0.0,0.0,0.0,0.0,0.0,0.0,0.0,0.0,0.0,0.0,0.0,0.0,0.0,0.0,0.0,-1.5331,-1.5558,-1.5919,0.0,0.0,0.0,0.0,-1.612,-1.5819,0.0,0.0,0.0,0.0,0.0,0.0,0.0,0.0,0.0,0.0,0.0,0.0,0.0,0.0,0.0,0.0,0.0,0.0,0.0,0.0,0.0,0.0,0.0,0.0,0.0,0.0,0.0,0.0,0.0,0.0,0.0,0.0,0.0,0.0,0.0,0.0,0.0,0.0,0.0,0.0,0.0,0.0,0.0,0.0,0.0,0.0,0.0,0.0,0.0,0.0,0.0,0.0,0.0,0.0,0.0,0.0,-1.3946,-1.4601,-1.5377,-1.6343,-1.6349,-1.6132,-1.5736,-1.4612,-1.3743,0.0,0.0,0.0,0.0,0.0,0.0,0.0,0.0,0.0,0.0,0.0,0.0,0.0,0.0,0.0,0.0,0.0,0.0,0.0,0.0,0.0,0.0,0.0,0.0,0.0,0.0,0.0,0.0,0.0,0.0,0.0,0.0,0.0,0.0,0.0,0.0,0.0,0.0,0.0,0.0,0.0,-1.6697,-1.7677,-1.7877,-1.7903,0.0,0.0,-1.7852,-1.7903,-1.7852,0.0,0.0,0.0,0.0,0.0,0.0,0.0,0.0,0.0,0.0,0.0,0.0,0.0,0.0,0.0,0.0,0.0,0.0,0.0,0.0,0.0,0.0,0.0,0.0,0.0,0.0,0.0,0.0,0.0,0.0,0.0,0.0,0.0,0.0,0.0,0.0,0.0,0.0,0.0,0.0,0.0,0.0,0.0,0.0,0.0,0.0,0.0,0.0,0.0,0.0,0.0,0.0,0.0,0.0,0.0,-1.2436,-1.4047,-1.4626,-1.5392,-1.6386,-1.6436,-1.6262,-1.6069,-1.4708,-1.3796,0.0,0.0,0.0,0.0,0.0,0.0,0.0,0.0,0.0,0.0,0.0,0.0,0.0,0.0,0.0,0.0,0.0,0.0,0.0,0.0,0.0,0.0,0.0,0.0,0.0,0.0,0.0,0.0,0.0,0.0,0.0,0.0,0.0,0.0,0.0,0.0,0.0,0.0,0.0,0.0,0.0,0.0,-1.8505,-1.8932,0.0,0.0,0.0,-1.9233,-1.956,0.0,0.0,0.0,0.0,0.0,0.0,0.0,0.0,0.0,0.0,0.0,0.0,0.0,0.0,0.0,0.0,0.0,0.0,0.0,0.0,0.0,0.0,0.0,0.0,0.0,0.0,0.0,0.0,0.0,0.0,0.0,0.0,0.0,0.0,0.0,0.0,0.0,0.0,0.0,0.0,0.0,0.0,0.0,0.0,0.0,0.0,0.0,0.0,0.0,0.0,0.0,0.0,0.0,0.0,0.0,0.0,0.0,-1.4274,-1.4828,-1.5618,-1.6672,-1.651,-1.638,-1.6328,-1.4899,0.0,0.0,0.0,0.0,0.0,0.0,0.0,0.0,0.0,0.0,0.0,0.0,0.0,0.0,0.0,0.0,0.0,0.0,0.0,0.0,0.0,0.0,0.0,0.0,0.0,0.0,0.0,-0.6939,0.0,0.0,0.0,0.0,0.0,0.0,0.0,0.0,0.0,0.0,0.0,0.0,0.0,0.0,-1.8204,-1.9284,-1.9886,-2.0263,0.0,0.0,-2.0589,-2.1016,-2.0715,-2.0288,0.0,0.0,0.0,0.0,0.0,0.0,0.0,0.0,0.0,0.0,0.0,0.0,0.0,0.0,0.0,0.0,0.0,0.0,0.0,0.0,0.0,0.0,0.0,0.0,0.0,0.0,0.0,0.0,0.0,0.0,0.0,0.0,0.0,0.0,0.0,0.0,0.0,0.0,0.0,0.0,0.0,0.0,0.0,0.0,0.0,0.0,0.0,0.0,0.0,0.0,0.0,0.0,0.0,0.0,0.0,-1.4802,-1.5367,-1.6195,-1.725,-1.671,-1.651,-1.6706,-1.5251,-1.4075,0.0,0.0,0.0,0.0,0.0,0.0,0.0,0.0,0.0,0.0,0.0,0.0,0.0,0.0,0.0,0.0,0.0,0.0,0.0,0.0,0.0,0.0,0.0,0.0,0.0,0.0,0.0,0.0,0.0,0.0,0.0,0.0,0.0,0.0,0.0,0.0,0.0,0.0,0.0,0.0,0.0,-1.9309,-2.0467,-2.1041,-2.1543,0.0,0.0,-2.2146,-2.2196,-2.2171,-2.1619,-2.0062,0.0,0.0,0.0,0.0,0.0,0.0,0.0,0.0,0.0,0.0,0.0,0.0,0.0,0.0,0.0,0.0,0.0,0.0,0.0,0.0,0.0,0.0,0.0,0.0,0.0,0.0,0.0,0.0,0.0,0.0,0.0,0.0,0.0,0.0,0.0,0.0,0.0,0.0,0.0,0.0,0.0,0.0,0.0,0.0,0.0,0.0,0.0,0.0,0.0,0.0,0.0,0.0,0.0,-1.3232,-1.4878,-1.5743,-1.6597,-1.7325,-1.6925,-1.6675,-1.6686,-1.5033,-1.3842,0.0,0.0,0.0,0.0,0.0,0.0,0.0,0.0,0.0,0.0,0.0,0.0,0.0,0.0,0.0,0.0,0.0,0.0,0.0,0.0,0.0,0.0,0.0,0.0,0.0,0.0,0.0,0.0,-0.8776,-0.9095,-0.9492,0.0,0.0,0.0,0.0,0.0,0.0,0.0,0.0,0.0,0.0,-2.0564,-2.1995,-2.2673,0.0,0.0,-2.3853,-2.3853,-2.3853,-2.3577,-2.3025,-2.202,-2.1016,0.0,0.0,0.0,0.0,0.0,0.0,0.0,0.0,0.0,0.0,0.0,0.0,0.0,0.0,0.0,0.0,0.0,0.0,0.0,0.0,0.0,0.0,0.0,0.0,0.0,0.0,0.0,0.0,0.0,0.0,0.0,0.0,0.0,0.0,0.0,0.0,0.0,0.0,0.0,0.0,0.0,0.0,0.0,0.0,0.0,0.0,0.0,0.0,0.0,0.0,0.0,0.0,-1.3534,-1.4903,-1.612,-1.7049,-1.7626,-1.7279,-1.7046,-1.681,-1.5291,-1.4049,0.0,0.0,0.0,0.0,0.0,0.0,0.0,0.0,0.0,0.0,0.0,0.0,0.0,0.0,0.0,0.0,0.0,0.0,0.0,0.0,0.0,0.0,0.0,0.0,0.0,0.0,0.0,0.0,-0.9386,-0.9589,-1.0067,0.0,0.0,0.0,0.0,0.0,0.0,0.0,0.0,0.0,0.0,-2.1443,-2.2924,-2.3778,-2.4431,-2.4983,-2.5059,-2.4993,-2.4928,-2.4603,-2.4104,-2.3379,0.0,0.0,0.0,0.0,0.0,0.0,0.0,0.0,0.0,0.0,0.0,0.0,0.0,0.0,0.0,0.0,0.0,0.0,0.0,0.0,0.0,0.0,0.0,0.0,0.0,0.0,0.0,0.0,0.0,0.0,-0.9818,0.0,0.0,0.0,0.0,0.0,0.0,0.0,0.0,0.0,0.0,0.0,0.0,0.0,0.0,0.0,0.0,0.0,0.0,0.0,0.0,0.0,0.0,-1.4324,-1.4928,-1.6522,-1.7626,-1.8154,-1.7894,-1.7702,-1.746,-1.6192,-1.4896,-1.3696,0.0,0.0,0.0,0.0,0.0,0.0,0.0,0.0,0.0,0.0,0.0,0.0,0.0,0.0,0.0,0.0,0.0,0.0,0.0,0.0,0.0,0.0,0.0,0.0,0.0,0.0,-1.0718,-1.0616,-1.0529,0.0,0.0,0.0,0.0,0.0,0.0,0.0,0.0,0.0,0.0,-2.0439,-2.1895,-2.3,-2.4042,-2.5008,-2.5511,-2.5586,-2.5519,-2.5344,-2.5252,-2.4905,0.0,0.0,0.0,0.0,0.0,0.0,0.0,0.0,0.0,0.0,0.0,0.0,0.0,0.0,0.0,0.0,0.0,0.0,0.0,0.0,0.0,0.0,0.0,0.0,0.0,0.0,0.0,-1.1488,-1.1296,0.0,0.0,0.0,0.0,0.0,0.0,0.0,0.0,0.0,0.0,0.0,-1.5205,-1.5718,0.0,0.0,0.0,0.0,0.0,0.0,0.0,0.0,0.0,0.0,0.0,0.0,-1.4727,-1.5944,-1.7275,-1.8204,-1.8682,-1.8388,-1.8165,-1.7891,-1.6351,-1.473,-1.3139,0.0,0.0,0.0,0.0,0.0,0.0,0.0,0.0,0.0,0.0,0.0,0.0,0.0,0.0,0.0,0.0,0.0,0.0,0.0,0.0,0.0,0.0,0.0,0.0,0.0,-1.0407,0.0,0.0,0.0,0.0,0.0,0.0,0.0,0.0,0.0,0.0,0.0,-1.8656,-1.9936,-2.1543,-2.2975,-2.4104,-2.4883,-2.5661,0.0,0.0,0.0,0.0,0.0,0.0,0.0,0.0,0.0,0.0,0.0,0.0,0.0,0.0,-2.192,-2.0614,-1.9786,-1.9384,-1.9761,0.0,0.0,0.0,0.0,0.0,0.0,0.0,0.0,0.0,0.0,0.0,0.0,0.0,0.0,0.0,0.0,-1.2456,0.0,0.0,0.0,0.0,0.0,0.0,0.0,0.0,-1.5869,-1.6396,-1.6572,-1.6948,-1.681,0.0,-1.6182,-1.5513,0.0,0.0,0.0,0.0,0.0,0.0,0.0,0.0,-1.5442,-1.6479,-1.7827,-1.8656,-1.8958,-1.8907,-1.8653,-1.8256,-1.6394,-1.4653,-1.3114,-1.2243,-1.1424,0.0,0.0,0.0,0.0,0.0,0.0,0.0,0.0,0.0,0.0,0.0,0.0,0.0,0.0,0.0,0.0,0.0,0.0,0.0,0.0,0.0,0.0,0.0,-1.1317,0.0,0.0,0.0,0.0,0.0,0.0,0.0,0.0,0.0,-1.7355,-1.8681,-2.0062,-2.1343,-2.2799,-2.4054,-2.4983,0.0,0.0,0.0,0.0,0.0,0.0,0.0,-2.6327,-2.6188,-2.5535,-2.5194,-2.5611,-2.5686,-2.5837,-2.6364,0.0,0.0,-2.3301,-2.2472,-2.2221,-2.2573,-2.2498,-2.2498,-2.2849,-2.3351,-2.3853,0.0,0.0,0.0,0.0,0.0,0.0,0.0,0.0,-1.4702,-1.4662,0.0,-1.4167,0.0,0.0,0.0,0.0,0.0,0.0,0.0,0.0,-1.72,-1.7752,-1.8254,-1.8304,-1.8232,-1.8039,-1.7567,-1.7177,-1.6843,-1.4962,0.0,0.0,0.0,0.0,0.0,0.0,-1.6547,-1.6672,-1.8157,-1.8983,-1.9083,-1.9407,-1.9253,-1.8458,-1.6466,-1.4822,-1.3635,-1.2996,-1.2303,-1.1645,-1.0842,0.0,0.0,0.0,0.0,0.0,0.0,0.0,0.0,0.0,0.0,0.0,0.0,0.0,0.0,0.0,0.0,0.0,0.0,0.0,0.0,-1.1756,0.0,0.0,0.0,0.0,0.0,0.0,0.0,0.0,0.0,0.0,-1.9133,-2.0087,-2.1343,-2.2924,0.0,0.0,0.0,0.0,-2.7293,-2.7344,-2.777,-2.8024,-2.7877,-2.7779,-2.7754,-2.7754,0.0,0.0,-2.7369,-2.7394,-2.762,-2.8122,-2.8222,-2.7695,-2.6088,-2.5285,-2.4883,-2.4908,-2.5234,-2.5611,-2.5686,-2.6013,-2.6465,-1.8129,0.0,0.0,0.0,0.0,-1.5743,-1.5819,-1.5819,-1.5969,-1.5966,-1.5808,-1.5809,0.0,0.0,0.0,0.0,0.0,0.0,-1.725,-1.8329,-1.8857,-1.9409,-1.9987,-2.0363,-2.0179,-1.9596,-1.9423,-1.8802,-1.7823,-1.7433,-1.6416,-1.4844,0.0,0.0,0.0,0.0,-1.7099,-1.8254,-1.8733,-1.9208,-1.956,-1.9581,-1.9098,-1.8001,-1.6928,-1.588,-1.4919,-1.399,-1.325,-1.2688,-1.1998,0.0,0.0,0.0,0.0,0.0,0.0,0.0,0.0,0.0,0.0,0.0,0.0,0.0,0.0,0.0,0.0,0.0,0.0,0.0,-1.2245,-1.317,-1.3641,0.0,0.0,0.0,0.0,0.0,0.0,0.0,0.0,0.0,-2.1788,-2.2221,-2.2749,0.0,0.0,-2.5586,-2.6138,-2.6816,-2.757,-2.8348,0.0,0.0,0.0,-2.82,-2.795,-2.7779,-2.8475,-2.8975,-2.9076,-2.9704,-3.0256,-3.0407,-3.0432,-3.0281,-2.9754,-2.7971,-2.6816,-2.7042,-2.6992,-2.6942,-2.7318,-2.7846,-2.8348,-2.1167,-1.9008,-1.8179,-1.7827,-1.7827,-1.7827,-1.7827,-1.7827,-1.7827,-1.7811,-1.7803,-1.7823,-1.7622,-1.7339,-1.7343,0.0,0.0,0.0,-1.9032,-1.971,-2.0464,-2.0966,-2.1343,-2.1895,-2.1731,-2.0927,-2.0927,-2.0428,-1.9356,-1.9371,-1.8709,-1.7492,0.0,0.0,-1.7174,-1.74,-1.8003,-1.8933,-1.9233,-1.9484,-1.9786,-1.9552,-1.8988,-1.7996,-1.7209,-1.6436,-1.5627,-1.4533,-1.3711,-1.3352,-1.2586,-1.1699,0.0,0.0,0.0,0.0,0.0,0.0,0.0,0.0,0.0,0.0,0.0,-0.8911,-0.9266,0.0,0.0,0.0,-1.0979,-1.2039,-1.326,-1.39,0.0,0.0,0.0,0.0,0.0,0.0,0.0,-1.9936,-2.1267,-2.2573,-2.3653,-2.418,-2.4582,-2.4933,-2.5711,-2.6465,-2.7042,0.0,-2.8172,-2.8825,-2.885,-2.89,-2.9349,-2.9251,-2.9101,-2.9199,-2.9852,-3.0407,-3.0457,-3.0984,-3.1361,-3.1386,-3.1386,-3.1386,-3.1386,-3.0005,-2.9001,-2.9327,-2.9151,-2.9051,-2.9352,-2.9654,-3.0005,-2.3828,-2.3015,-2.1066,-2.0137,-2.0062,-2.0062,-2.0062,-2.0062,-2.0087,-2.0067,-2.0092,-2.0042,-2.0069,-2.0009,-2.0023,0.0,-2.0037,-2.0589,-2.0945,-2.102,-2.197,-2.2472,-2.2523,-2.2965,-2.288,-2.2288,-2.2288,-2.1931,-2.1247,-2.0866,-2.0677,-2.0528,-1.9183,-1.843,-1.843,-1.8907,-1.9183,-1.9183,-1.971,-1.9911,-1.9834,-1.9497,-1.897,-1.8333,-1.739,-1.6633,-1.6018,-1.4707,-1.3932,-1.3739,-1.2822,-1.1934,-1.1074,0.0,0.0,0.0,0.0,0.0,0.0,0.0,0.0,0.0,0.0,0.0,0.0,0.0,0.0,0.0,-1.197,0.0,-1.3689,-1.4324,0.0,0.0,0.0,-1.7726,-1.8068,-1.9626,-2.0926,-2.1619,0.0,0.0,-2.4757,0.0,-2.654,-2.6659,-2.7042,-2.7544,-2.8097,-2.8574,-2.895,-2.9001,-2.9478,-3.0005,-3.0407,-3.0532,-3.0708,-3.111,-3.1436,-3.1411,-3.1436,-3.1537,-3.1537,-3.1587,-3.1537,-3.1562,-3.1537,-3.1486,-3.1512,-3.1461,-3.1361,-3.1311,-3.1235,-3.1286,-3.1361,-2.531,-2.4381,-2.3853,-2.3125,-2.2289,-2.2289,-2.2347,-2.2347,-2.2289,-2.2311,-2.2296,-2.2299,-2.2081,-2.1716,-2.1738,-2.1719,-2.1744,-2.2297,-2.2799,-2.3226,-2.3477,-2.3803,-2.423,-2.4356,-2.4229,-2.4002,-2.4002,-2.3418,-2.2321,-2.2328,-2.1915,-2.1095,-2.0861,-2.0514,-2.0112,-2.0213,-2.0489,-2.0891,-2.1016,-2.0836,-2.0329,-2.0089,-1.957,-1.8703,-1.8001,-1.7389,-1.6894,-1.5758,-1.4907,-1.4405,-1.3629,-1.2812,-1.1908,-1.1172,0.0,0.0,0.0,0.0,0.0,0.0,0.0,0.0,0.0,-1.0599,-1.0887,0.0,-1.2258,0.0,-1.3431,-1.4429,-1.52,-1.6093,0.0,0.0,-1.8518,-1.9546,-2.0419,-2.1592,-2.2596,-2.3351,-2.4356,-2.5109,-2.5385,-2.6389,-2.7243,-2.7645,-2.7821,-2.8122,-2.8649,-2.8825,-2.9101,-2.9528,-3.003,-3.0457,-3.0633,-3.0959,-3.126,-3.1361,-3.1738,-3.2014,-3.2014,-3.239,-3.2692,-3.2667,-3.2692,-3.2692,-3.2641,-3.2692,-3.2667,-3.2616,-3.1989,-3.1386,-3.1386,-3.1712,-3.2014,-2.6911,-2.6289,-2.6289,-2.5912,-2.5285,-2.4305,-2.3879,-2.3879,-2.3816,-2.3862,-2.3859,-2.3816,-2.3666,-2.3452,-2.3427,-2.3427,-2.3452,-2.3753,-2.4054,-2.4381,-2.4582,-2.4883,-2.5184,-2.5435,-2.5344,-2.5053,-2.5053,-2.4539,-2.3679,-2.3717,-2.3329,-2.2505,-2.2539,-2.2322,-2.1769,-2.1267,-2.1247,-2.1468,-2.1493,-2.1231,-2.0711,-2.03,-1.9648,-1.8869,-1.8011,-1.7401,-1.6955,-1.5974,-1.5239,-1.4794,-1.4004,-1.3203,-1.2539,-1.1875,-1.1211,0.0,0.0,0.0,0.0,0.0,0.0,0.0,0.0,0.0,0.0,0.0,-1.3128,0.0,-1.4623,-1.5493,-1.6059,-1.7081,-1.8084,-1.9024,-2.0145,-2.1277,-2.2288,-2.3193,-2.3979,-2.4657,-2.5234,-2.5787,-2.6289,-2.7092,-2.7846,-2.8398,-2.8699,-2.8976,-2.9227,-2.9302,-2.9428,-2.9754,-3.0256,-3.0809,-3.1235,-3.1788,-3.2139,-3.2164,-3.239,-3.2591,-3.2616,-3.2867,-3.3093,-3.3093,-3.3093,-3.3093,-3.3093,-3.3093,-3.3093,-3.2993,-3.2591,-3.219,-3.2139,-3.2566,-3.2968,-2.8366,-2.8122,-2.8097,-2.8122,-2.7971,-2.6063,-2.5234,-2.5234,-2.5234,-2.5234,-2.5219,-2.5252,-2.5247,-2.5259,-2.5159,-2.5134,-2.5134,-2.5059,-2.5034,-2.5059,-2.5511,-2.5711,-2.5737,-2.6214,-2.6214,-2.5711,-2.5711,-2.5435,-2.4933,-2.4933,-2.4632,-2.413,-2.4104,-2.3853,-2.3265,-2.2322,-2.1769,-2.1694,-2.1694,-2.1499,-2.1141,-2.0451,-1.9713,-1.8987,-1.7958,-1.7188,-1.6673,-1.5848,-1.529,-1.4988,-1.4135,-1.3477,-1.3066,-1.2637,-1.2005,0.0,-1.1191,0.0,0.0,0.0,0.0,0.0,0.0,0.0,0.0,-1.3273,-1.3826,-1.4826,-1.5754,-1.6427,-1.683,-1.7829,-1.9028,-2.0358,-2.1643,-2.2809,-2.3853,-2.4503,-2.5094,-2.567,-2.5812,-2.6214,-2.7218,-2.7871,-2.8398,-2.885,-2.9352,-2.9679,-2.9779,-2.9754,-2.9754,-2.9779,-3.0331,-3.1135,-3.2064,-3.2692,-3.3018,-3.3043,-3.3018,-3.3093,-3.3043,-3.3068,-3.3093,-3.3093,-3.3093,-3.3093,-3.3093,-3.3093,-3.3093,-3.3068,-3.3018,-3.2993,-3.3043,-3.342,-3.3872,-2.8915,-2.8315,-2.817,-2.8122,-2.8072,-2.767,-2.7494,-2.7469,-2.7494,-2.7494,-2.7519,-2.7457,-2.7481,-2.7444,-2.7017,-2.6816,-2.6791,-2.6339,-2.6138,-2.6231,-2.6239,-2.6357,-2.6357,-2.6414,-2.6483,-2.6289,-2.6289,-2.6013,-2.546,-2.546,-2.5184,-2.4682,-2.4657,-2.4607,-2.4481,0.0,0.0,0.0,-2.2824,-2.248,-2.1906,-2.1608,-2.0855,-1.9506,-1.8917,0.0,-1.6976,-1.6363,-1.5782,-1.5028,-1.4684,0.0,0.0,0.0,0.0,0.0,0.0,0.0,0.0,0.0,0.0,0.0,-1.3998,-1.4037,-1.3841,-1.4687,-1.5654,-1.6608,-1.7032,-1.7691,-1.8746,-1.9563,-2.0538,-2.1806,-2.274,-2.3664,-2.473,-2.4969,-2.5456,-2.6606,-2.6731,-2.7051,-2.7846,-2.8423,-2.88,-2.8976,-2.9428,-2.9754,-2.9779,-2.9779,-2.9779,-2.9854,-3.0633,-3.1612,-3.2742,-3.2993,-3.3093,-3.3093,-3.3093,-3.3093,-3.3093,-3.3093,-3.3093,-3.3093,-3.3093,-3.3093,-3.3093,-3.3093,-3.3119,-3.3093,-3.3093,-3.3093,-3.3093,-3.352,-3.3897,-3.0051,0.0,-2.9225,-2.9076,0.0,-2.9026,-2.8925,-2.89,-2.8348,-2.8122,-2.8122,-2.8126,-2.8101,-2.8097,-2.7821,-2.7695,-2.767,-2.7394,-2.7268,-2.7268,-2.7268,-2.7268,-2.7268,-2.7293,-2.7268,-2.7268,-2.7268,-2.6992,-2.644,-2.6414,-2.6013,-2.5209,-2.5209,-2.5084,-2.4808,-2.4531,-2.3979,-2.309,-2.3125,-2.288,-2.2511,-2.212,-2.135,-2.0239,0.0,0.0,0.0,0.0,0.0,0.0,0.0,0.0,0.0,0.0,0.0,-1.4434,-1.4258,-1.4141,-1.4141,-1.4531,-1.4863,-1.5078,-1.5703,-1.5822,-1.5103,-1.5891,-1.6656,-1.7327,-1.7718,-1.8383,-1.9444,-2.0221,-2.1217,-2.257,-2.321,-2.3997,-2.505,-2.553,-2.6037,-2.6742,-2.716,-2.7678,-2.8374,-2.8725,-2.9051,-2.9327,-2.9603,-2.9779,-2.9779,-2.9779,-2.993,-3.0482,-3.0984,-3.1788,-3.2817,-3.3093,-3.3093,-3.3093,-3.3093,-3.3093,-3.3093,-3.3093,-3.3093,-3.3093,-3.3093,-3.3144,-3.342,-3.347,-3.3571,-3.3822,-3.3897,-3.3897,-3.3897,-3.4123,-3.4399,-3.1272,-3.0823,-3.047,-3.0216,-3.0139,-2.9934,-2.9882,-2.9729,0.0,0.0,0.0,-2.8375,-2.835,-2.8398,-2.8298,-2.8247,-2.8247,-2.8147,-2.8122,-2.8122,-2.8122,-2.8122,-2.8122,-2.8122,-2.8122,-2.8122,-2.8122,-2.7871,-2.7444,-2.7444,-2.6917,-2.5988,-2.5887,-2.5586,-2.5008,-2.4958,-2.4456,-2.3477,-2.3366,-2.3391,-2.3243,-2.2575,-2.1896,-2.1199,-2.0178,-1.9164,-1.815,-1.7781,-1.7164,-1.6314,-1.59,-1.5644,-1.5625,-1.5312,-1.5273,-1.5605,-1.5644,-1.5684,-1.5762,-1.6094,-1.6367,-1.6566,-1.7266,-1.7344,-1.6547,-1.6987,-1.7486,-1.7922,-1.8434,-1.9021,-1.9795,-2.061,-2.1674,-2.2969,-2.3603,-2.4284,-2.5207,-2.5997,-2.6505,-2.6944,-2.7508,-2.8176,-2.8925,-2.9101,-2.9252,-2.9654,-2.9779,-2.9854,-2.993,-2.998,-3.0281,-3.111,-3.1461,-3.1938,-3.2767,-3.3093,-3.3093,-3.3093,-3.3093,-3.3093,-3.3093,-3.3169,-3.3219,-3.3269,-3.3294,-3.3571,-3.3947,-3.4048,-3.4198,-3.4625,-3.4726,-3.4751,-3.4851,-3.4851,-3.5002,-3.1982,-3.1589,-3.1123,-3.0672,-3.0368,-3.0139,-2.9934,-2.9779,-2.9628,-2.9553,-2.9553,-2.9578,-2.9603,-2.9528,-2.9026,-2.8825,-2.8775,-2.8323,-2.8122,0.0,-2.8122,-2.8122,-2.8122,-2.8122,-2.8122,-2.8122,-2.8122,-2.8072,-2.7996,-2.7996,-2.767,-2.7092,-2.7042,-2.6515,-2.5586,-2.5485,-2.5184,-2.4607,-2.4582,-2.4518,-2.4518,-2.3841,-2.3071,-2.2299,-2.1246,-2.0007,-1.8659,-1.8272,-1.7739,-1.6934,-1.6812,-1.673,-1.6543,-1.6504,-1.6484,-1.648,-1.6543,-1.6719,-1.707,-1.7168,-1.7519,-1.8223,-1.873,-1.8652,-1.7832,-1.8242,-1.8834,-1.9271,-1.9493,-1.9857,-2.0573,-2.1188,-2.2005,-2.3143,-2.4135,-2.4974,-2.5413,-2.6107,-2.6884,-2.7648,-2.8071,-2.8571,-2.9426,-2.9628,-2.9628,-2.9754,-2.9854,-2.998,-3.0382,-3.0507,-3.0733,-3.1286,-3.1813,-3.234,-3.2918,-3.3093,-3.3093,-3.3093,-3.3093,-3.3144,-3.3144,-3.352,-3.3771,-3.3796,-3.4098,-3.4424,-3.46,-3.46,-3.4675,-3.4826,-3.4851,-3.4951,-3.5328,-3.5429,-3.5454,-3.2747,-3.239,-3.1736,-3.132,-3.1048,-3.0622,-3.0241,-2.9934,-2.9934,-2.9934,-2.9779,-2.9779,-2.9779,-2.9779,-2.9528,-2.9402,-2.9377,-2.9126,-2.9026,-2.9026,-2.9026,-2.9026,-2.9026,-2.9026,-2.9026,-2.9026,-2.9026,-2.885,-2.8574,-2.8549,-2.8122,-2.7318,-2.6992,-2.6565,-2.6088,-2.6063,-2.5963,-2.5711,-2.5134,-2.4833,-2.4808,-2.4429,-2.3988,-2.3335,-2.2775,-2.1836,-2.051,-2.0096,-1.9396,-1.8308,-1.8175,-1.7974,-1.7754,-1.7773,-1.7871,-1.8105,-1.8125,-1.8203,-1.8398,-1.8418,-1.8574,-1.8965,-1.9394,-1.957,-1.9414,-1.9213,-1.9305,-1.9738,-1.9851,-2.0103,-2.0767,-2.1261,-2.205,-2.3048,-2.3819,-2.4574,-2.5348,-2.6193,-2.6978,-2.7734,-2.8334,-2.9015,-2.9677,-2.9779,-2.9779,-2.9804,-3.003,-3.0432,-3.0959,-3.1311,-3.1562,-3.1813,-3.2064,-3.2441,-3.2968,-3.3093,-3.3093,-3.3093,-3.3345,-3.3495,-3.3571,-3.3972,-3.4299,-3.4349,-3.4575,-3.4826,-3.5077,-3.5177,-3.5278,-3.5579,-3.5604,-3.5755,-3.5931,-3.5981,-3.5981,-3.3589,-3.3199,-3.2461,-3.2028,-3.169,-3.1048,-3.0622,-3.0318,-3.0241,-3.0088,-2.9856,-2.9882,-2.9779,-2.9779,-2.9779,-2.9779,-2.9779,-2.9779,-2.9779,-2.9779,-2.9779,-2.9779,-2.9779,-2.9779,-2.9779,-2.9779,-2.9779,-2.9553,-2.9151,-2.9126,-2.8574,-2.7519,-2.6917,-2.659,-2.6533,-2.6533,-2.6533,-2.6458,-2.5611,-2.5184,-2.5184,-2.5084,-2.4788,-2.4328,-2.3983,-2.3313,-2.2229,-2.1768,-2.0898,-1.9725,-1.9424,-1.9213,-1.886,-1.886,-1.8945,-1.9238,-1.9277,-1.9375,-1.9551,-1.9668,-1.9766,-1.9883,-2.0176,-2.0508,-2.0762,-2.0273,-2.0,-2.0293,-2.0391,-2.0605,-2.1076,-2.1507,-2.2175,-2.3076,-2.3772,-2.4615,-2.5542,-2.6493,-2.727,-2.7921,-2.8626,-2.9287,-2.9727,-2.9905,-3.0055,-3.0256,-3.0633,-3.1135,-3.1537,-3.2039,-3.2365,-3.2416,-3.2416,-3.2591,-3.3018,-3.3219,-3.3269,-3.3269,-3.3746,-3.4022,-3.4173,-3.455,-3.4876,-3.4926,-3.5052,-3.5303,-3.5655,-3.573,-3.5881,-3.6157,-3.6232,-3.6307,-3.6307,-3.6332,-3.6358,-3.4332,-3.3991,-3.352,-3.2818,-3.2055,-3.1468,-3.1097,-3.0898,-3.0698,-3.047,-3.0088,-2.9856,-2.9779,-2.9779,-2.9779,-2.9779,-2.9779,-2.9779,-2.9779,-2.9779,-2.9779,-2.9779,-2.9779,-2.9779,-2.9779,-2.9779,-2.9779,-2.9754,-2.9654,-2.9654,-2.9126,-2.8097,-2.7469,-2.6967,-2.6609,-2.6533,-2.6533,-2.6533,-2.6364,-2.6382,-2.6264,-2.5787,-2.5469,-2.5269,-2.4467,-2.367,-2.298,-2.2389,-2.1651,-2.0744,-2.0481,-2.0104,-1.9601,-1.9528,-1.9476,-1.9336,-1.9316,-1.9609,-2.0371,-2.082,-2.1191,-2.1602,-2.1602,-2.166,-2.1738,-2.168,-2.1641,-2.166,-2.168,-2.1641,-2.184,-2.2271,-2.2837,-2.3423,-2.4486,-2.5619,-2.6246,-2.7162,-2.8051,-2.8639,-2.8949,-2.9287,-2.9827,-3.0256,-3.0708,-3.111,-3.1537,-3.1938,-3.2139,-3.2566,-3.2893,-3.2943,-3.2993,-3.2993,-3.3119,-3.352,-3.3696,-3.3822,-3.4274,-3.4575,-3.4751,-3.5077,-3.5479,-3.5504,-3.5805,-3.6081,-3.6157,-3.6282,-3.6257,-3.6307,-3.6358,-3.6358,-3.6358,-3.6358,-3.6358,-3.4802,-3.4534,-3.4167,-3.3548,-3.2846,-3.2561,-3.2101,-3.1643,-3.1468,-3.1097,-3.0622,-3.0318,-3.0011,-2.9779,-2.9779,-2.9779,-2.9779,-2.9779,-2.9779,-2.9779,-2.9779,-2.9779,-2.9779,-2.9779,-2.9779,-2.9779,-2.9779,-2.9779,-2.9729,-2.9453,-2.9026,-2.8574,-2.8021,-2.7645,-2.7419,-2.7118,-2.6942,-2.6942,-2.6615,-2.6533,-2.6508,-2.6214,-2.6045,-2.5841,-2.5345,-2.4812,-2.4235,-2.3699,-2.301,-2.2121,-2.1681,-2.1288,-2.0948,-2.0814,-2.0779,-2.0801,-2.082,-2.0977,-2.1309,-2.1523,-2.1699,-2.1894,-2.1894,-2.1973,-2.2227,-2.2266,-2.2344,-2.2519,-2.2168,-2.1977,-2.206,-2.2451,-2.2941,-2.3761,-2.4566,-2.5355,-2.64,-2.707,-2.7753,-2.8498,-2.9187,-2.9806,-3.0278,-3.0733,-3.126,-3.1763,-3.2114,-3.2365,-3.2667,-3.2943,-3.3043,-3.3093,-3.3093,-3.3093,-3.3144,-3.3545,-3.3847,-3.4048,-3.465,-3.5203,-3.5278,-3.568,-3.6031,-3.6006,-3.6207,-3.6358,-3.6332,-3.6358,-3.6358,-3.6358,-3.6358,-3.6358,-3.6358,-3.6358,-3.6358,-3.5251,-3.523,-3.5039,-3.4715,-3.4199,-3.4129,-3.3592,-3.2808,-3.2491,-3.1971,-3.1198,-3.0898,-3.0547,-3.0291,-2.9932,-2.9779,-2.9779,-2.9779,-2.9779,-2.9779,-2.9779,-2.9779,-2.9779,-2.9779,-2.9779,-2.9779,-2.9779,-2.9779,-2.9754,-2.9402,-2.9101,-2.89,-2.8524,-2.8247,-2.8072,-2.7695,-2.7519,-2.7469,-2.7092,-2.6892,-2.6917,-2.6917,-2.6771,-2.6507,-2.6272,-2.5968,-2.5589,-2.5104,-2.4443,-2.3771,-2.3243,-2.278,-2.2388,-2.219,-2.2029,-2.2001,-2.1958,-2.1934,-2.2051,-2.2051,-2.2109,-2.2207,-2.2227,-2.2344,-2.2617,-2.2695,-2.2812,-2.3008,-2.2578,-2.235,-2.2562,-2.2812,-2.337,-2.4325,-2.4785,-2.571,-2.6707,-2.7401,-2.8222,-2.8955,-2.9805,-3.0424,-3.0979,-3.1411,-3.1813,-3.234,-3.2591,-3.2792,-3.3169,-3.3319,-3.3319,-3.3294,-3.3194,-3.3169,-3.3294,-3.3822,-3.4073,-3.4525,-3.5228,-3.5755,-3.578,-3.6157,-3.6358,-3.6207,-3.6332,-3.6358,-3.6358,-3.6358,-3.6358,-3.6358,-3.6358,-3.6358,-3.6358,-3.6358,-3.6458,-3.5717,-3.6141,-3.6358,-3.6394,-3.6383,-3.607,-3.5325,-3.4356,-3.4068,-3.3083,-3.199,-3.1669,-3.1514,-3.1423,-3.0495,-2.9829,-2.9829,-2.988,-2.988,-2.988,-2.988,-2.9804,-2.9779,-2.9779,-2.9779,-2.9779,-2.9779,-2.9779,-2.9779,-2.9754,-2.9478,-2.8976,-2.8925,-2.8649,-2.8247,-2.8122,-2.8072,-2.8047,-2.7971,-2.7971,-2.7971,-2.7996,-2.772,-2.7272,-2.6887,-2.6821,-2.6942,-2.6514,-2.6036,-2.5678,-2.5147,-2.4569,-2.3844,-2.3524,-2.3001,-2.2327,-2.2079,-2.209,-2.2422,-2.248,-2.2637,-2.2969,-2.2988,-2.3066,-2.3027,-2.3047,-2.3086,-2.3125,-2.3086,-2.3134,-2.3394,-2.3786,-2.4255,-2.485,-2.6086,-2.6923,-2.7476,-2.8434,-2.9521,-3.0084,-3.0572,-3.1174,-3.1955,-3.2139,-3.2441,-3.2943,-3.347,-3.3796,-3.3822,-3.3872,-3.3872,-3.3771,-3.3545,-3.3269,-3.3796,-3.4198,-3.4776,-3.5203,-3.5604,-3.6257,-3.6332,-3.6358,-3.6358,-3.6358,-3.6358,-3.6358,-3.6358,-3.6358,-3.6358,-3.6358,-3.6358,-3.6358,-3.6533,-3.6433,-3.6584,-3.6507,-3.6939,-3.7109,-3.706,-3.699,-3.688,-3.6453,-3.5867,-3.5511,-3.4937,-3.4158,-3.354,-3.3225,-3.3031,-3.2305,-3.1602,-3.1153,-3.1073,-3.0968,-3.0809,-3.0809,-3.0633,-3.0306,-3.034,-3.0085,-2.9804,-2.9779,-2.9779,-2.9779,-2.9779,-2.9704,-2.9528,-2.9478,-2.9377,-2.9151,-2.8825,-2.8624,-2.8599,-2.8298,-2.8122,-2.8147,-2.8122,-2.8147,-2.8298,-2.7704,-2.7434,-2.7558,-2.7136,-2.6761,-2.6382,-2.5977,-2.5496,-2.4938,-2.4612,-2.42,-2.3676,-2.3442,-2.3458,-2.3493,-2.3275,-2.3162,-2.328,-2.3232,-2.3164,-2.3144,-2.3144,-2.3144,-2.3184,-2.3418,-2.3713,-2.4087,-2.4439,-2.4877,-2.5527,-2.6498,-2.7413,-2.7869,-2.8694,-2.9494,-3.0218,-3.1023,-3.1997,-3.2506,-3.2767,-3.2993,-3.3495,-3.3796,-3.4048,-3.4349,-3.4424,-3.4424,-3.4399,-3.4274,-3.4324,-3.4876,-3.4726,-3.4901,-3.5454,-3.5931,-3.6207,-3.6358,-3.6358,-3.6358,-3.6358,-3.6358,-3.6358,-3.6358,-3.6358,-3.6358,-3.6358,-3.6358,-3.6508,-3.6835,-3.6759,-3.7061,-3.7345,-3.7734,-3.7973,-3.7993,-3.7923,-3.7953,-3.7594,-3.7105,-3.6821,-3.6346,-3.5739,-3.5096,-3.4835,-3.4623,-3.419,-3.3621,-3.2927,-3.2239,-3.1792,-3.1549,-3.1468,-3.121,-3.0884,-3.0899,-3.0643,-3.041,-3.0306,-3.0306,-3.0306,-3.0306,-3.0306,-3.0306,-3.0306,-3.0206,-3.0005,-2.9654,-2.9402,-2.9176,-2.8825,-2.8674,-2.8649,-2.8649,-2.8825,-2.9076,-2.8675,-2.84,-2.8325,-2.8049,-2.7746,-2.7493,-2.7162,-2.6706,-2.6174,-2.5605,-2.5105,-2.4914,-2.468,-2.4464,-2.4358,-2.4013,-2.3901,-2.3954,-2.3624,-2.3467,-2.3604,-2.3644,-2.3644,-2.3722,-2.4058,-2.4526,-2.4925,-2.5454,-2.5941,-2.632,-2.7194,-2.7988,-2.8429,-2.9201,-3.0013,-3.0882,-3.1868,-3.2657,-3.3194,-3.3319,-3.3621,-3.4098,-3.4299,-3.46,-3.4901,-3.5002,-3.4977,-3.4977,-3.4776,-3.4901,-3.5228,-3.5177,-3.5303,-3.5805,-3.6006,-3.6257,-3.6358,-3.6358,-3.6358,-3.6358,-3.6358,-3.6358,-3.6358,-3.6358,-3.6383,-3.6383,-3.6408,-3.6508,-3.6835,-3.7136,-3.7538,-3.8362,-3.8482,-3.911,-3.929,-3.9158,-3.9158,-3.8919,-3.8198,-3.7997,-3.7315,-3.6648,-3.6187,-3.6151,-3.6043,-3.5823,-3.5586,-3.4982,-3.3354,-3.2294,-3.1996,-3.17,-3.1568,-3.1468,-3.1453,-3.1377,-3.1235,-3.1336,-3.1311,-3.1235,-3.121,-3.1235,-3.1311,-3.1235,-3.0984,-3.0633,-3.0532,-3.0306,-2.9955,-2.9804,-2.9779,-2.9779,-2.9729,-2.9704,-2.9729,-2.9679,-2.9551,-2.9344,-2.911,-2.9008,-2.8929,-2.8773,-2.8371,-2.7441,-2.6588,-2.5924,-2.5946,-2.5549,-2.5232,-2.5062,-2.4849,-2.4861,-2.4866,-2.4504,-2.4376,-2.4655,-2.4754,-2.4754,-2.4826,-2.527,-2.5715,-2.6027,-2.6886,-2.7424,-2.719,-2.8121,-2.8947,-2.955,-3.0365,-3.1294,-3.2127,-3.2785,-3.3294,-3.3721,-3.3897,-3.4123,-3.465,-3.5052,-3.5378,-3.5504,-3.5554,-3.5554,-3.5454,-3.5303,-3.5353,-3.5479,-3.5579,-3.5881,-3.6157,-3.6232,-3.6358,-3.6358,-3.6358,-3.6358,-3.6358,-3.6358,-3.6358,-3.6358,-3.6383,-3.6483,-3.6508,-3.6508,-3.6759,-3.7312,-3.7764,-3.8065,-3.908,-3.911,-3.932,-3.9439,-3.9439,-3.9439,-3.9218,-3.9038,-3.8822,-3.8529,-3.8207,-3.7916,-3.7738,-3.7659,-3.7234,-3.6887,-3.661,-3.5355,-3.4311,-3.3519,-3.327,-3.2816,-3.2345,-3.2219,-3.1934,-3.1518,-3.1386,-3.1386,-3.1411,-3.1411,-3.1386,-3.1386,-3.1411,-3.1311,-3.116,-3.1135,-3.1035,-3.0934,-3.0884,-3.0733,-3.0407,-3.0357,-3.0181,-2.9829,-2.9779,-2.9779,-2.9702,-2.9624,-2.9521,-2.9365,-2.9263,-2.887,-2.8259,-2.7753,-2.7406,-2.7267,-2.7175,-2.7105,-2.6981,-2.6649,-2.6431,-2.6338,-2.5915,-2.564,-2.5583,-2.5665,-2.5735,-2.5846,-2.6326,-2.6788,-2.742,-2.813,-2.8448,-2.803,-2.9038,-2.9963,-3.05,-3.1311,-3.2089,-3.2599,-3.3221,-3.3696,-3.3922,-3.4173,-3.4675,-3.5177,-3.5479,-3.5655,-3.5981,-3.6056,-3.6107,-3.6056,-3.5906,-3.5755,-3.5881,-3.5956,-3.6107,-3.6257,-3.6307,-3.6358,-3.6358,-3.6358,-3.6358,-3.6358,-3.6358,-3.6408,-3.6408,-3.6458,-3.6609,-3.681,-3.6985,-3.7462,-3.8115,-3.8442,-3.8617,-3.9481,-3.9481,-3.9439,-3.9559,-3.9768,-3.9768,-3.9918,-4.0127,-3.998,-3.998,-3.9906,-3.9683,-3.9534,-3.9383,-3.9004,-3.8621,-3.8359,-3.7732,-3.6904,-3.5758,-3.4528,-3.3772,-3.3046,-3.2878,-3.2559,-3.2172,-3.2014,-3.2014,-3.2014,-3.2014,-3.2014,-3.2039,-3.2014,-3.1913,-3.1712,-3.1687,-3.1637,-3.1436,-3.1361,-3.1235,-3.0984,-3.0909,-3.0733,-3.0432,-3.0382,-3.0382,-3.0382,-3.0382,-3.0202,-2.992,-2.9915,-2.9801,-2.9504,-2.9181,-2.8994,-2.8879,-2.8763,-2.8701,-2.8664,-2.8214,-2.8009,-2.7833,-2.7366,-2.7024,-2.6971,-2.7034,-2.7104,-2.7238,-2.7817,-2.8357,-2.8878,-2.9512,-2.9738,-2.969,-3.0076,-3.0734,-3.1318,-3.2196,-3.2758,-3.3146,-3.3695,-3.4223,-3.455,-3.4751,-3.5253,-3.5705,-3.5855,-3.5906,-3.6282,-3.6332,-3.6358,-3.6358,-3.6257,-3.6207,-3.6307,-3.6332,-3.6332,-3.6358,-3.6358,-3.6358,-3.6358,-3.6358,-3.6358,-3.6358,-3.6358,-3.6609,-3.6634,-3.6734,-3.686,-3.7136,-3.7513,-3.7914,-3.8417,-3.8668,-3.8868,-3.9768,-3.9757,-3.9541,-3.9888,-4.0427,-4.0457,-4.0756,-4.1265,-4.1294,-4.1235,-4.1265,-4.1099,-4.1113,-4.105,-4.0566,-4.0305,-4.0217,-3.9816,-3.9253,-3.8031,-3.6333,-3.4695,-3.3817,-3.3369,-3.3089,-3.3028,-3.3028,-3.2968,-3.2893,-3.2893,-3.3068,-3.2943,-3.2893,-3.2792,-3.234,-3.2265,-3.2064,-3.1712,-3.1587,-3.1562,-3.1461,-3.1436,-3.1361,-3.1311,-3.126,-3.126,-3.1235,-3.1286,-3.1135,-3.0728,-3.0873,-3.0909,-3.0951,-3.0753,-3.0465,-3.0358,-3.0288,-3.011,-2.9857,-2.9659,-2.9416,-2.9523,-2.8858,-2.8313,-2.869,-2.8712,-2.8804,-2.8918,-2.9556,-3.0147,-3.0351,-3.0824,-3.127,-3.1584,-3.1389,-3.1591,-3.2098,-3.298,-3.3543,-3.3667,-3.4245,-3.4926,-3.5353,-3.5386,-3.5805,-3.6132,-3.6282,-3.6307,-3.6332,-3.6358,-3.6358,-3.6358,-3.6358,-3.6358,-3.6358,-3.6358,-3.6358,-3.6358,-3.6383,-3.6383,-3.6383,-3.6383,-3.6358,-3.6358,-3.6558,-3.6784,-3.696,-3.7061,-3.7412,-3.7864,-3.8165,-3.8366,-3.8642,-3.8969,-3.917,-4.0436,-4.0535,-4.042,-4.0664,-4.1085,-4.1115,-4.1205,-4.1384,-4.1414,-4.149,-4.1445,-4.143,-4.1458,-4.1288,-4.1092,-4.0926,-4.086,-4.0568,-4.0118,-3.9505,-3.8524,-3.6525,-3.4778,-3.3979,-3.3666,-3.3436,-3.3351,-3.324,-3.3068,-3.3068,-3.3068,-3.3093,-3.3068,-3.3018,-3.2867,-3.2817,-3.2792,-3.2641,-3.2616,-3.2365,-3.2039,-3.2014,-3.1788,-3.1411,-3.1411,-3.1436,-3.1436,-3.1788,-3.1738,-3.126,-3.1286,-3.1304,-3.1379,-3.1215,-3.1183,-3.1208,-3.1314,-3.1427,-3.1332,-3.1234,-3.1153,-3.1032,-3.0566,-3.0415,-3.0328,-3.0351,-3.0464,-3.0554,-3.0937,-3.1205,-3.1448,-3.1761,-3.2196,-3.2867,-3.2812,-3.2901,-3.3128,-3.3881,-3.441,-3.446,-3.4911,-3.5378,-3.5604,-3.5881,-3.6157,-3.6307,-3.6358,-3.6358,-3.6358,-3.6358,-3.6358,-3.6358,-3.6358,-3.6358,-3.6358,-3.6358,-3.6358,-3.6358,-3.6383,-3.6408,-3.6408,-3.6528,-3.6383,-3.6358,-3.6885,-3.7186,-3.7312,-3.7437,-3.799,-3.8542,-3.8693,-3.8843,-3.922,-3.9546,-3.9572,-4.1696,-4.174,-4.1377,-4.1475,-4.1926,-4.188,-4.1953,-4.2162,-4.2192,-4.2239,-4.2179,-4.2239,-4.2204,-4.2186,-4.2127,-4.2067,-4.1989,-4.1804,-4.1489,-4.1084,-4.0291,-3.8473,-3.6329,-3.5173,-3.451,-3.4203,-3.3854,-3.3496,-3.3326,-3.324,-3.3154,-3.3068,-3.3093,-3.3093,-3.3068,-3.3093,-3.3093,-3.3068,-3.3068,-3.2893,-3.2591,-3.2566,-3.2441,-3.2139,-3.2089,-3.2089,-3.2139,-3.2416,-3.2315,-3.1913,-3.1938,-3.2089,-3.2089,-3.2089,-3.2089,-3.2114,-3.2331,-3.2421,-3.2386,-3.2377,-3.2239,-3.2064,-3.1825,-3.1536,-3.1359,-3.1359,-3.1448,-3.156,-3.1737,-3.2123,-3.2607,-3.2867,-3.3341,-3.3931,-3.4155,-3.4205,-3.4005,-3.4635,-3.5027,-3.5177,-3.5504,-3.5881,-3.5881,-3.6182,-3.6307,-3.6358,-3.6358,-3.6358,-3.6358,-3.6358,-3.6358,-3.6358,-3.6358,-3.6358,-3.6408,-3.6408,-3.6533,-3.6533,-3.6734,-3.6709,-3.6784,-3.6784,-3.686,-3.6985,-3.7312,-3.7588,-3.7814,-3.809,-3.8542,-3.8969,-3.912,-3.9421,-3.9798,-4.0049,-4.0074,-4.3325,-4.3024,-4.2487,-4.2439,-4.2817,-4.2724,-4.2887,-4.324,-4.321,-4.321,-4.321,-4.3299,-4.3071,-4.3329,-4.3011,-4.319,-4.319,-4.3041,-4.2942,-4.2444,-4.1609,-4.0028,-3.8422,-3.6764,-3.6045,-3.5542,-3.4705,-3.4288,-3.411,-3.3862,-3.3553,-3.3507,-3.3456,-3.3219,-3.3269,-3.3219,-3.3144,-3.3093,-3.3093,-3.3068,-3.2993,-3.2968,-3.2918,-3.2893,-3.2867,-3.2893,-3.2918,-3.2993,-3.2792,-3.2315,-3.2817,-3.2943,-3.2993,-3.3018,-3.3018,-3.2968,-3.2943,-3.3018,-3.3043,-3.276,-3.2698,-3.2612,-3.2351,-3.2089,-3.2089,-3.2162,-3.2347,-3.2372,-3.2673,-3.3107,-3.3568,-3.4245,-3.461,-3.4785,-3.5161,-3.5328,-3.5127,-3.5328,-3.5629,-3.5655,-3.6081,-3.6307,-3.6358,-3.6358,-3.6358,-3.6358,-3.6358,-3.6358,-3.6358,-3.6358,-3.6358,-3.6358,-3.6358,-3.6358,-3.6408,-3.6458,-3.6634,-3.6784,-3.7161,-3.7312,-3.7462,-3.7513,-3.7588,-3.7739,-3.7914,-3.8191,-3.8517,-3.8843,-3.9195,-3.9496,-3.9747,-4.0074,-4.0425,-4.0551,-4.0626,-4.4441,-4.4283,-4.379,-4.3784,-4.3945,-4.3929,-4.3758,-4.3596,-4.3596,-4.3518,-4.3329,-4.3329,-4.3329,-4.3329,-4.3329,-4.3329,-4.3329,-4.325,-4.317,-4.2981,-4.2438,-4.1936,-4.0847,-3.9224,-3.7813,-3.7229,-3.6753,-3.6135,-3.5678,-3.5105,-3.4882,-3.4679,-3.4287,-3.4148,-3.3771,-3.3721,-3.3495,-3.3169,-3.3119,-3.3144,-3.3144,-3.3144,-3.3119,-3.3093,-3.3093,-3.3093,-3.3093,-3.3093,-3.3018,-3.2943,-3.2993,-3.3093,-3.3093,-3.3093,-3.3093,-3.3093,-3.3093,-3.3093,-3.3068,-3.3068,-3.3007,-3.3032,-3.2971,-3.2896,-3.2921,-3.3233,-3.3408,-3.362,-3.392,-3.4234,-3.446,-3.4961,-3.5303,-3.5479,-3.5805,-3.6107,-3.6031,-3.6081,-3.6132,-3.6182,-3.6257,-3.6358,-3.6358,-3.6358,-3.6358,-3.6358,-3.6358,-3.6358,-3.6358,-3.6358,-3.6358,-3.6358,-3.6358,-3.6408,-3.6659,-3.6835,-3.7186,-3.7362,-3.7663,-3.8165,-3.8316,-3.8291,-3.8391,-3.8391,-3.8391,-3.8718,-3.9145,-3.9396,-3.9697,-4.0023,-4.0375,-4.0676,-4.0927,-4.1053,-4.1279,-4.6021,-4.5795,-4.5231,-4.5018,-4.4887,-4.4617,-4.4419,-4.4143,-4.3988,-4.3784,-4.3578,-4.3468,-4.3438,-4.3329,-4.3329,-4.3329,-4.3329,-4.3329,-4.325,-4.309,-4.293,-4.2769,-4.2548,-4.1448,-4.0196,-3.8922,-3.8061,-3.7473,-3.6704,-3.6236,-3.5719,-3.5264,-3.5021,-3.464,-3.4349,-3.4299,-3.4148,-3.3972,-3.3847,-3.3746,-3.352,-3.347,-3.3269,-3.3144,-3.3093,-3.3093,-3.3093,-3.3093,-3.3093,-3.3093,-3.3093,-3.3093,-3.3093,-3.3093,-3.3093,-3.3093,-3.3093,-3.3093,-3.3093,-3.3093,-3.3194,-3.347,-3.347,-3.3621,-3.3796,-3.4148,-3.4248,-3.4324,-3.4525,-3.4801,-3.5102,-3.5604,-3.5881,-3.5981,-3.6182,-3.6358,-3.6358,-3.6358,-3.6358,-3.6358,-3.6358,-3.6358,-3.6358,-3.6358,-3.6358,-3.6358,-3.6358,-3.6358,-3.6358,-3.6358,-3.6358,-3.6358,-3.6358,-3.6508,-3.6835,-3.7262,-3.7814,-3.8065,-3.8316,-3.8944,-3.9446,-3.932,-3.9195,-3.9195,-3.9195,-3.9396,-3.9772,-3.9973,-4.0249,-4.0651,-4.1003,-4.1254,-4.1455,-4.1656,-4.1932,-4.7605,-4.7169,-4.655,-4.6127,-4.5841,-4.5332,-4.5036,-4.4768,-4.4572,-4.4281,-4.3856,-4.3814,-4.3675,-4.3468,-4.3359,-4.3389,-4.3509,-4.3539,-4.3549,-4.3758,-4.3787,-4.3707,-4.3456,-4.3146,-4.2474,-4.0821,-3.9702,-3.8755,-3.7966,-3.7197,-3.6885,-3.6108,-3.566,-3.539,-3.4992,-3.4851,-3.4726,-3.4575,-3.4525,-3.4424,-3.4098,-3.4022,-3.3796,-3.3571,-3.3495,-3.3495,-3.3495,-3.347,-3.3395,-3.3319,-3.3319,-3.3319,-3.3294,-3.3119,-3.3093,-3.3093,-3.3194,-3.3294,-3.3345,-3.3395,-3.3621,-3.3997,-3.4022,-3.4223,-3.455,-3.4751,-3.4851,-3.4901,-3.5052,-3.5278,-3.5655,-3.6006,-3.6257,-3.6332,-3.6358,-3.6358,-3.6358,-3.6358,-3.6358,-3.6358,-3.6358,-3.6358,-3.6358,-3.6358,-3.6358,-3.6383,-3.6383,-3.6433,-3.6458,-3.6533,-3.6634,-3.686,-3.6985,-3.7262,-3.7613,-3.7814,-3.8366,-3.8894,-3.912,-3.9672,-4.0325,-4.03,-4.0124,-4.0049,-4.0099,-4.0249,-4.0375,-4.0576,-4.0877,-4.1304,-4.1555,-4.1731,-4.1982,-4.2233,-4.2509,-4.8129,-4.7737,-4.7538,-4.7134,-4.6689,-4.6518,-4.6127,-4.5551,-4.5332,-4.4922,-4.4494,-4.4311,-4.4048,-4.3717,-4.3657,-4.3818,-4.4128,-4.4167,-4.4407,-4.4736,-4.4796,-4.4713,-4.4654,-4.4624,-4.4377,-4.3755,-4.2241,-4.0801,-4.0037,-3.9256,-3.855,-3.7832,-3.7352,-3.6713,-3.5989,-3.5628,-3.5385,-3.4977,-3.4926,-3.4801,-3.465,-3.45,-3.4474,-3.4274,-3.4248,-3.4299,-3.4374,-3.4399,-3.4449,-3.4449,-3.4449,-3.4399,-3.4198,-3.3596,-3.3244,-3.3294,-3.3571,-3.3771,-3.3796,-3.4148,-3.4399,-3.4575,-3.46,-3.46,-3.4851,-3.5152,-3.5378,-3.5504,-3.5755,-3.6081,-3.6207,-3.6307,-3.6332,-3.6358,-3.6358,-3.6358,-3.6358,-3.6358,-3.6358,-3.6358,-3.6358,-3.6358,-3.6358,-3.6408,-3.6458,-3.6508,-3.6558,-3.681,-3.7036,-3.7136,-3.7236,-3.7487,-3.7789,-3.8165,-3.8542,-3.8668,-3.8994,-3.9697,-4.0049,-4.0325,-4.0852,-4.1103,-4.1103,-4.1053,-4.0978,-4.0978,-4.1078,-4.1178,-4.148,-4.1882,-4.2057,-4.2183,-4.2434,-4.2685,-4.2836,-4.8547,-4.8356,-4.8098,-4.7803,-4.7505,-4.7337,-4.6965,-4.648,-4.6198,-4.5782,-4.5241,-4.4967,-4.4603,-4.4342,-4.4413,-4.4709,-4.495,-4.4825,-4.5035,-4.5274,-4.5274,-4.5274,-4.5334,-4.5334,-4.5221,-4.4876,-4.3872,-4.2907,-4.2252,-4.1527,-4.0673,-3.9833,-3.9123,-3.832,-3.7387,-3.6826,-3.6319,-3.5856,-3.5621,-3.5403,-3.5127,-3.4926,-3.4751,-3.4751,-3.4751,-3.4726,-3.4726,-3.4726,-3.4726,-3.47,-3.4726,-3.4726,-3.4575,-3.4324,-3.3922,-3.3997,-3.4173,-3.4324,-3.4324,-3.4625,-3.4801,-3.5127,-3.5152,-3.5303,-3.5529,-3.583,-3.5931,-3.6031,-3.6107,-3.6358,-3.6358,-3.6358,-3.6358,-3.6358,-3.6383,-3.6383,-3.6383,-3.6383,-3.6433,-3.6483,-3.6458,-3.6433,-3.6358,-3.6433,-3.6533,-3.6634,-3.6759,-3.7111,-3.7563,-3.7688,-3.7789,-3.814,-3.8442,-3.8768,-3.917,-3.9396,-3.9672,-4.035,-4.0802,-4.1103,-4.143,-4.1681,-4.1982,-4.2158,-4.2032,-4.163,-4.1706,-4.1781,-4.2108,-4.2409,-4.2559,-4.271,-4.2911,-4.3112,-4.3313,-4.8832,-4.8832,-4.8483,-4.8356,-4.8292,-4.8033,-4.7671,-4.7337,-4.7101,-4.6647,-4.6022,-4.595,-4.5656,-4.5246,-4.5418,-4.5666,-4.5897,-4.568,-4.5687,-4.5813,-4.5843,-4.5753,-4.5723,-4.5693,-4.5813,-4.5848,-4.5531,-4.487,-4.3805,-4.314,-4.2519,-4.1633,-4.0759,-3.9984,-3.911,-3.8236,-3.7629,-3.71,-3.6792,-3.6351,-3.573,-3.5303,-3.5052,-3.5052,-3.5052,-3.5102,-3.5177,-3.5203,-3.5177,-3.5177,-3.5127,-3.5102,-3.5077,-3.5052,-3.5052,-3.5027,-3.4951,-3.4901,-3.4901,-3.5102,-3.5378,-3.568,-3.5705,-3.5956,-3.6132,-3.6232,-3.6332,-3.6358,-3.6358,-3.6358,-3.6358,-3.6358,-3.6433,-3.6558,-3.6584,-3.6584,-3.6784,-3.686,-3.6935,-3.686,-3.6684,-3.6659,-3.6734,-3.6709,-3.6885,-3.7211,-3.7337,-3.7663,-3.8065,-3.8165,-3.8341,-3.8743,-3.9069,-3.9371,-3.9722,-4.0074,-4.045,-4.1028,-4.1329,-4.153,-4.1932,-4.2308,-4.2585,-4.2735,-4.2434,-4.2108,-4.2233,-4.2333,-4.2534,-4.276,-4.2986,-4.3187,-4.3338,-4.3639,-4.3915,-4.8956,-4.8956,-4.8923,-4.8832,-4.8707,-4.8677,-4.8453,-4.8131,-4.7968,-4.7473,-4.7163,-4.7373,-4.7197,-4.6717,-4.6454,-4.6659,-4.6741,-4.6622,-4.6581,-4.6826,-4.683,-4.683,-4.698,-4.707,-4.683,-4.677,-4.689,-4.6096,-4.502,-4.4211,-4.3573,-4.2838,-4.2272,-4.1471,-4.0734,-3.9841,-3.9171,-3.8308,-3.7782,-3.7146,-3.6502,-3.6232,-3.6182,-3.6132,-3.6107,-3.6056,-3.5981,-3.5956,-3.6006,-3.6056,-3.6107,-3.6132,-3.6157,-3.6157,-3.6157,-3.6031,-3.578,-3.5454,-3.5504,-3.5755,-3.5981,-3.6132,-3.6182,-3.6307,-3.6332,-3.6358,-3.6358,-3.6358,-3.6408,-3.6508,-3.6558,-3.6458,-3.6634,-3.6885,-3.7086,-3.7337,-3.7538,-3.7362,-3.7412,-3.7462,-3.7362,-3.7287,-3.7287,-3.7262,-3.7287,-3.7638,-3.799,-3.8291,-3.8617,-3.8793,-3.9044,-3.9446,-3.9823,-4.0124,-4.0249,-4.0601,-4.1028,-4.1605,-4.1781,-4.1957,-4.2384,-4.2735,-4.2886,-4.2936,-4.2735,-4.276,-4.2986,-4.3062,-4.2986,-4.3137,-4.3438,-4.3589,-4.3714,-4.4066,-4.4518,-4.9018,-4.9018,-4.9018,-4.8956,-4.9024,-4.9396,-4.9375,-4.9284,-4.949,-4.9391,-4.9093,-4.9123,-4.892,-4.8435,-4.798,-4.7849,-4.7968,-4.7562,-4.7407,-4.7392,-4.7396,-4.7309,-4.7279,-4.7309,-4.7309,-4.7309,-4.7279,-4.6983,-4.6159,-4.5782,-4.5347,-4.4731,-4.3938,-4.3319,-4.2353,-4.1404,-4.0482,-3.9706,-3.8774,-3.8023,-3.7653,-3.7358,-3.7136,-3.6835,-3.681,-3.6659,-3.6458,-3.6358,-3.6358,-3.6358,-3.6358,-3.6358,-3.6358,-3.6358,-3.6358,-3.6307,-3.6157,-3.6006,-3.6031,-3.6232,-3.6332,-3.6358,-3.6358,-3.6358,-3.6358,-3.6408,-3.6558,-3.681,-3.6835,-3.6935,-3.7186,-3.7287,-3.7412,-3.7563,-3.7638,-3.7814,-3.8015,-3.7965,-3.7889,-3.7965,-3.8065,-3.8115,-3.8115,-3.809,-3.8165,-3.8417,-3.8668,-3.8894,-3.9295,-3.9672,-3.9923,-4.0224,-4.0601,-4.0953,-4.0978,-4.1128,-4.1404,-4.1856,-4.2032,-4.2283,-4.2785,-4.3087,-4.3313,-4.3589,-4.3689,-4.374,-4.3815,-4.3664,-4.3489,-4.3664,-4.389,-4.4091,-4.4317,-4.4744,-4.5171,-4.9018,-4.9018,-4.9018,-4.912,-4.9323,-4.9864,-5.0139,-5.0281,-5.0753,-5.0851,-5.0654,-5.0526,-5.0429,-5.0196,-4.9541,-4.9206,-4.9035,-4.8521,-4.8049,-4.7794,-4.7538,-4.7396,-4.7396,-4.7396,-4.7309,-4.7309,-4.7309,-4.7219,-4.7163,-4.6959,-4.6608,-4.6373,-4.5432,-4.4813,-4.41,-4.3118,-4.1983,-4.0804,-3.9669,-3.8917,-3.8503,-3.8136,-3.7811,-3.7462,-3.7236,-3.6985,-3.6634,-3.6383,-3.6358,-3.6358,-3.6358,-3.6358,-3.6358,-3.6358,-3.6358,-3.6358,-3.6282,-3.6307,-3.6282,-3.6358,-3.6358,-3.6408,-3.6533,-3.6659,-3.6634,-3.6634,-3.686,-3.7362,-3.7387,-3.7613,-3.7864,-3.7939,-3.804,-3.809,-3.8216,-3.8291,-3.8417,-3.8592,-3.8718,-3.8793,-3.8944,-3.912,-3.912,-3.9044,-3.912,-3.9245,-3.9396,-3.9546,-3.9948,-4.0425,-4.0727,-4.1003,-4.1279,-4.163,-4.1831,-4.1907,-4.2082,-4.2208,-4.2359,-4.2685,-4.3212,-4.3639,-4.394,-4.4217,-4.4443,-4.4367,-4.4217,-4.4091,-4.4016,-4.4192,-4.4392,-4.4694,-4.4995,-4.5397,-4.5673,-4.9018,-4.9018,-4.9018,-4.939,-4.9999,-5.0067,-5.0541,-5.1085,-5.1186,-5.1223,-5.1193,-5.1293,-5.1574,-5.1507,-5.1057,-5.041,-4.9789,-4.9178,-4.8687,-4.8301,-4.788,-4.7709,-4.7624,-4.7568,-4.7396,-4.7309,-4.7309,-4.7309,-4.7309,-4.7222,-4.7019,-4.6784,-4.6315,-4.6107,-4.5483,-4.4499,-4.3204,-4.1964,-4.076,-3.9756,-3.9174,-3.8758,-3.8386,-3.7988,-3.7487,-3.7161,-3.7111,-3.6709,-3.6483,-3.6483,-3.6383,-3.6358,-3.6358,-3.6458,-3.6508,-3.6508,-3.6634,-3.6634,-3.6634,-3.6558,-3.6433,-3.6533,-3.6784,-3.7136,-3.7136,-3.7588,-3.7864,-3.7914,-3.7965,-3.804,-3.809,-3.8065,-3.8467,-3.8693,-3.8919,-3.9145,-3.932,-3.9546,-3.9672,-3.9697,-3.9823,-3.9998,-4.0124,-4.0074,-4.0023,-4.0149,-4.0174,-4.0325,-4.0676,-4.1128,-4.1455,-4.1731,-4.1932,-4.2283,-4.271,-4.2785,-4.266,-4.2836,-4.3062,-4.3338,-4.3714,-4.4116,-4.4568,-4.4669,-4.4844,-4.4744,-4.4719,-4.4794,-4.4819,-4.4769,-4.492,-4.5271,-4.5497,-4.5773,-4.5999,-4.9018,-4.9052,-4.9458,-4.983,-5.0168,-5.1048,-5.1623,-5.1961,-5.2401,-5.2538,-5.2505,-5.2537,-5.2564,-5.2416,-5.1915,-5.1401,-5.08,-5.0026,-4.9501,-4.9097,-4.8687,-4.8271,-4.8103,-4.7964,-4.7794,-4.7538,-4.7452,-4.7366,-4.7309,-4.7309,-4.7309,-4.7135,-4.6931,-4.6756,-4.6284,-4.5656,-4.445,-4.3471,-4.2249,-4.1373,-4.0913,-4.0197,-3.977,-3.9287,-3.8715,-3.831,-3.7884,-3.7258,-3.6935,-3.6784,-3.6584,-3.6508,-3.6533,-3.6709,-3.686,-3.691,-3.7111,-3.7236,-3.7186,-3.7086,-3.701,-3.7362,-3.7563,-3.7688,-3.7688,-3.7939,-3.8241,-3.8391,-3.8542,-3.8592,-3.9019,-3.9069,-3.922,-3.9421,-3.9647,-3.9923,-4.0124,-4.0325,-4.045,-4.0425,-4.0651,-4.0902,-4.1003,-4.1103,-4.1053,-4.1028,-4.1053,-4.1128,-4.1455,-4.1731,-4.2057,-4.2333,-4.2534,-4.2735,-4.3137,-4.3162,-4.3137,-4.3438,-4.3714,-4.4016,-4.4317,-4.4794,-4.5171,-4.5246,-4.5372,-4.5472,-4.5547,-4.5623,-4.5573,-4.5347,-4.5547,-4.5924,-4.61,-4.6175,-4.6326,-4.9182,-4.9424,-5.0101,-5.0439,-5.0608,-5.1792,-5.2435,-5.2739,-5.3213,-5.3518,-5.3518,-5.3314,-5.3144,-5.2903,-5.252,-5.2059,-5.1549,-5.0951,-5.0416,-4.9947,-4.947,-4.9066,-4.8852,-4.8521,-4.8271,-4.7964,-4.7709,-4.7654,-4.7366,-4.7279,-4.7309,-4.7222,-4.7106,-4.7019,-4.6844,-4.6225,-4.5504,-4.4648,-4.3871,-4.3039,-4.2404,-4.1789,-4.1115,-4.0546,-3.987,-3.9415,-3.8783,-3.8155,-3.7657,-3.7434,-3.7258,-3.6935,-3.701,-3.7161,-3.7387,-3.7563,-3.7739,-3.8015,-3.7889,-3.7764,-3.7588,-3.7814,-3.8165,-3.8216,-3.8266,-3.8391,-3.8843,-3.9044,-3.9145,-3.9346,-3.9873,-3.9873,-4.0049,-4.0249,-4.045,-4.0701,-4.0752,-4.0902,-4.1053,-4.1128,-4.1379,-4.1605,-4.1731,-4.1806,-4.1806,-4.1806,-4.1932,-4.1957,-4.2082,-4.2333,-4.2534,-4.2811,-4.3062,-4.3288,-4.3489,-4.3664,-4.384,-4.4041,-4.4317,-4.4593,-4.492,-4.5397,-4.5698,-4.5773,-4.5949,-4.6225,-4.62,-4.605,-4.5924,-4.5824,-4.605,-4.6276,-4.6326,-4.6401,-4.6577,-4.9514,-5.0135,-5.0845,-5.115,-5.1285,-5.1995,-5.2739,-5.3315,-5.3484,-5.3518,-5.3518,-5.345,-5.3348,-5.3179,-5.2903,-5.259,-5.2236,-5.1696,-5.1252,-5.0876,-5.0416,-5.0026,-4.963,-4.9309,-4.8984,-4.8521,-4.8301,-4.7964,-4.7624,-4.7482,-4.7396,-4.7309,-4.7279,-4.7222,-4.7222,-4.6785,-4.6225,-4.5504,-4.4897,-4.4153,-4.3491,-4.2889,-4.235,-4.1826,-4.1071,-4.0488,-4.0011,-3.9082,-3.8605,-3.843,-3.801,-3.7786,-3.7837,-3.7864,-3.799,-3.8015,-3.809,-3.814,-3.8065,-3.8015,-3.814,-3.8291,-3.8693,-3.8818,-3.8969,-3.9245,-3.9572,-3.9672,-3.9772,-3.9998,-4.03,-4.0526,-4.0777,-4.0953,-4.1128,-4.1329,-4.1379,-4.1605,-4.1756,-4.1856,-4.2007,-4.2183,-4.2359,-4.2484,-4.2509,-4.2585,-4.276,-4.2836,-4.2836,-4.3062,-4.3288,-4.3413,-4.3689,-4.3815,-4.4041,-4.4317,-4.4543,-4.4719,-4.4895,-4.5095,-4.5422,-4.5799,-4.6075,-4.6225,-4.625,-4.6301,-4.6326,-4.6301,-4.6376,-4.6476,-4.6326,-4.6451,-4.6502,-4.6702,-4.6954,-4.9548,-5.0135,-5.0879,-5.1488,-5.1995,-5.2773,-5.3281,-5.3484,-5.3518,-5.3518,-5.3518,-5.3518,-5.3518,-5.3348,-5.3179,-5.3041,-5.28,-5.2449,-5.2092,-5.1842,-5.1369,-5.107,-5.0691,-5.0338,-4.9868,-4.9259,-4.8852,-4.8438,-4.8049,-4.7709,-4.7568,-4.7452,-4.7396,-4.7309,-4.7193,-4.6931,-4.658,-4.6225,-4.5747,-4.5173,-4.4741,-4.4125,-4.3654,-4.3368,-4.2452,-4.186,-4.1542,-4.0428,-3.9757,-3.9483,-3.906,-3.8437,-3.8414,-3.8515,-3.8567,-3.8693,-3.8818,-3.912,-3.912,-3.9145,-3.912,-3.922,-3.927,-3.9421,-3.9471,-3.9923,-4.0149,-4.0325,-4.0501,-4.0752,-4.1028,-4.1053,-4.1204,-4.1304,-4.1505,-4.1781,-4.1982,-4.2333,-4.2559,-4.2585,-4.2685,-4.2735,-4.2861,-4.3162,-4.3263,-4.3338,-4.3514,-4.3489,-4.3489,-4.3865,-4.4166,-4.4192,-4.4317,-4.4418,-4.4593,-4.4869,-4.507,-4.5221,-4.5372,-4.5522,-4.5849,-4.615,-4.6301,-4.6376,-4.6351,-4.6326,-4.6527,-4.6753,-4.7079,-4.7154,-4.7079,-4.7054,-4.7205,-4.738,-4.7556,-4.9869,-5.0634,-5.1014,-5.1792,-5.2706,-5.3281,-5.3518,-5.3518,-5.3518,-5.3518,-5.3518,-5.3518,-5.3518,-5.345,-5.3348,-5.3315,-5.3247,-5.2972,-5.28,-5.259,-5.2274,-5.1987,-5.1623,-5.1252,-5.0767,-5.0182,-4.9661,-4.9178,-4.8769,-4.8218,-4.788,-4.7624,-4.7452,-4.7396,-4.7279,-4.7106,-4.6931,-4.6668,-4.6284,-4.6016,-4.5656,-4.5293,-4.4869,-4.4499,-4.3909,-4.3341,-4.278,-4.1984,-4.1187,-4.0664,-4.0089,-3.9363,-3.9392,-3.9271,-3.9348,-3.9499,-3.9421,-3.9747,-3.9873,-3.9923,-3.9973,-4.0249,-4.0124,-4.0099,-4.0224,-4.0626,-4.0752,-4.0927,-4.1204,-4.143,-4.158,-4.158,-4.1731,-4.1831,-4.2057,-4.2359,-4.2459,-4.2811,-4.2936,-4.2986,-4.3237,-4.3288,-4.3463,-4.3765,-4.4016,-4.4141,-4.4267,-4.4217,-4.4166,-4.4493,-4.4844,-4.492,-4.497,-4.5095,-4.5221,-4.5397,-4.5598,-4.5748,-4.5824,-4.5899,-4.6024,-4.6276,-4.6401,-4.6552,-4.6652,-4.6778,-4.6979,-4.723,-4.7581,-4.7832,-4.7933,-4.7908,-4.7958,-4.8058,-4.8184,-5.042,-5.1371,-5.1282,-5.2097,-5.3348,-5.3484,-5.3518,-5.3518,-5.3518,-5.3518,-5.3518,-5.3518,-5.3518,-5.3518,-5.3484,-5.3484,-5.3416,-5.328,-5.3179,-5.3041,-5.28,-5.259,-5.2378,-5.1987,-5.1623,-5.1177,-5.0647,-5.0026,-4.9582,-4.8934,-4.8355,-4.7794,-4.7709,-4.7538,-4.7366,-4.7193,-4.7106,-4.6931,-4.6844,-4.658,-4.6314,-4.6106,-4.5837,-4.5475,-4.5103,-4.4761,-4.4293,-4.3601,-4.297,-4.2457,-4.1815,-4.1319,-4.0844,-4.0364,-4.0262,-4.0006,-3.9851,-4.0278,-4.045,-4.0526,-4.0827,-4.1053,-4.0877,-4.0978,-4.1078,-4.1229,-4.1354,-4.143,-4.163,-4.1882,-4.2082,-4.2208,-4.2359,-4.2559,-4.276,-4.2886,-4.2886,-4.3011,-4.3087,-4.3263,-4.3639,-4.3865,-4.4192,-4.4493,-4.4669,-4.4794,-4.492,-4.507,-4.502,-4.492,-4.5246,-4.5497,-4.5598,-4.5748,-4.5874,-4.5874,-4.5949,-4.6024,-4.6125,-4.62,-4.6301,-4.6502,-4.6753,-4.6954,-4.7104,-4.7305,-4.7631,-4.7908,-4.8159,-4.8385,-4.8611,-4.8586,-4.856,-4.8661,-4.8812,-5.0506,-5.1439,-5.1282,-5.2097,-5.3382,-5.3518,-5.3518,-5.3518,-5.3518,-5.3518,-5.3518,-5.3518,-5.3518,-5.3518,-5.3518,-5.3518,-5.3518,-5.3416,-5.3416,-5.3348,-5.3212,-5.311,-5.2972,-5.2694,-5.2378,-5.1915,-5.1401,-5.0919,-5.0493,-4.9789,-4.9015,-4.8355,-4.8049,-4.7794,-4.7538,-4.7396,-4.7309,-4.7282,-4.7312,-4.7138,-4.705,-4.6874,-4.6698,-4.6519,-4.6479,-4.6264,-4.5952,-4.5638,-4.5133,-4.4442,-4.3568,-4.2869,-4.194,-4.1372,-4.0948,-4.077,-4.0891,-4.119,-4.1078,-4.1103,-4.1354,-4.1781,-4.1706,-4.148,-4.1555,-4.1681,-4.1907,-4.1982,-4.2133,-4.2409,-4.2534,-4.2635,-4.2785,-4.2961,-4.3137,-4.3187,-4.3263,-4.3463,-4.3539,-4.384,-4.4192,-4.4493,-4.4819,-4.5095,-4.5271,-4.5397,-4.5547,-4.5698,-4.5748,-4.5598,-4.5598,-4.5849,-4.5974,-4.605,-4.6125,-4.615,-4.6225,-4.6301,-4.6401,-4.6577,-4.6828,-4.7029,-4.7205,-4.7456,-4.7732,-4.8058,-4.841,-4.8611,-4.8711,-4.9038,-4.9264,-4.9213,-4.9188,-4.9213,-4.9238,-5.0863,-5.1747,-5.1537,-5.2227,-5.3482,-5.3551,-5.3551,-5.3518,-5.3518,-5.3518,-5.3518,-5.3518,-5.3518,-5.3518,-5.3518,-5.3518,-5.3518,-5.3518,-5.3518,-5.3518,-5.3518,-5.3416,-5.328,-5.3144,-5.2903,-5.252,-5.217,-5.1743,-5.1369,-5.057,-4.971,-4.9015,-4.8521,-4.8187,-4.788,-4.7654,-4.7662,-4.7725,-4.7815,-4.7698,-4.767,-4.7702,-4.7851,-4.7822,-4.7849,-4.7756,-4.757,-4.7449,-4.6899,-4.6329,-4.544,-4.4719,-4.3846,-4.3057,-4.2334,-4.2087,-4.198,-4.2128,-4.2225,-4.198,-4.22,-4.2503,-4.2569,-4.2308,-4.2233,-4.2333,-4.2434,-4.2534,-4.276,-4.2961,-4.2961,-4.3011,-4.3137,-4.3288,-4.3363,-4.3438,-4.3689,-4.3966,-4.4217,-4.4493,-4.4769,-4.507,-4.5347,-4.5623,-4.5824,-4.5899,-4.5949,-4.605,-4.61,-4.605,-4.6024,-4.6125,-4.62,-4.625,-4.6351,-4.6476,-4.6552,-4.6652,-4.6728,-4.6954,-4.728,-4.7556,-4.7732,-4.8083,-4.846,-4.8736,-4.8987,-4.9063,-4.9213,-4.949,-4.9615,-4.9515,-4.9414,-4.9439,-4.949,-5.129,-5.226,-5.2008,-5.2618,-5.3615,-5.3717,-5.3584,-5.3518,-5.3518,-5.3518,-5.3518,-5.3518,-5.3518,-5.3518,-5.3518,-5.3518,-5.3518,-5.3518,-5.3518,-5.3518,-5.3518,-5.345,-5.345,-5.3314,-5.3144,-5.3043,-5.2838,-5.2387,-5.2059,-5.1327,-5.0493,-4.9741,-4.9259,-4.8914,-4.8736,-4.8262,-4.8309,-4.8736,-4.8741,-4.8655,-4.8536,-4.8865,-4.9254,-4.9164,-4.9073,-4.8951,-4.886,-4.8643,-4.8243,-4.784,-4.7338,-4.6736,-4.5762,-4.5156,-4.4334,-4.3854,-4.3467,-4.336,-4.3407,-4.3079,-4.3092,-4.3178,-4.3184,-4.2947,-4.2846,-4.271,-4.276,-4.2785,-4.2961,-4.2986,-4.2986,-4.3187,-4.3388,-4.3614,-4.3765,-4.3915,-4.4166,-4.4493,-4.4895,-4.5146,-4.5397,-4.5673,-4.5824,-4.605,-4.605,-4.6225,-4.6276,-4.6301,-4.6476,-4.6476,-4.6527,-4.6527,-4.6552,-4.6627,-4.6803,-4.6903,-4.6928,-4.7004,-4.7129,-4.7456,-4.7883,-4.8109,-4.8259,-4.8636,-4.8987,-4.9264,-4.9464,-4.9464,-4.9414,-4.9515,-4.9615,-4.964,-4.9665,-4.9741,-4.964,-5.1438,-5.2031,-5.2684,-5.3318,-5.3847,-5.3783,-5.3584,-5.3518,-5.3518,-5.3518,-5.3518,-5.3518,-5.3518,-5.3518,-5.3518,-5.3518,-5.3518,-5.3518,-5.3518,-5.3518,-5.3518,-5.3518,-5.3518,-5.345,-5.345,-5.3348,-5.3145,-5.2872,-5.2487,-5.1915,-5.1475,-5.0984,-5.0402,-4.9993,-5.009,-4.9542,-4.9457,-4.9927,-4.9851,-4.9614,-4.9404,-4.9224,-4.9254,-4.9464,-4.9522,-4.9851,-4.9908,-5.005,-4.9715,-4.938,-4.8887,-4.7903,-4.6611,-4.6448,-4.5972,-4.524,-4.5304,-4.5128,-4.4731,-4.4408,-4.4214,-4.3965,-4.3738,-4.3517,-4.3295,-4.3073,-4.2961,-4.2986,-4.2986,-4.2986,-4.3112,-4.3388,-4.3714,-4.3966,-4.4217,-4.4443,-4.4694,-4.5095,-4.5522,-4.5773,-4.6024,-4.615,-4.6276,-4.6326,-4.6326,-4.6301,-4.6301,-4.6401,-4.6803,-4.6928,-4.7079,-4.7079,-4.6979,-4.7079,-4.723,-4.7355,-4.7405,-4.7531,-4.7707,-4.8058,-4.846,-4.8711,-4.8912,-4.9188,-4.949,-4.959,-4.959,-4.959,-4.9565,-4.959,-4.9766,-4.9841,-5.0067,-5.0193,-4.9941,-5.1861,-5.2448,-5.3054,-5.3706,-5.4161,-5.3798,-5.3574,-5.3584,-5.3618,-5.3551,-5.3518,-5.3518,-5.3518,-5.3518,-5.3518,-5.3518,-5.3518,-5.3518,-5.3518,-5.3518,-5.3518,-5.3518,-5.3518,-5.3518,-5.3518,-5.3416,-5.3348,-5.3179,-5.28,-5.2624,-5.2197,-5.213,-5.1588,-5.1371,-5.1582,-5.1171,-5.0869,-5.1327,-5.1264,-5.0938,-5.0427,-5.0336,-5.0214,-5.0301,-5.0421,-5.0661,-5.0657,-5.0862,-5.0743,-5.0471,-5.0005,-4.9413,-4.8606,-4.8293,-4.7886,-4.7371,-4.7161,-4.6895,-4.6374,-4.5847,-4.5342,-4.502,-4.4505,-4.4261,-4.3848,-4.3653,-4.3295,-4.3321,-4.3098,-4.2986,-4.3363,-4.3664,-4.4242,-4.4618,-4.4869,-4.5121,-4.5422,-4.5773,-4.5974,-4.6075,-4.62,-4.6225,-4.6326,-4.6326,-4.6326,-4.6401,-4.6401,-4.6702,-4.7054,-4.7481,-4.7581,-4.7707,-4.7657,-4.7556,-4.7631,-4.7757,-4.7883,-4.8058,-4.8284,-4.8611,-4.8962,-4.9289,-4.959,-4.959,-4.9565,-4.959,-4.959,-4.9665,-4.9615,-4.959,-4.9841,-5.0092,-5.0368,-5.0826,-5.0751,-5.2461,-5.3039,-5.3158,-5.38,-5.4452,-5.3818,-5.3582,-5.3681,-5.3717,-5.3618,-5.3518,-5.3518,-5.3518,-5.3518,-5.3518,-5.3518,-5.3518,-5.3518,-5.3518,-5.3518,-5.3518,-5.3518,-5.3518,-5.3518,-5.3518,-5.3518,-5.345,-5.3348,-5.3179,-5.314,-5.3228,-5.3374,-5.3231,-5.3041,-5.3142,-5.2925,-5.2562,-5.2765,-5.266,-5.2321,-5.2031,-5.1665,-5.1266,-5.1233,-5.1229,-5.1229,-5.1229,-5.1199,-5.1199,-5.1075,-5.0798,-5.036,-5.0015,-4.963,-4.9397,-4.8964,-4.8539,-4.8223,-4.792,-4.7205,-4.6687,-4.6164,-4.5662,-4.5154,-4.4722,-4.45,-4.4171,-4.3891,-4.3559,-4.3487,-4.3866,-4.4256,-4.486,-4.5196,-4.5447,-4.5698,-4.5999,-4.6276,-4.6301,-4.6351,-4.6351,-4.6351,-4.6451,-4.6451,-4.6502,-4.6577,-4.6778,-4.7079,-4.7456,-4.7908,-4.8209,-4.8385,-4.8485,-4.836,-4.8259,-4.8284,-4.8485,-4.8661,-4.8912,-4.9188,-4.9414,-4.954,-4.959,-4.959,-4.959,-4.969,-4.9791,-4.9866,-4.9791,-4.9971,-5.0323,-5.0882,-5.1185,-5.162,-5.1798,-5.277,-5.3153,-5.2993,-5.3439,-5.4139,-5.3723,-5.361,-5.3912,-5.3783,-5.3618,-5.3518,-5.3518,-5.3518,-5.3518,-5.3518,-5.3518,-5.3518,-5.3518,-5.3518,-5.3518,-5.3518,-5.3518,-5.3518,-5.3518,-5.3518,-5.3518,-5.3518,-5.3518,-5.3585,-5.3852,-5.4119,-5.4213,-5.4422,-5.4593,-5.4919,-5.4574,-5.4293,-5.4338,-5.3946,-5.3507,-5.3015,-5.2457,-5.1665,-5.1509,-5.1293,-5.1229,-5.1229,-5.1229,-5.1229,-5.1229,-5.1135,-5.0917,-5.0728,-5.0537,-5.0346,-5.0057,-4.964,-4.9346,-4.8951,-4.8324,-4.792,-4.7513,-4.6998,-4.6323,-4.6168,-4.6142,-4.5764,-4.5511,-4.5207,-4.4643,-4.4914,-4.5208,-4.5791,-4.5666,-4.5917,-4.5999,-4.6225,-4.6351,-4.6401,-4.6451,-4.6476,-4.6677,-4.6979,-4.7029,-4.7179,-4.728,-4.7506,-4.7807,-4.8134,-4.8485,-4.8786,-4.8962,-4.9138,-4.9339,-4.9289,-4.9088,-4.9188,-4.9339,-4.9464,-4.9615,-4.9665,-4.9565,-4.9615,-4.9916,-4.9891,-4.9916,-4.9992,-5.0529,-5.0731,-5.0988,-5.1266,-5.1727,-5.2165,-5.2685,-5.313]}]]